<?xml version="1.0" encoding="UTF-8" standalone="no" ?>
<gpx xmlns="http://www.topografix.com/GPX/1/1" xmlns:xsi="http://www.w3.org/2001/XMLSchema-instance" xsi:schemaLocation="http://www.topografix.com/GPX/1/1 http://www.topografix.com/GPX/1/1/gpx.xsd" version="1.1" creator="VisuGPX - https://www.visugpx.com">
  <metadata>
    <name>Mont Jovet - Roc du Bécoin</name>
    <desc><![CDATA[Enchainement couloir Jovet et Bécoin, au départ de La Plagne ]]></desc>
  </metadata>
  <trk>
    <name><![CDATA[Tracé actuel: 13 DEC 2015 07:56]]></name>
    <trkseg>
      <trkpt lat="45.50586" lon="6.67655">
        <ele>1889.13</ele>
        <time>2015-12-13T06:56:04Z</time>
      </trkpt>
      <trkpt lat="45.5058" lon="6.67659">
        <ele>1889.13</ele>
        <time>2015-12-13T06:56:17Z</time>
      </trkpt>
      <trkpt lat="45.50579" lon="6.67661">
        <ele>1890.09</ele>
        <time>2015-12-13T06:56:36Z</time>
      </trkpt>
      <trkpt lat="45.50578" lon="6.67658">
        <ele>1891.53</ele>
        <time>2015-12-13T06:57:00Z</time>
      </trkpt>
      <trkpt lat="45.50579" lon="6.6766">
        <ele>1892.97</ele>
        <time>2015-12-13T06:57:28Z</time>
      </trkpt>
      <trkpt lat="45.50579" lon="6.67659">
        <ele>1893.93</ele>
        <time>2015-12-13T06:57:47Z</time>
      </trkpt>
      <trkpt lat="45.50577" lon="6.67663">
        <ele>1894.9</ele>
        <time>2015-12-13T06:58:04Z</time>
      </trkpt>
      <trkpt lat="45.50577" lon="6.67663">
        <ele>1896.34</ele>
        <time>2015-12-13T06:58:22Z</time>
      </trkpt>
      <trkpt lat="45.50577" lon="6.67658">
        <ele>1897.3</ele>
        <time>2015-12-13T06:58:41Z</time>
      </trkpt>
      <trkpt lat="45.50573" lon="6.67662">
        <ele>1898.26</ele>
        <time>2015-12-13T06:59:02Z</time>
      </trkpt>
      <trkpt lat="45.50572" lon="6.67661">
        <ele>1898.74</ele>
        <time>2015-12-13T06:59:05Z</time>
      </trkpt>
      <trkpt lat="45.50561" lon="6.67648">
        <ele>1901.63</ele>
        <time>2015-12-13T06:59:22Z</time>
      </trkpt>
      <trkpt lat="45.50558" lon="6.67644">
        <ele>1902.11</ele>
        <time>2015-12-13T06:59:26Z</time>
      </trkpt>
      <trkpt lat="45.50546" lon="6.67614">
        <ele>1902.59</ele>
        <time>2015-12-13T06:59:46Z</time>
      </trkpt>
      <trkpt lat="45.50545" lon="6.67612">
        <ele>1903.07</ele>
        <time>2015-12-13T06:59:48Z</time>
      </trkpt>
      <trkpt lat="45.50533" lon="6.67592">
        <ele>1904.51</ele>
        <time>2015-12-13T07:00:07Z</time>
      </trkpt>
      <trkpt lat="45.50524" lon="6.67569">
        <ele>1906.91</ele>
        <time>2015-12-13T07:00:24Z</time>
      </trkpt>
      <trkpt lat="45.50517" lon="6.67549">
        <ele>1908.83</ele>
        <time>2015-12-13T07:00:39Z</time>
      </trkpt>
      <trkpt lat="45.50517" lon="6.67548">
        <ele>1908.83</ele>
        <time>2015-12-13T07:00:40Z</time>
      </trkpt>
      <trkpt lat="45.50504" lon="6.67533">
        <ele>1911.24</ele>
        <time>2015-12-13T07:00:57Z</time>
      </trkpt>
      <trkpt lat="45.50496" lon="6.67508">
        <ele>1912.68</ele>
        <time>2015-12-13T07:01:16Z</time>
      </trkpt>
      <trkpt lat="45.50494" lon="6.67486">
        <ele>1913.64</ele>
        <time>2015-12-13T07:01:30Z</time>
      </trkpt>
      <trkpt lat="45.50494" lon="6.67477">
        <ele>1914.6</ele>
        <time>2015-12-13T07:01:36Z</time>
      </trkpt>
      <trkpt lat="45.50494" lon="6.6745">
        <ele>1916.04</ele>
        <time>2015-12-13T07:01:54Z</time>
      </trkpt>
      <trkpt lat="45.50494" lon="6.67427">
        <ele>1917.49</ele>
        <time>2015-12-13T07:02:08Z</time>
      </trkpt>
      <trkpt lat="45.50493" lon="6.674">
        <ele>1918.45</ele>
        <time>2015-12-13T07:02:25Z</time>
      </trkpt>
      <trkpt lat="45.50494" lon="6.67373">
        <ele>1919.89</ele>
        <time>2015-12-13T07:02:41Z</time>
      </trkpt>
      <trkpt lat="45.50495" lon="6.67367">
        <ele>1919.89</ele>
        <time>2015-12-13T07:02:45Z</time>
      </trkpt>
      <trkpt lat="45.50495" lon="6.6736">
        <ele>1920.85</ele>
        <time>2015-12-13T07:02:49Z</time>
      </trkpt>
      <trkpt lat="45.50495" lon="6.67348">
        <ele>1921.81</ele>
        <time>2015-12-13T07:02:57Z</time>
      </trkpt>
      <trkpt lat="45.50499" lon="6.67323">
        <ele>1922.77</ele>
        <time>2015-12-13T07:03:14Z</time>
      </trkpt>
      <trkpt lat="45.50503" lon="6.67304">
        <ele>1925.18</ele>
        <time>2015-12-13T07:03:28Z</time>
      </trkpt>
      <trkpt lat="45.50506" lon="6.67281">
        <ele>1928.54</ele>
        <time>2015-12-13T07:03:45Z</time>
      </trkpt>
      <trkpt lat="45.50507" lon="6.67269">
        <ele>1931.43</ele>
        <time>2015-12-13T07:03:56Z</time>
      </trkpt>
      <trkpt lat="45.50509" lon="6.67254">
        <ele>1933.83</ele>
        <time>2015-12-13T07:04:10Z</time>
      </trkpt>
      <trkpt lat="45.50511" lon="6.67246">
        <ele>1935.27</ele>
        <time>2015-12-13T07:04:16Z</time>
      </trkpt>
      <trkpt lat="45.50515" lon="6.67226">
        <ele>1938.64</ele>
        <time>2015-12-13T07:04:32Z</time>
      </trkpt>
      <trkpt lat="45.50515" lon="6.67217">
        <ele>1939.6</ele>
        <time>2015-12-13T07:04:39Z</time>
      </trkpt>
      <trkpt lat="45.50523" lon="6.67201">
        <ele>1942</ele>
        <time>2015-12-13T07:04:55Z</time>
      </trkpt>
      <trkpt lat="45.50532" lon="6.67189">
        <ele>1943.92</ele>
        <time>2015-12-13T07:05:08Z</time>
      </trkpt>
      <trkpt lat="45.50539" lon="6.67177">
        <ele>1946.33</ele>
        <time>2015-12-13T07:05:21Z</time>
      </trkpt>
      <trkpt lat="45.50545" lon="6.67166">
        <ele>1948.25</ele>
        <time>2015-12-13T07:05:33Z</time>
      </trkpt>
      <trkpt lat="45.50551" lon="6.67154">
        <ele>1950.65</ele>
        <time>2015-12-13T07:05:46Z</time>
      </trkpt>
      <trkpt lat="45.50554" lon="6.67145">
        <ele>1953.06</ele>
        <time>2015-12-13T07:05:54Z</time>
      </trkpt>
      <trkpt lat="45.50555" lon="6.67143">
        <ele>1953.06</ele>
        <time>2015-12-13T07:05:57Z</time>
      </trkpt>
      <trkpt lat="45.50552" lon="6.67135">
        <ele>1954.98</ele>
        <time>2015-12-13T07:06:11Z</time>
      </trkpt>
      <trkpt lat="45.50556" lon="6.67116">
        <ele>1957.86</ele>
        <time>2015-12-13T07:06:31Z</time>
      </trkpt>
      <trkpt lat="45.5056" lon="6.67099">
        <ele>1960.27</ele>
        <time>2015-12-13T07:06:46Z</time>
      </trkpt>
      <trkpt lat="45.50563" lon="6.67089">
        <ele>1963.63</ele>
        <time>2015-12-13T07:07:01Z</time>
      </trkpt>
      <trkpt lat="45.50566" lon="6.67074">
        <ele>1965.07</ele>
        <time>2015-12-13T07:07:14Z</time>
      </trkpt>
      <trkpt lat="45.50568" lon="6.67064">
        <ele>1968.44</ele>
        <time>2015-12-13T07:07:24Z</time>
      </trkpt>
      <trkpt lat="45.50569" lon="6.67053">
        <ele>1969.88</ele>
        <time>2015-12-13T07:07:34Z</time>
      </trkpt>
      <trkpt lat="45.50574" lon="6.67037">
        <ele>1972.76</ele>
        <time>2015-12-13T07:07:50Z</time>
      </trkpt>
      <trkpt lat="45.50576" lon="6.67026">
        <ele>1976.61</ele>
        <time>2015-12-13T07:08:01Z</time>
      </trkpt>
      <trkpt lat="45.50578" lon="6.67021">
        <ele>1978.05</ele>
        <time>2015-12-13T07:08:07Z</time>
      </trkpt>
      <trkpt lat="45.50577" lon="6.67011">
        <ele>1980.93</ele>
        <time>2015-12-13T07:08:18Z</time>
      </trkpt>
      <trkpt lat="45.50579" lon="6.67002">
        <ele>1984.3</ele>
        <time>2015-12-13T07:08:27Z</time>
      </trkpt>
      <trkpt lat="45.50578" lon="6.66997">
        <ele>1984.3</ele>
        <time>2015-12-13T07:08:42Z</time>
      </trkpt>
      <trkpt lat="45.50578" lon="6.66998">
        <ele>1986.22</ele>
        <time>2015-12-13T07:08:59Z</time>
      </trkpt>
      <trkpt lat="45.50577" lon="6.66998">
        <ele>1984.78</ele>
        <time>2015-12-13T07:09:06Z</time>
      </trkpt>
      <trkpt lat="45.50578" lon="6.66997">
        <ele>1981.41</ele>
        <time>2015-12-13T07:09:10Z</time>
      </trkpt>
      <trkpt lat="45.50579" lon="6.66997">
        <ele>1984.78</ele>
        <time>2015-12-13T07:09:11Z</time>
      </trkpt>
      <trkpt lat="45.50579" lon="6.66998">
        <ele>1984.78</ele>
        <time>2015-12-13T07:09:12Z</time>
      </trkpt>
      <trkpt lat="45.50579" lon="6.66997">
        <ele>1985.74</ele>
        <time>2015-12-13T07:09:24Z</time>
      </trkpt>
      <trkpt lat="45.50579" lon="6.66998">
        <ele>1987.66</ele>
        <time>2015-12-13T07:09:49Z</time>
      </trkpt>
      <trkpt lat="45.50577" lon="6.66999">
        <ele>1987.66</ele>
        <time>2015-12-13T07:10:01Z</time>
      </trkpt>
      <trkpt lat="45.50579" lon="6.67">
        <ele>1988.62</ele>
        <time>2015-12-13T07:10:19Z</time>
      </trkpt>
      <trkpt lat="45.50579" lon="6.66998">
        <ele>1989.1</ele>
        <time>2015-12-13T07:10:42Z</time>
      </trkpt>
      <trkpt lat="45.50581" lon="6.66995">
        <ele>1990.55</ele>
        <time>2015-12-13T07:10:48Z</time>
      </trkpt>
      <trkpt lat="45.50579" lon="6.66987">
        <ele>1992.95</ele>
        <time>2015-12-13T07:10:57Z</time>
      </trkpt>
      <trkpt lat="45.50575" lon="6.6698">
        <ele>1995.83</ele>
        <time>2015-12-13T07:11:10Z</time>
      </trkpt>
      <trkpt lat="45.50572" lon="6.66971">
        <ele>1999.2</ele>
        <time>2015-12-13T07:11:22Z</time>
      </trkpt>
      <trkpt lat="45.50571" lon="6.66968">
        <ele>2000.16</ele>
        <time>2015-12-13T07:11:26Z</time>
      </trkpt>
      <trkpt lat="45.50572" lon="6.6696">
        <ele>2001.6</ele>
        <time>2015-12-13T07:11:33Z</time>
      </trkpt>
      <trkpt lat="45.50577" lon="6.66949">
        <ele>2004.97</ele>
        <time>2015-12-13T07:11:45Z</time>
      </trkpt>
      <trkpt lat="45.50578" lon="6.66945">
        <ele>2006.41</ele>
        <time>2015-12-13T07:11:50Z</time>
      </trkpt>
      <trkpt lat="45.50579" lon="6.66944">
        <ele>2006.89</ele>
        <time>2015-12-13T07:11:52Z</time>
      </trkpt>
      <trkpt lat="45.50583" lon="6.66932">
        <ele>2009.77</ele>
        <time>2015-12-13T07:12:05Z</time>
      </trkpt>
      <trkpt lat="45.50586" lon="6.6693">
        <ele>2012.66</ele>
        <time>2015-12-13T07:12:16Z</time>
      </trkpt>
      <trkpt lat="45.50584" lon="6.6692">
        <ele>2015.54</ele>
        <time>2015-12-13T07:12:28Z</time>
      </trkpt>
      <trkpt lat="45.5058" lon="6.6691">
        <ele>2018.43</ele>
        <time>2015-12-13T07:12:41Z</time>
      </trkpt>
      <trkpt lat="45.50576" lon="6.66901">
        <ele>2022.27</ele>
        <time>2015-12-13T07:12:53Z</time>
      </trkpt>
      <trkpt lat="45.50574" lon="6.66889">
        <ele>2025.64</ele>
        <time>2015-12-13T07:13:05Z</time>
      </trkpt>
      <trkpt lat="45.50574" lon="6.66885">
        <ele>2026.6</ele>
        <time>2015-12-13T07:13:09Z</time>
      </trkpt>
      <trkpt lat="45.50572" lon="6.66873">
        <ele>2029.48</ele>
        <time>2015-12-13T07:13:24Z</time>
      </trkpt>
      <trkpt lat="45.50569" lon="6.66861">
        <ele>2033.81</ele>
        <time>2015-12-13T07:13:39Z</time>
      </trkpt>
      <trkpt lat="45.50565" lon="6.66849">
        <ele>2036.69</ele>
        <time>2015-12-13T07:13:54Z</time>
      </trkpt>
      <trkpt lat="45.50561" lon="6.6684">
        <ele>2039.09</ele>
        <time>2015-12-13T07:14:05Z</time>
      </trkpt>
      <trkpt lat="45.50561" lon="6.66838">
        <ele>2039.57</ele>
        <time>2015-12-13T07:14:08Z</time>
      </trkpt>
      <trkpt lat="45.50559" lon="6.66828">
        <ele>2042.46</ele>
        <time>2015-12-13T07:14:20Z</time>
      </trkpt>
      <trkpt lat="45.50556" lon="6.66819">
        <ele>2045.34</ele>
        <time>2015-12-13T07:14:31Z</time>
      </trkpt>
      <trkpt lat="45.50556" lon="6.66811">
        <ele>2048.23</ele>
        <time>2015-12-13T07:14:42Z</time>
      </trkpt>
      <trkpt lat="45.50552" lon="6.66799">
        <ele>2051.59</ele>
        <time>2015-12-13T07:14:56Z</time>
      </trkpt>
      <trkpt lat="45.50551" lon="6.66791">
        <ele>2054.47</ele>
        <time>2015-12-13T07:15:08Z</time>
      </trkpt>
      <trkpt lat="45.50548" lon="6.66782">
        <ele>2057.84</ele>
        <time>2015-12-13T07:15:20Z</time>
      </trkpt>
      <trkpt lat="45.50548" lon="6.66772">
        <ele>2060.72</ele>
        <time>2015-12-13T07:15:33Z</time>
      </trkpt>
      <trkpt lat="45.50545" lon="6.66765">
        <ele>2062.65</ele>
        <time>2015-12-13T07:15:40Z</time>
      </trkpt>
      <trkpt lat="45.50541" lon="6.66755">
        <ele>2065.53</ele>
        <time>2015-12-13T07:15:53Z</time>
      </trkpt>
      <trkpt lat="45.50539" lon="6.66743">
        <ele>2068.89</ele>
        <time>2015-12-13T07:16:09Z</time>
      </trkpt>
      <trkpt lat="45.5054" lon="6.66736">
        <ele>2071.3</ele>
        <time>2015-12-13T07:16:22Z</time>
      </trkpt>
      <trkpt lat="45.50539" lon="6.66726">
        <ele>2073.22</ele>
        <time>2015-12-13T07:16:35Z</time>
      </trkpt>
      <trkpt lat="45.5054" lon="6.66721">
        <ele>2074.66</ele>
        <time>2015-12-13T07:16:42Z</time>
      </trkpt>
      <trkpt lat="45.50543" lon="6.66705">
        <ele>2077.55</ele>
        <time>2015-12-13T07:16:56Z</time>
      </trkpt>
      <trkpt lat="45.50543" lon="6.66702">
        <ele>2077.55</ele>
        <time>2015-12-13T07:16:58Z</time>
      </trkpt>
      <trkpt lat="45.5054" lon="6.66687">
        <ele>2080.43</ele>
        <time>2015-12-13T07:17:14Z</time>
      </trkpt>
      <trkpt lat="45.50536" lon="6.66679">
        <ele>2081.39</ele>
        <time>2015-12-13T07:17:22Z</time>
      </trkpt>
      <trkpt lat="45.50529" lon="6.66669">
        <ele>2084.28</ele>
        <time>2015-12-13T07:17:35Z</time>
      </trkpt>
      <trkpt lat="45.50523" lon="6.66657">
        <ele>2087.64</ele>
        <time>2015-12-13T07:17:50Z</time>
      </trkpt>
      <trkpt lat="45.50519" lon="6.66653">
        <ele>2088.6</ele>
        <time>2015-12-13T07:17:56Z</time>
      </trkpt>
      <trkpt lat="45.50512" lon="6.66644">
        <ele>2091.49</ele>
        <time>2015-12-13T07:18:10Z</time>
      </trkpt>
      <trkpt lat="45.50509" lon="6.6664">
        <ele>2092.93</ele>
        <time>2015-12-13T07:18:16Z</time>
      </trkpt>
      <trkpt lat="45.50501" lon="6.66635">
        <ele>2095.33</ele>
        <time>2015-12-13T07:18:29Z</time>
      </trkpt>
      <trkpt lat="45.50493" lon="6.6663">
        <ele>2098.21</ele>
        <time>2015-12-13T07:18:40Z</time>
      </trkpt>
      <trkpt lat="45.50488" lon="6.66626">
        <ele>2099.66</ele>
        <time>2015-12-13T07:18:48Z</time>
      </trkpt>
      <trkpt lat="45.50482" lon="6.66622">
        <ele>2101.58</ele>
        <time>2015-12-13T07:18:58Z</time>
      </trkpt>
      <trkpt lat="45.50473" lon="6.66618">
        <ele>2103.98</ele>
        <time>2015-12-13T07:19:10Z</time>
      </trkpt>
      <trkpt lat="45.50471" lon="6.66618">
        <ele>2104.94</ele>
        <time>2015-12-13T07:19:12Z</time>
      </trkpt>
      <trkpt lat="45.50459" lon="6.66617">
        <ele>2107.35</ele>
        <time>2015-12-13T07:19:27Z</time>
      </trkpt>
      <trkpt lat="45.50448" lon="6.66619">
        <ele>2110.23</ele>
        <time>2015-12-13T07:19:42Z</time>
      </trkpt>
      <trkpt lat="45.50439" lon="6.66625">
        <ele>2113.12</ele>
        <time>2015-12-13T07:19:55Z</time>
      </trkpt>
      <trkpt lat="45.50429" lon="6.66633">
        <ele>2116</ele>
        <time>2015-12-13T07:20:11Z</time>
      </trkpt>
      <trkpt lat="45.50422" lon="6.66637">
        <ele>2117.92</ele>
        <time>2015-12-13T07:20:22Z</time>
      </trkpt>
      <trkpt lat="45.50414" lon="6.66639">
        <ele>2120.32</ele>
        <time>2015-12-13T07:20:34Z</time>
      </trkpt>
      <trkpt lat="45.50405" lon="6.6664">
        <ele>2122.25</ele>
        <time>2015-12-13T07:20:46Z</time>
      </trkpt>
      <trkpt lat="45.50393" lon="6.66639">
        <ele>2125.13</ele>
        <time>2015-12-13T07:21:03Z</time>
      </trkpt>
      <trkpt lat="45.50384" lon="6.66636">
        <ele>2128.02</ele>
        <time>2015-12-13T07:21:17Z</time>
      </trkpt>
      <trkpt lat="45.50379" lon="6.66631">
        <ele>2130.9</ele>
        <time>2015-12-13T07:21:29Z</time>
      </trkpt>
      <trkpt lat="45.50375" lon="6.66617">
        <ele>2133.78</ele>
        <time>2015-12-13T07:21:45Z</time>
      </trkpt>
      <trkpt lat="45.50371" lon="6.66607">
        <ele>2136.67</ele>
        <time>2015-12-13T07:21:57Z</time>
      </trkpt>
      <trkpt lat="45.50367" lon="6.66595">
        <ele>2139.07</ele>
        <time>2015-12-13T07:22:09Z</time>
      </trkpt>
      <trkpt lat="45.50367" lon="6.66594">
        <ele>2139.55</ele>
        <time>2015-12-13T07:22:11Z</time>
      </trkpt>
      <trkpt lat="45.50364" lon="6.66584">
        <ele>2141.95</ele>
        <time>2015-12-13T07:22:23Z</time>
      </trkpt>
      <trkpt lat="45.50357" lon="6.66579">
        <ele>2145.32</ele>
        <time>2015-12-13T07:22:36Z</time>
      </trkpt>
      <trkpt lat="45.50355" lon="6.66577">
        <ele>2145.32</ele>
        <time>2015-12-13T07:22:38Z</time>
      </trkpt>
      <trkpt lat="45.50352" lon="6.66576">
        <ele>2145.8</ele>
        <time>2015-12-13T07:22:42Z</time>
      </trkpt>
      <trkpt lat="45.50349" lon="6.66575">
        <ele>2147.24</ele>
        <time>2015-12-13T07:22:46Z</time>
      </trkpt>
      <trkpt lat="45.50343" lon="6.66569">
        <ele>2150.13</ele>
        <time>2015-12-13T07:22:59Z</time>
      </trkpt>
      <trkpt lat="45.50348" lon="6.66559">
        <ele>2153.01</ele>
        <time>2015-12-13T07:23:14Z</time>
      </trkpt>
      <trkpt lat="45.50345" lon="6.66551">
        <ele>2155.89</ele>
        <time>2015-12-13T07:23:27Z</time>
      </trkpt>
      <trkpt lat="45.50336" lon="6.66547">
        <ele>2157.82</ele>
        <time>2015-12-13T07:23:37Z</time>
      </trkpt>
      <trkpt lat="45.50337" lon="6.6654">
        <ele>2160.22</ele>
        <time>2015-12-13T07:23:49Z</time>
      </trkpt>
      <trkpt lat="45.50338" lon="6.66531">
        <ele>2163.58</ele>
        <time>2015-12-13T07:24:02Z</time>
      </trkpt>
      <trkpt lat="45.5034" lon="6.66519">
        <ele>2165.99</ele>
        <time>2015-12-13T07:24:16Z</time>
      </trkpt>
      <trkpt lat="45.50341" lon="6.66504">
        <ele>2169.35</ele>
        <time>2015-12-13T07:24:32Z</time>
      </trkpt>
      <trkpt lat="45.50335" lon="6.66497">
        <ele>2171.27</ele>
        <time>2015-12-13T07:24:44Z</time>
      </trkpt>
      <trkpt lat="45.50329" lon="6.6649">
        <ele>2174.16</ele>
        <time>2015-12-13T07:25:00Z</time>
      </trkpt>
      <trkpt lat="45.50323" lon="6.66485">
        <ele>2177.04</ele>
        <time>2015-12-13T07:25:12Z</time>
      </trkpt>
      <trkpt lat="45.5032" lon="6.66483">
        <ele>2178.97</ele>
        <time>2015-12-13T07:25:32Z</time>
      </trkpt>
      <trkpt lat="45.50313" lon="6.66475">
        <ele>2181.37</ele>
        <time>2015-12-13T07:25:44Z</time>
      </trkpt>
      <trkpt lat="45.50307" lon="6.66469">
        <ele>2184.73</ele>
        <time>2015-12-13T07:25:58Z</time>
      </trkpt>
      <trkpt lat="45.5031" lon="6.66463">
        <ele>2185.69</ele>
        <time>2015-12-13T07:26:09Z</time>
      </trkpt>
      <trkpt lat="45.50315" lon="6.66454">
        <ele>2189.54</ele>
        <time>2015-12-13T07:26:25Z</time>
      </trkpt>
      <trkpt lat="45.50319" lon="6.66446">
        <ele>2192.42</ele>
        <time>2015-12-13T07:26:38Z</time>
      </trkpt>
      <trkpt lat="45.50323" lon="6.66437">
        <ele>2194.35</ele>
        <time>2015-12-13T07:26:51Z</time>
      </trkpt>
      <trkpt lat="45.50327" lon="6.66428">
        <ele>2196.27</ele>
        <time>2015-12-13T07:27:03Z</time>
      </trkpt>
      <trkpt lat="45.50327" lon="6.66426">
        <ele>2197.23</ele>
        <time>2015-12-13T07:27:27Z</time>
      </trkpt>
      <trkpt lat="45.5033" lon="6.6642">
        <ele>2198.67</ele>
        <time>2015-12-13T07:27:41Z</time>
      </trkpt>
      <trkpt lat="45.50334" lon="6.66415">
        <ele>2200.59</ele>
        <time>2015-12-13T07:27:56Z</time>
      </trkpt>
      <trkpt lat="45.50336" lon="6.6641">
        <ele>2202.52</ele>
        <time>2015-12-13T07:28:11Z</time>
      </trkpt>
      <trkpt lat="45.50339" lon="6.66404">
        <ele>2204.44</ele>
        <time>2015-12-13T07:28:28Z</time>
      </trkpt>
      <trkpt lat="45.50335" lon="6.66397">
        <ele>2206.36</ele>
        <time>2015-12-13T07:28:41Z</time>
      </trkpt>
      <trkpt lat="45.50329" lon="6.66391">
        <ele>2210.21</ele>
        <time>2015-12-13T07:28:53Z</time>
      </trkpt>
      <trkpt lat="45.5033" lon="6.66383">
        <ele>2213.57</ele>
        <time>2015-12-13T07:29:06Z</time>
      </trkpt>
      <trkpt lat="45.50329" lon="6.66377">
        <ele>2215.01</ele>
        <time>2015-12-13T07:29:12Z</time>
      </trkpt>
      <trkpt lat="45.5033" lon="6.66369">
        <ele>2215.98</ele>
        <time>2015-12-13T07:29:19Z</time>
      </trkpt>
      <trkpt lat="45.50331" lon="6.66366">
        <ele>2217.42</ele>
        <time>2015-12-13T07:29:22Z</time>
      </trkpt>
      <trkpt lat="45.50334" lon="6.66354">
        <ele>2219.82</ele>
        <time>2015-12-13T07:29:34Z</time>
      </trkpt>
      <trkpt lat="45.50338" lon="6.66341">
        <ele>2222.71</ele>
        <time>2015-12-13T07:29:48Z</time>
      </trkpt>
      <trkpt lat="45.5034" lon="6.66331">
        <ele>2224.63</ele>
        <time>2015-12-13T07:29:57Z</time>
      </trkpt>
      <trkpt lat="45.50343" lon="6.66322">
        <ele>2226.55</ele>
        <time>2015-12-13T07:30:10Z</time>
      </trkpt>
      <trkpt lat="45.50348" lon="6.66307">
        <ele>2229.92</ele>
        <time>2015-12-13T07:30:25Z</time>
      </trkpt>
      <trkpt lat="45.5035" lon="6.66301">
        <ele>2231.84</ele>
        <time>2015-12-13T07:30:35Z</time>
      </trkpt>
      <trkpt lat="45.50353" lon="6.66288">
        <ele>2234.24</ele>
        <time>2015-12-13T07:30:47Z</time>
      </trkpt>
      <trkpt lat="45.50355" lon="6.66277">
        <ele>2237.61</ele>
        <time>2015-12-13T07:31:04Z</time>
      </trkpt>
      <trkpt lat="45.50357" lon="6.66266">
        <ele>2239.53</ele>
        <time>2015-12-13T07:31:15Z</time>
      </trkpt>
      <trkpt lat="45.50364" lon="6.66265">
        <ele>2242.41</ele>
        <time>2015-12-13T07:31:29Z</time>
      </trkpt>
      <trkpt lat="45.50372" lon="6.66263">
        <ele>2245.78</ele>
        <time>2015-12-13T07:31:43Z</time>
      </trkpt>
      <trkpt lat="45.50379" lon="6.66258">
        <ele>2249.14</ele>
        <time>2015-12-13T07:31:58Z</time>
      </trkpt>
      <trkpt lat="45.50381" lon="6.6625">
        <ele>2251.54</ele>
        <time>2015-12-13T07:32:11Z</time>
      </trkpt>
      <trkpt lat="45.50377" lon="6.66238">
        <ele>2254.91</ele>
        <time>2015-12-13T07:32:27Z</time>
      </trkpt>
      <trkpt lat="45.50381" lon="6.66233">
        <ele>2257.31</ele>
        <time>2015-12-13T07:32:41Z</time>
      </trkpt>
      <trkpt lat="45.50378" lon="6.66223">
        <ele>2260.2</ele>
        <time>2015-12-13T07:32:55Z</time>
      </trkpt>
      <trkpt lat="45.50376" lon="6.66214">
        <ele>2262.6</ele>
        <time>2015-12-13T07:33:06Z</time>
      </trkpt>
      <trkpt lat="45.5038" lon="6.66207">
        <ele>2265</ele>
        <time>2015-12-13T07:33:18Z</time>
      </trkpt>
      <trkpt lat="45.50383" lon="6.66201">
        <ele>2266.93</ele>
        <time>2015-12-13T07:33:25Z</time>
      </trkpt>
      <trkpt lat="45.50383" lon="6.66192">
        <ele>2268.85</ele>
        <time>2015-12-13T07:33:39Z</time>
      </trkpt>
      <trkpt lat="45.50382" lon="6.66191">
        <ele>2269.81</ele>
        <time>2015-12-13T07:33:53Z</time>
      </trkpt>
      <trkpt lat="45.50382" lon="6.66193">
        <ele>2270.29</ele>
        <time>2015-12-13T07:34:08Z</time>
      </trkpt>
      <trkpt lat="45.50379" lon="6.66184">
        <ele>2271.25</ele>
        <time>2015-12-13T07:34:21Z</time>
      </trkpt>
      <trkpt lat="45.5038" lon="6.66175">
        <ele>2273.66</ele>
        <time>2015-12-13T07:34:32Z</time>
      </trkpt>
      <trkpt lat="45.50384" lon="6.66168">
        <ele>2275.1</ele>
        <time>2015-12-13T07:34:43Z</time>
      </trkpt>
      <trkpt lat="45.50387" lon="6.66164">
        <ele>2277.5</ele>
        <time>2015-12-13T07:34:50Z</time>
      </trkpt>
      <trkpt lat="45.50387" lon="6.66154">
        <ele>2280.38</ele>
        <time>2015-12-13T07:35:04Z</time>
      </trkpt>
      <trkpt lat="45.50381" lon="6.66145">
        <ele>2282.79</ele>
        <time>2015-12-13T07:35:17Z</time>
      </trkpt>
      <trkpt lat="45.50385" lon="6.66139">
        <ele>2285.19</ele>
        <time>2015-12-13T07:35:27Z</time>
      </trkpt>
      <trkpt lat="45.50386" lon="6.66131">
        <ele>2288.08</ele>
        <time>2015-12-13T07:35:39Z</time>
      </trkpt>
      <trkpt lat="45.50381" lon="6.66122">
        <ele>2291.44</ele>
        <time>2015-12-13T07:35:54Z</time>
      </trkpt>
      <trkpt lat="45.50373" lon="6.66113">
        <ele>2294.8</ele>
        <time>2015-12-13T07:36:07Z</time>
      </trkpt>
      <trkpt lat="45.50365" lon="6.66103">
        <ele>2296.25</ele>
        <time>2015-12-13T07:36:21Z</time>
      </trkpt>
      <trkpt lat="45.50363" lon="6.66102">
        <ele>2296.25</ele>
        <time>2015-12-13T07:36:24Z</time>
      </trkpt>
      <trkpt lat="45.50349" lon="6.661">
        <ele>2298.65</ele>
        <time>2015-12-13T07:36:40Z</time>
      </trkpt>
      <trkpt lat="45.50337" lon="6.661">
        <ele>2301.05</ele>
        <time>2015-12-13T07:36:55Z</time>
      </trkpt>
      <trkpt lat="45.50323" lon="6.66101">
        <ele>2302.98</ele>
        <time>2015-12-13T07:37:12Z</time>
      </trkpt>
      <trkpt lat="45.50309" lon="6.66104">
        <ele>2304.9</ele>
        <time>2015-12-13T07:37:28Z</time>
      </trkpt>
      <trkpt lat="45.50293" lon="6.66108">
        <ele>2306.82</ele>
        <time>2015-12-13T07:37:46Z</time>
      </trkpt>
      <trkpt lat="45.50282" lon="6.66111">
        <ele>2308.26</ele>
        <time>2015-12-13T07:37:58Z</time>
      </trkpt>
      <trkpt lat="45.50269" lon="6.66116">
        <ele>2310.19</ele>
        <time>2015-12-13T07:38:13Z</time>
      </trkpt>
      <trkpt lat="45.50255" lon="6.66121">
        <ele>2311.63</ele>
        <time>2015-12-13T07:38:29Z</time>
      </trkpt>
      <trkpt lat="45.50242" lon="6.66123">
        <ele>2313.55</ele>
        <time>2015-12-13T07:38:43Z</time>
      </trkpt>
      <trkpt lat="45.50228" lon="6.66123">
        <ele>2314.99</ele>
        <time>2015-12-13T07:38:59Z</time>
      </trkpt>
      <trkpt lat="45.50215" lon="6.66122">
        <ele>2317.4</ele>
        <time>2015-12-13T07:39:13Z</time>
      </trkpt>
      <trkpt lat="45.502" lon="6.66123">
        <ele>2318.84</ele>
        <time>2015-12-13T07:39:29Z</time>
      </trkpt>
      <trkpt lat="45.50196" lon="6.66124">
        <ele>2319.32</ele>
        <time>2015-12-13T07:39:35Z</time>
      </trkpt>
      <trkpt lat="45.50178" lon="6.6613">
        <ele>2320.28</ele>
        <time>2015-12-13T07:39:52Z</time>
      </trkpt>
      <trkpt lat="45.50162" lon="6.66137">
        <ele>2321.72</ele>
        <time>2015-12-13T07:40:08Z</time>
      </trkpt>
      <trkpt lat="45.50158" lon="6.66136">
        <ele>2323.64</ele>
        <time>2015-12-13T07:40:19Z</time>
      </trkpt>
      <trkpt lat="45.50154" lon="6.66129">
        <ele>2326.05</ele>
        <time>2015-12-13T07:40:34Z</time>
      </trkpt>
      <trkpt lat="45.50153" lon="6.66125">
        <ele>2327.49</ele>
        <time>2015-12-13T07:40:47Z</time>
      </trkpt>
      <trkpt lat="45.50151" lon="6.66123">
        <ele>2328.45</ele>
        <time>2015-12-13T07:41:00Z</time>
      </trkpt>
      <trkpt lat="45.50148" lon="6.66119">
        <ele>2329.89</ele>
        <time>2015-12-13T07:41:18Z</time>
      </trkpt>
      <trkpt lat="45.50147" lon="6.66114">
        <ele>2330.85</ele>
        <time>2015-12-13T07:41:23Z</time>
      </trkpt>
      <trkpt lat="45.5014" lon="6.66107">
        <ele>2333.74</ele>
        <time>2015-12-13T07:41:36Z</time>
      </trkpt>
      <trkpt lat="45.50132" lon="6.66101">
        <ele>2336.62</ele>
        <time>2015-12-13T07:41:50Z</time>
      </trkpt>
      <trkpt lat="45.50123" lon="6.661">
        <ele>2339.51</ele>
        <time>2015-12-13T07:42:07Z</time>
      </trkpt>
      <trkpt lat="45.50115" lon="6.661">
        <ele>2341.43</ele>
        <time>2015-12-13T07:42:18Z</time>
      </trkpt>
      <trkpt lat="45.50107" lon="6.66095">
        <ele>2344.31</ele>
        <time>2015-12-13T07:42:32Z</time>
      </trkpt>
      <trkpt lat="45.50101" lon="6.66087">
        <ele>2347.2</ele>
        <time>2015-12-13T07:42:47Z</time>
      </trkpt>
      <trkpt lat="45.50093" lon="6.66076">
        <ele>2350.08</ele>
        <time>2015-12-13T07:43:04Z</time>
      </trkpt>
      <trkpt lat="45.50088" lon="6.66069">
        <ele>2352</ele>
        <time>2015-12-13T07:43:17Z</time>
      </trkpt>
      <trkpt lat="45.50084" lon="6.66065">
        <ele>2353.93</ele>
        <time>2015-12-13T07:43:29Z</time>
      </trkpt>
      <trkpt lat="45.50076" lon="6.66059">
        <ele>2357.29</ele>
        <time>2015-12-13T07:43:43Z</time>
      </trkpt>
      <trkpt lat="45.5007" lon="6.66048">
        <ele>2360.17</ele>
        <time>2015-12-13T07:43:59Z</time>
      </trkpt>
      <trkpt lat="45.50066" lon="6.66042">
        <ele>2362.1</ele>
        <time>2015-12-13T07:44:13Z</time>
      </trkpt>
      <trkpt lat="45.5006" lon="6.66032">
        <ele>2364.98</ele>
        <time>2015-12-13T07:44:28Z</time>
      </trkpt>
      <trkpt lat="45.50057" lon="6.66031">
        <ele>2365.94</ele>
        <time>2015-12-13T07:44:50Z</time>
      </trkpt>
      <trkpt lat="45.50052" lon="6.6602">
        <ele>2367.86</ele>
        <time>2015-12-13T07:45:09Z</time>
      </trkpt>
      <trkpt lat="45.50044" lon="6.66012">
        <ele>2369.31</ele>
        <time>2015-12-13T07:45:23Z</time>
      </trkpt>
      <trkpt lat="45.50038" lon="6.66009">
        <ele>2370.75</ele>
        <time>2015-12-13T07:45:37Z</time>
      </trkpt>
      <trkpt lat="45.50032" lon="6.66003">
        <ele>2372.19</ele>
        <time>2015-12-13T07:45:52Z</time>
      </trkpt>
      <trkpt lat="45.5003" lon="6.66004">
        <ele>2372.67</ele>
        <time>2015-12-13T07:46:01Z</time>
      </trkpt>
      <trkpt lat="45.50023" lon="6.66007">
        <ele>2373.63</ele>
        <time>2015-12-13T07:46:11Z</time>
      </trkpt>
      <trkpt lat="45.50011" lon="6.66003">
        <ele>2376.04</ele>
        <time>2015-12-13T07:46:26Z</time>
      </trkpt>
      <trkpt lat="45.5" lon="6.66005">
        <ele>2376.52</ele>
        <time>2015-12-13T07:46:38Z</time>
      </trkpt>
      <trkpt lat="45.49998" lon="6.66007">
        <ele>2376.52</ele>
        <time>2015-12-13T07:46:41Z</time>
      </trkpt>
      <trkpt lat="45.49995" lon="6.66014">
        <ele>2378.44</ele>
        <time>2015-12-13T07:46:47Z</time>
      </trkpt>
      <trkpt lat="45.4999" lon="6.66027">
        <ele>2380.84</ele>
        <time>2015-12-13T07:47:01Z</time>
      </trkpt>
      <trkpt lat="45.49988" lon="6.6603">
        <ele>2381.32</ele>
        <time>2015-12-13T07:47:04Z</time>
      </trkpt>
      <trkpt lat="45.49974" lon="6.66046">
        <ele>2382.76</ele>
        <time>2015-12-13T07:47:21Z</time>
      </trkpt>
      <trkpt lat="45.49961" lon="6.66058">
        <ele>2383.73</ele>
        <time>2015-12-13T07:47:34Z</time>
      </trkpt>
      <trkpt lat="45.49958" lon="6.66064">
        <ele>2384.69</ele>
        <time>2015-12-13T07:47:45Z</time>
      </trkpt>
      <trkpt lat="45.49959" lon="6.66064">
        <ele>2384.69</ele>
        <time>2015-12-13T07:48:16Z</time>
      </trkpt>
      <trkpt lat="45.49953" lon="6.66067">
        <ele>2384.69</ele>
        <time>2015-12-13T07:48:26Z</time>
      </trkpt>
      <trkpt lat="45.49942" lon="6.66076">
        <ele>2385.65</ele>
        <time>2015-12-13T07:48:37Z</time>
      </trkpt>
      <trkpt lat="45.4993" lon="6.66084">
        <ele>2387.09</ele>
        <time>2015-12-13T07:48:52Z</time>
      </trkpt>
      <trkpt lat="45.49929" lon="6.66085">
        <ele>2387.09</ele>
        <time>2015-12-13T07:48:53Z</time>
      </trkpt>
      <trkpt lat="45.4992" lon="6.66091">
        <ele>2388.53</ele>
        <time>2015-12-13T07:49:05Z</time>
      </trkpt>
      <trkpt lat="45.49915" lon="6.66095">
        <ele>2389.01</ele>
        <time>2015-12-13T07:49:10Z</time>
      </trkpt>
      <trkpt lat="45.49911" lon="6.66098">
        <ele>2389.01</ele>
        <time>2015-12-13T07:49:15Z</time>
      </trkpt>
      <trkpt lat="45.49908" lon="6.661">
        <ele>2389.01</ele>
        <time>2015-12-13T07:49:18Z</time>
      </trkpt>
      <trkpt lat="45.49892" lon="6.66114">
        <ele>2389.01</ele>
        <time>2015-12-13T07:49:32Z</time>
      </trkpt>
      <trkpt lat="45.49879" lon="6.66116">
        <ele>2387.57</ele>
        <time>2015-12-13T07:49:42Z</time>
      </trkpt>
      <trkpt lat="45.49861" lon="6.66115">
        <ele>2386.61</ele>
        <time>2015-12-13T07:49:55Z</time>
      </trkpt>
      <trkpt lat="45.49851" lon="6.66117">
        <ele>2386.13</ele>
        <time>2015-12-13T07:50:02Z</time>
      </trkpt>
      <trkpt lat="45.49831" lon="6.66118">
        <ele>2384.69</ele>
        <time>2015-12-13T07:50:16Z</time>
      </trkpt>
      <trkpt lat="45.49813" lon="6.66114">
        <ele>2383.73</ele>
        <time>2015-12-13T07:50:28Z</time>
      </trkpt>
      <trkpt lat="45.49804" lon="6.66113">
        <ele>2382.76</ele>
        <time>2015-12-13T07:50:35Z</time>
      </trkpt>
      <trkpt lat="45.49785" lon="6.66109">
        <ele>2381.8</ele>
        <time>2015-12-13T07:50:49Z</time>
      </trkpt>
      <trkpt lat="45.49767" lon="6.66099">
        <ele>2381.32</ele>
        <time>2015-12-13T07:51:04Z</time>
      </trkpt>
      <trkpt lat="45.49753" lon="6.66086">
        <ele>2380.84</ele>
        <time>2015-12-13T07:51:17Z</time>
      </trkpt>
      <trkpt lat="45.49749" lon="6.66083">
        <ele>2380.84</ele>
        <time>2015-12-13T07:51:21Z</time>
      </trkpt>
      <trkpt lat="45.49742" lon="6.66075">
        <ele>2380.36</ele>
        <time>2015-12-13T07:51:29Z</time>
      </trkpt>
      <trkpt lat="45.49736" lon="6.66071">
        <ele>2381.8</ele>
        <time>2015-12-13T07:51:38Z</time>
      </trkpt>
      <trkpt lat="45.49732" lon="6.66069">
        <ele>2383.25</ele>
        <time>2015-12-13T07:51:52Z</time>
      </trkpt>
      <trkpt lat="45.49726" lon="6.66066">
        <ele>2384.69</ele>
        <time>2015-12-13T07:52:01Z</time>
      </trkpt>
      <trkpt lat="45.49719" lon="6.66057">
        <ele>2388.05</ele>
        <time>2015-12-13T07:52:15Z</time>
      </trkpt>
      <trkpt lat="45.4971" lon="6.66044">
        <ele>2391.42</ele>
        <time>2015-12-13T07:52:31Z</time>
      </trkpt>
      <trkpt lat="45.49704" lon="6.66032">
        <ele>2394.78</ele>
        <time>2015-12-13T07:52:47Z</time>
      </trkpt>
      <trkpt lat="45.49698" lon="6.66025">
        <ele>2396.7</ele>
        <time>2015-12-13T07:52:56Z</time>
      </trkpt>
      <trkpt lat="45.49689" lon="6.6601">
        <ele>2397.18</ele>
        <time>2015-12-13T07:53:10Z</time>
      </trkpt>
      <trkpt lat="45.49676" lon="6.65999">
        <ele>2396.22</ele>
        <time>2015-12-13T07:53:22Z</time>
      </trkpt>
      <trkpt lat="45.49672" lon="6.65996">
        <ele>2397.67</ele>
        <time>2015-12-13T07:53:27Z</time>
      </trkpt>
      <trkpt lat="45.49671" lon="6.65997">
        <ele>2397.67</ele>
        <time>2015-12-13T07:53:40Z</time>
      </trkpt>
      <trkpt lat="45.49671" lon="6.65998">
        <ele>2399.11</ele>
        <time>2015-12-13T07:53:50Z</time>
      </trkpt>
      <trkpt lat="45.49667" lon="6.65994">
        <ele>2398.15</ele>
        <time>2015-12-13T07:54:07Z</time>
      </trkpt>
      <trkpt lat="45.49662" lon="6.65987">
        <ele>2401.03</ele>
        <time>2015-12-13T07:54:18Z</time>
      </trkpt>
      <trkpt lat="45.49656" lon="6.65978">
        <ele>2403.91</ele>
        <time>2015-12-13T07:54:32Z</time>
      </trkpt>
      <trkpt lat="45.49651" lon="6.65968">
        <ele>2406.32</ele>
        <time>2015-12-13T07:54:47Z</time>
      </trkpt>
      <trkpt lat="45.49648" lon="6.65959">
        <ele>2408.24</ele>
        <time>2015-12-13T07:55:02Z</time>
      </trkpt>
      <trkpt lat="45.49648" lon="6.65958">
        <ele>2409.68</ele>
        <time>2015-12-13T07:55:14Z</time>
      </trkpt>
      <trkpt lat="45.49648" lon="6.65957">
        <ele>2409.68</ele>
        <time>2015-12-13T07:55:37Z</time>
      </trkpt>
      <trkpt lat="45.49646" lon="6.65959">
        <ele>2410.64</ele>
        <time>2015-12-13T07:55:57Z</time>
      </trkpt>
      <trkpt lat="45.49645" lon="6.6596">
        <ele>2411.6</ele>
        <time>2015-12-13T07:56:19Z</time>
      </trkpt>
      <trkpt lat="45.49643" lon="6.65964">
        <ele>2412.57</ele>
        <time>2015-12-13T07:56:36Z</time>
      </trkpt>
      <trkpt lat="45.49642" lon="6.65964">
        <ele>2413.05</ele>
        <time>2015-12-13T07:57:04Z</time>
      </trkpt>
      <trkpt lat="45.49643" lon="6.65964">
        <ele>2413.05</ele>
        <time>2015-12-13T07:57:37Z</time>
      </trkpt>
      <trkpt lat="45.49641" lon="6.65966">
        <ele>2414.49</ele>
        <time>2015-12-13T07:58:04Z</time>
      </trkpt>
      <trkpt lat="45.4964" lon="6.65969">
        <ele>2414.97</ele>
        <time>2015-12-13T07:58:20Z</time>
      </trkpt>
      <trkpt lat="45.49641" lon="6.6597">
        <ele>2415.93</ele>
        <time>2015-12-13T07:58:47Z</time>
      </trkpt>
      <trkpt lat="45.49638" lon="6.65976">
        <ele>2416.41</ele>
        <time>2015-12-13T07:59:01Z</time>
      </trkpt>
      <trkpt lat="45.49638" lon="6.65977">
        <ele>2416.89</ele>
        <time>2015-12-13T07:59:19Z</time>
      </trkpt>
      <trkpt lat="45.49637" lon="6.65976">
        <ele>2417.37</ele>
        <time>2015-12-13T07:59:32Z</time>
      </trkpt>
      <trkpt lat="45.49634" lon="6.65974">
        <ele>2418.81</ele>
        <time>2015-12-13T07:59:53Z</time>
      </trkpt>
      <trkpt lat="45.49634" lon="6.65975">
        <ele>2418.81</ele>
        <time>2015-12-13T07:59:54Z</time>
      </trkpt>
      <trkpt lat="45.49632" lon="6.65978">
        <ele>2420.26</ele>
        <time>2015-12-13T08:00:04Z</time>
      </trkpt>
      <trkpt lat="45.49631" lon="6.65977">
        <ele>2420.74</ele>
        <time>2015-12-13T08:00:22Z</time>
      </trkpt>
      <trkpt lat="45.49632" lon="6.65977">
        <ele>2420.74</ele>
        <time>2015-12-13T08:00:50Z</time>
      </trkpt>
      <trkpt lat="45.49631" lon="6.65977">
        <ele>2420.74</ele>
        <time>2015-12-13T08:01:10Z</time>
      </trkpt>
      <trkpt lat="45.49631" lon="6.65976">
        <ele>2421.22</ele>
        <time>2015-12-13T08:01:31Z</time>
      </trkpt>
      <trkpt lat="45.49632" lon="6.65977">
        <ele>2421.22</ele>
        <time>2015-12-13T08:02:11Z</time>
      </trkpt>
      <trkpt lat="45.49632" lon="6.65977">
        <ele>2420.74</ele>
        <time>2015-12-13T08:02:27Z</time>
      </trkpt>
      <trkpt lat="45.49631" lon="6.65978">
        <ele>2420.74</ele>
        <time>2015-12-13T08:02:47Z</time>
      </trkpt>
      <trkpt lat="45.49631" lon="6.65977">
        <ele>2423.14</ele>
        <time>2015-12-13T08:02:49Z</time>
      </trkpt>
      <trkpt lat="45.49632" lon="6.65976">
        <ele>2421.7</ele>
        <time>2015-12-13T08:02:51Z</time>
      </trkpt>
      <trkpt lat="45.49629" lon="6.65977">
        <ele>2420.74</ele>
        <time>2015-12-13T08:03:07Z</time>
      </trkpt>
      <trkpt lat="45.49631" lon="6.65977">
        <ele>2421.22</ele>
        <time>2015-12-13T08:03:37Z</time>
      </trkpt>
      <trkpt lat="45.49631" lon="6.65976">
        <ele>2421.22</ele>
        <time>2015-12-13T08:04:09Z</time>
      </trkpt>
      <trkpt lat="45.49631" lon="6.65977">
        <ele>2421.22</ele>
        <time>2015-12-13T08:04:28Z</time>
      </trkpt>
      <trkpt lat="45.4963" lon="6.65977">
        <ele>2421.7</ele>
        <time>2015-12-13T08:04:47Z</time>
      </trkpt>
      <trkpt lat="45.49632" lon="6.65976">
        <ele>2421.22</ele>
        <time>2015-12-13T08:05:02Z</time>
      </trkpt>
      <trkpt lat="45.4963" lon="6.65976">
        <ele>2421.22</ele>
        <time>2015-12-13T08:05:25Z</time>
      </trkpt>
      <trkpt lat="45.4963" lon="6.65975">
        <ele>2421.22</ele>
        <time>2015-12-13T08:05:44Z</time>
      </trkpt>
      <trkpt lat="45.4963" lon="6.65977">
        <ele>2420.74</ele>
        <time>2015-12-13T08:06:12Z</time>
      </trkpt>
      <trkpt lat="45.4963" lon="6.65978">
        <ele>2422.18</ele>
        <time>2015-12-13T08:06:16Z</time>
      </trkpt>
      <trkpt lat="45.49631" lon="6.65978">
        <ele>2422.18</ele>
        <time>2015-12-13T08:06:30Z</time>
      </trkpt>
      <trkpt lat="45.49632" lon="6.65978">
        <ele>2422.18</ele>
        <time>2015-12-13T08:06:56Z</time>
      </trkpt>
      <trkpt lat="45.49631" lon="6.65976">
        <ele>2422.18</ele>
        <time>2015-12-13T08:07:19Z</time>
      </trkpt>
      <trkpt lat="45.49633" lon="6.65977">
        <ele>2422.18</ele>
        <time>2015-12-13T08:07:44Z</time>
      </trkpt>
      <trkpt lat="45.49631" lon="6.65976">
        <ele>2422.18</ele>
        <time>2015-12-13T08:08:03Z</time>
      </trkpt>
      <trkpt lat="45.49631" lon="6.65976">
        <ele>2422.66</ele>
        <time>2015-12-13T08:08:37Z</time>
      </trkpt>
      <trkpt lat="45.4963" lon="6.65977">
        <ele>2422.66</ele>
        <time>2015-12-13T08:08:57Z</time>
      </trkpt>
      <trkpt lat="45.49631" lon="6.65979">
        <ele>2422.66</ele>
        <time>2015-12-13T08:09:17Z</time>
      </trkpt>
      <trkpt lat="45.49629" lon="6.65979">
        <ele>2421.7</ele>
        <time>2015-12-13T08:09:41Z</time>
      </trkpt>
      <trkpt lat="45.49633" lon="6.65979">
        <ele>2422.66</ele>
        <time>2015-12-13T08:10:01Z</time>
      </trkpt>
      <trkpt lat="45.49631" lon="6.65979">
        <ele>2422.66</ele>
        <time>2015-12-13T08:10:24Z</time>
      </trkpt>
      <trkpt lat="45.49631" lon="6.65977">
        <ele>2418.33</ele>
        <time>2015-12-13T08:10:40Z</time>
      </trkpt>
      <trkpt lat="45.49631" lon="6.65977">
        <ele>2420.26</ele>
        <time>2015-12-13T08:10:41Z</time>
      </trkpt>
      <trkpt lat="45.49631" lon="6.65977">
        <ele>2414.97</ele>
        <time>2015-12-13T08:10:42Z</time>
      </trkpt>
      <trkpt lat="45.49631" lon="6.65977">
        <ele>2422.66</ele>
        <time>2015-12-13T08:10:43Z</time>
      </trkpt>
      <trkpt lat="45.49631" lon="6.65979">
        <ele>2418.81</ele>
        <time>2015-12-13T08:10:49Z</time>
      </trkpt>
      <trkpt lat="45.49631" lon="6.65981">
        <ele>2431.79</ele>
        <time>2015-12-13T08:10:50Z</time>
      </trkpt>
      <trkpt lat="45.49631" lon="6.65982">
        <ele>2416.41</ele>
        <time>2015-12-13T08:10:51Z</time>
      </trkpt>
      <trkpt lat="45.49631" lon="6.65982">
        <ele>2426.5</ele>
        <time>2015-12-13T08:10:52Z</time>
      </trkpt>
      <trkpt lat="45.49631" lon="6.65982">
        <ele>2422.18</ele>
        <time>2015-12-13T08:10:53Z</time>
      </trkpt>
      <trkpt lat="45.49631" lon="6.65982">
        <ele>2418.81</ele>
        <time>2015-12-13T08:10:54Z</time>
      </trkpt>
      <trkpt lat="45.49631" lon="6.65981">
        <ele>2426.5</ele>
        <time>2015-12-13T08:10:55Z</time>
      </trkpt>
      <trkpt lat="45.49631" lon="6.6598">
        <ele>2417.85</ele>
        <time>2015-12-13T08:10:56Z</time>
      </trkpt>
      <trkpt lat="45.49631" lon="6.6598">
        <ele>2435.16</ele>
        <time>2015-12-13T08:10:58Z</time>
      </trkpt>
      <trkpt lat="45.4963" lon="6.6598">
        <ele>2423.62</ele>
        <time>2015-12-13T08:10:59Z</time>
      </trkpt>
      <trkpt lat="45.4963" lon="6.6598">
        <ele>2415.93</ele>
        <time>2015-12-13T08:11:03Z</time>
      </trkpt>
      <trkpt lat="45.4963" lon="6.65979">
        <ele>2426.5</ele>
        <time>2015-12-13T08:11:04Z</time>
      </trkpt>
      <trkpt lat="45.49632" lon="6.65979">
        <ele>2430.35</ele>
        <time>2015-12-13T08:11:05Z</time>
      </trkpt>
      <trkpt lat="45.49632" lon="6.65979">
        <ele>2423.62</ele>
        <time>2015-12-13T08:11:06Z</time>
      </trkpt>
      <trkpt lat="45.49632" lon="6.65979">
        <ele>2423.62</ele>
        <time>2015-12-13T08:11:07Z</time>
      </trkpt>
      <trkpt lat="45.49634" lon="6.65979">
        <ele>2420.26</ele>
        <time>2015-12-13T08:11:13Z</time>
      </trkpt>
      <trkpt lat="45.49633" lon="6.65978">
        <ele>2425.54</ele>
        <time>2015-12-13T08:11:18Z</time>
      </trkpt>
      <trkpt lat="45.49634" lon="6.65978">
        <ele>2423.14</ele>
        <time>2015-12-13T08:11:21Z</time>
      </trkpt>
      <trkpt lat="45.49633" lon="6.65977">
        <ele>2421.7</ele>
        <time>2015-12-13T08:11:23Z</time>
      </trkpt>
      <trkpt lat="45.49633" lon="6.65978">
        <ele>2423.14</ele>
        <time>2015-12-13T08:11:43Z</time>
      </trkpt>
      <trkpt lat="45.49629" lon="6.65975">
        <ele>2423.14</ele>
        <time>2015-12-13T08:12:02Z</time>
      </trkpt>
      <trkpt lat="45.49627" lon="6.65971">
        <ele>2422.66</ele>
        <time>2015-12-13T08:12:03Z</time>
      </trkpt>
      <trkpt lat="45.49623" lon="6.65952">
        <ele>2419.78</ele>
        <time>2015-12-13T08:12:07Z</time>
      </trkpt>
      <trkpt lat="45.49624" lon="6.65949">
        <ele>2419.78</ele>
        <time>2015-12-13T08:12:12Z</time>
      </trkpt>
      <trkpt lat="45.49623" lon="6.6594">
        <ele>2418.33</ele>
        <time>2015-12-13T08:12:18Z</time>
      </trkpt>
      <trkpt lat="45.49624" lon="6.65936">
        <ele>2417.37</ele>
        <time>2015-12-13T08:12:30Z</time>
      </trkpt>
      <trkpt lat="45.49623" lon="6.65936">
        <ele>2416.89</ele>
        <time>2015-12-13T08:12:31Z</time>
      </trkpt>
      <trkpt lat="45.49612" lon="6.65943">
        <ele>2414.49</ele>
        <time>2015-12-13T08:12:38Z</time>
      </trkpt>
      <trkpt lat="45.49606" lon="6.65954">
        <ele>2412.09</ele>
        <time>2015-12-13T08:12:48Z</time>
      </trkpt>
      <trkpt lat="45.49603" lon="6.65957">
        <ele>2410.64</ele>
        <time>2015-12-13T08:12:54Z</time>
      </trkpt>
      <trkpt lat="45.49598" lon="6.65958">
        <ele>2409.2</ele>
        <time>2015-12-13T08:12:57Z</time>
      </trkpt>
      <trkpt lat="45.49581" lon="6.65974">
        <ele>2405.36</ele>
        <time>2015-12-13T08:13:04Z</time>
      </trkpt>
      <trkpt lat="45.49566" lon="6.65986">
        <ele>2403.91</ele>
        <time>2015-12-13T08:13:12Z</time>
      </trkpt>
      <trkpt lat="45.49557" lon="6.65993">
        <ele>2401.99</ele>
        <time>2015-12-13T08:13:14Z</time>
      </trkpt>
      <trkpt lat="45.49544" lon="6.65996">
        <ele>2401.03</ele>
        <time>2015-12-13T08:13:19Z</time>
      </trkpt>
      <trkpt lat="45.49518" lon="6.65973">
        <ele>2397.67</ele>
        <time>2015-12-13T08:13:35Z</time>
      </trkpt>
      <trkpt lat="45.49506" lon="6.65944">
        <ele>2395.26</ele>
        <time>2015-12-13T08:13:46Z</time>
      </trkpt>
      <trkpt lat="45.49503" lon="6.65935">
        <ele>2394.78</ele>
        <time>2015-12-13T08:13:51Z</time>
      </trkpt>
      <trkpt lat="45.49502" lon="6.65923">
        <ele>2392.38</ele>
        <time>2015-12-13T08:13:55Z</time>
      </trkpt>
      <trkpt lat="45.49503" lon="6.65922">
        <ele>2390.94</ele>
        <time>2015-12-13T08:13:56Z</time>
      </trkpt>
      <trkpt lat="45.49517" lon="6.65926">
        <ele>2389.01</ele>
        <time>2015-12-13T08:14:01Z</time>
      </trkpt>
      <trkpt lat="45.49538" lon="6.65924">
        <ele>2387.09</ele>
        <time>2015-12-13T08:14:11Z</time>
      </trkpt>
      <trkpt lat="45.49539" lon="6.65921">
        <ele>2387.09</ele>
        <time>2015-12-13T08:14:14Z</time>
      </trkpt>
      <trkpt lat="45.49536" lon="6.65906">
        <ele>2385.65</ele>
        <time>2015-12-13T08:14:21Z</time>
      </trkpt>
      <trkpt lat="45.49539" lon="6.65895">
        <ele>2384.21</ele>
        <time>2015-12-13T08:14:25Z</time>
      </trkpt>
      <trkpt lat="45.49537" lon="6.65889">
        <ele>2382.76</ele>
        <time>2015-12-13T08:14:27Z</time>
      </trkpt>
      <trkpt lat="45.4954" lon="6.65884">
        <ele>2380.84</ele>
        <time>2015-12-13T08:14:30Z</time>
      </trkpt>
      <trkpt lat="45.49544" lon="6.65882">
        <ele>2380.36</ele>
        <time>2015-12-13T08:14:34Z</time>
      </trkpt>
      <trkpt lat="45.49539" lon="6.65874">
        <ele>2377.96</ele>
        <time>2015-12-13T08:14:39Z</time>
      </trkpt>
      <trkpt lat="45.49536" lon="6.65865">
        <ele>2375.55</ele>
        <time>2015-12-13T08:14:41Z</time>
      </trkpt>
      <trkpt lat="45.49534" lon="6.6586">
        <ele>2375.55</ele>
        <time>2015-12-13T08:14:42Z</time>
      </trkpt>
      <trkpt lat="45.49533" lon="6.65855">
        <ele>2372.67</ele>
        <time>2015-12-13T08:14:43Z</time>
      </trkpt>
      <trkpt lat="45.49531" lon="6.65851">
        <ele>2375.07</ele>
        <time>2015-12-13T08:14:44Z</time>
      </trkpt>
      <trkpt lat="45.49529" lon="6.65847">
        <ele>2373.15</ele>
        <time>2015-12-13T08:14:45Z</time>
      </trkpt>
      <trkpt lat="45.4953" lon="6.65844">
        <ele>2372.19</ele>
        <time>2015-12-13T08:14:47Z</time>
      </trkpt>
      <trkpt lat="45.49529" lon="6.65842">
        <ele>2371.71</ele>
        <time>2015-12-13T08:14:50Z</time>
      </trkpt>
      <trkpt lat="45.49526" lon="6.6584">
        <ele>2371.71</ele>
        <time>2015-12-13T08:14:53Z</time>
      </trkpt>
      <trkpt lat="45.49523" lon="6.65837">
        <ele>2369.79</ele>
        <time>2015-12-13T08:14:54Z</time>
      </trkpt>
      <trkpt lat="45.49522" lon="6.65833">
        <ele>2370.27</ele>
        <time>2015-12-13T08:14:55Z</time>
      </trkpt>
      <trkpt lat="45.49523" lon="6.6583">
        <ele>2368.83</ele>
        <time>2015-12-13T08:14:59Z</time>
      </trkpt>
      <trkpt lat="45.49521" lon="6.65828">
        <ele>2368.35</ele>
        <time>2015-12-13T08:15:01Z</time>
      </trkpt>
      <trkpt lat="45.4952" lon="6.65828">
        <ele>2367.86</ele>
        <time>2015-12-13T08:15:02Z</time>
      </trkpt>
      <trkpt lat="45.49517" lon="6.65828">
        <ele>2367.86</ele>
        <time>2015-12-13T08:15:03Z</time>
      </trkpt>
      <trkpt lat="45.49515" lon="6.65828">
        <ele>2367.38</ele>
        <time>2015-12-13T08:15:04Z</time>
      </trkpt>
      <trkpt lat="45.49514" lon="6.65825">
        <ele>2367.38</ele>
        <time>2015-12-13T08:15:07Z</time>
      </trkpt>
      <trkpt lat="45.49515" lon="6.65819">
        <ele>2366.9</ele>
        <time>2015-12-13T08:15:09Z</time>
      </trkpt>
      <trkpt lat="45.49514" lon="6.65817">
        <ele>2365.94</ele>
        <time>2015-12-13T08:15:10Z</time>
      </trkpt>
      <trkpt lat="45.49513" lon="6.65814">
        <ele>2364.02</ele>
        <time>2015-12-13T08:15:13Z</time>
      </trkpt>
      <trkpt lat="45.49514" lon="6.65811">
        <ele>2364.02</ele>
        <time>2015-12-13T08:15:14Z</time>
      </trkpt>
      <trkpt lat="45.49516" lon="6.65803">
        <ele>2362.58</ele>
        <time>2015-12-13T08:15:16Z</time>
      </trkpt>
      <trkpt lat="45.49516" lon="6.65798">
        <ele>2362.58</ele>
        <time>2015-12-13T08:15:17Z</time>
      </trkpt>
      <trkpt lat="45.49515" lon="6.65794">
        <ele>2362.58</ele>
        <time>2015-12-13T08:15:18Z</time>
      </trkpt>
      <trkpt lat="45.4951" lon="6.65779">
        <ele>2362.58</ele>
        <time>2015-12-13T08:15:27Z</time>
      </trkpt>
      <trkpt lat="45.49505" lon="6.65766">
        <ele>2359.69</ele>
        <time>2015-12-13T08:15:33Z</time>
      </trkpt>
      <trkpt lat="45.49506" lon="6.65764">
        <ele>2358.73</ele>
        <time>2015-12-13T08:15:35Z</time>
      </trkpt>
      <trkpt lat="45.49506" lon="6.65763">
        <ele>2358.73</ele>
        <time>2015-12-13T08:15:38Z</time>
      </trkpt>
      <trkpt lat="45.49505" lon="6.6576">
        <ele>2358.73</ele>
        <time>2015-12-13T08:15:40Z</time>
      </trkpt>
      <trkpt lat="45.49502" lon="6.65756">
        <ele>2357.77</ele>
        <time>2015-12-13T08:15:41Z</time>
      </trkpt>
      <trkpt lat="45.49504" lon="6.6575">
        <ele>2356.81</ele>
        <time>2015-12-13T08:15:43Z</time>
      </trkpt>
      <trkpt lat="45.49506" lon="6.65747">
        <ele>2354.89</ele>
        <time>2015-12-13T08:15:44Z</time>
      </trkpt>
      <trkpt lat="45.49504" lon="6.65742">
        <ele>2354.89</ele>
        <time>2015-12-13T08:15:46Z</time>
      </trkpt>
      <trkpt lat="45.49502" lon="6.65739">
        <ele>2354.41</ele>
        <time>2015-12-13T08:15:47Z</time>
      </trkpt>
      <trkpt lat="45.49502" lon="6.65737">
        <ele>2353.93</ele>
        <time>2015-12-13T08:15:57Z</time>
      </trkpt>
      <trkpt lat="45.49501" lon="6.65734">
        <ele>2353.44</ele>
        <time>2015-12-13T08:16:12Z</time>
      </trkpt>
      <trkpt lat="45.49503" lon="6.65732">
        <ele>2351.52</ele>
        <time>2015-12-13T08:16:14Z</time>
      </trkpt>
      <trkpt lat="45.49504" lon="6.65733">
        <ele>2352.96</ele>
        <time>2015-12-13T08:16:17Z</time>
      </trkpt>
      <trkpt lat="45.49505" lon="6.65732">
        <ele>2352.96</ele>
        <time>2015-12-13T08:16:18Z</time>
      </trkpt>
      <trkpt lat="45.49506" lon="6.65733">
        <ele>2351.52</ele>
        <time>2015-12-13T08:16:20Z</time>
      </trkpt>
      <trkpt lat="45.49507" lon="6.65733">
        <ele>2351.04</ele>
        <time>2015-12-13T08:16:21Z</time>
      </trkpt>
      <trkpt lat="45.49509" lon="6.6573">
        <ele>2352.48</ele>
        <time>2015-12-13T08:16:25Z</time>
      </trkpt>
      <trkpt lat="45.49515" lon="6.65723">
        <ele>2349.12</ele>
        <time>2015-12-13T08:16:33Z</time>
      </trkpt>
      <trkpt lat="45.49518" lon="6.65721">
        <ele>2346.23</ele>
        <time>2015-12-13T08:16:35Z</time>
      </trkpt>
      <trkpt lat="45.49521" lon="6.65721">
        <ele>2348.64</ele>
        <time>2015-12-13T08:16:36Z</time>
      </trkpt>
      <trkpt lat="45.49522" lon="6.65721">
        <ele>2346.72</ele>
        <time>2015-12-13T08:16:37Z</time>
      </trkpt>
      <trkpt lat="45.49524" lon="6.65722">
        <ele>2346.23</ele>
        <time>2015-12-13T08:16:38Z</time>
      </trkpt>
      <trkpt lat="45.49525" lon="6.65722">
        <ele>2345.75</ele>
        <time>2015-12-13T08:16:39Z</time>
      </trkpt>
      <trkpt lat="45.49527" lon="6.65722">
        <ele>2345.75</ele>
        <time>2015-12-13T08:16:40Z</time>
      </trkpt>
      <trkpt lat="45.49529" lon="6.65722">
        <ele>2343.35</ele>
        <time>2015-12-13T08:16:41Z</time>
      </trkpt>
      <trkpt lat="45.49532" lon="6.65722">
        <ele>2343.83</ele>
        <time>2015-12-13T08:16:42Z</time>
      </trkpt>
      <trkpt lat="45.49534" lon="6.65723">
        <ele>2343.35</ele>
        <time>2015-12-13T08:16:43Z</time>
      </trkpt>
      <trkpt lat="45.49536" lon="6.65723">
        <ele>2342.39</ele>
        <time>2015-12-13T08:16:45Z</time>
      </trkpt>
      <trkpt lat="45.49547" lon="6.65722">
        <ele>2339.02</ele>
        <time>2015-12-13T08:16:50Z</time>
      </trkpt>
      <trkpt lat="45.49547" lon="6.65722">
        <ele>2339.02</ele>
        <time>2015-12-13T08:16:51Z</time>
      </trkpt>
      <trkpt lat="45.49548" lon="6.65721">
        <ele>2339.51</ele>
        <time>2015-12-13T08:16:52Z</time>
      </trkpt>
      <trkpt lat="45.49543" lon="6.65715">
        <ele>2337.1</ele>
        <time>2015-12-13T08:16:57Z</time>
      </trkpt>
      <trkpt lat="45.49543" lon="6.6571">
        <ele>2334.7</ele>
        <time>2015-12-13T08:17:00Z</time>
      </trkpt>
      <trkpt lat="45.49546" lon="6.65705">
        <ele>2332.78</ele>
        <time>2015-12-13T08:17:04Z</time>
      </trkpt>
      <trkpt lat="45.49543" lon="6.65685">
        <ele>2330.37</ele>
        <time>2015-12-13T08:17:09Z</time>
      </trkpt>
      <trkpt lat="45.49541" lon="6.65681">
        <ele>2330.37</ele>
        <time>2015-12-13T08:17:10Z</time>
      </trkpt>
      <trkpt lat="45.49539" lon="6.65671">
        <ele>2327.01</ele>
        <time>2015-12-13T08:17:14Z</time>
      </trkpt>
      <trkpt lat="45.4954" lon="6.65669">
        <ele>2326.53</ele>
        <time>2015-12-13T08:17:19Z</time>
      </trkpt>
      <trkpt lat="45.49533" lon="6.65661">
        <ele>2324.61</ele>
        <time>2015-12-13T08:17:24Z</time>
      </trkpt>
      <trkpt lat="45.4953" lon="6.65651">
        <ele>2323.16</ele>
        <time>2015-12-13T08:17:26Z</time>
      </trkpt>
      <trkpt lat="45.49525" lon="6.65631">
        <ele>2321.72</ele>
        <time>2015-12-13T08:17:29Z</time>
      </trkpt>
      <trkpt lat="45.49521" lon="6.65612">
        <ele>2321.72</ele>
        <time>2015-12-13T08:17:37Z</time>
      </trkpt>
      <trkpt lat="45.49521" lon="6.65611">
        <ele>2321.72</ele>
        <time>2015-12-13T08:17:38Z</time>
      </trkpt>
      <trkpt lat="45.49521" lon="6.65609">
        <ele>2324.12</ele>
        <time>2015-12-13T08:17:40Z</time>
      </trkpt>
      <trkpt lat="45.49521" lon="6.65608">
        <ele>2320.28</ele>
        <time>2015-12-13T08:17:41Z</time>
      </trkpt>
      <trkpt lat="45.49521" lon="6.65606">
        <ele>2324.12</ele>
        <time>2015-12-13T08:17:42Z</time>
      </trkpt>
      <trkpt lat="45.4952" lon="6.65603">
        <ele>2323.16</ele>
        <time>2015-12-13T08:17:44Z</time>
      </trkpt>
      <trkpt lat="45.49509" lon="6.65565">
        <ele>2320.76</ele>
        <time>2015-12-13T08:17:59Z</time>
      </trkpt>
      <trkpt lat="45.49508" lon="6.65557">
        <ele>2320.76</ele>
        <time>2015-12-13T08:18:03Z</time>
      </trkpt>
      <trkpt lat="45.49507" lon="6.65548">
        <ele>2318.36</ele>
        <time>2015-12-13T08:18:09Z</time>
      </trkpt>
      <trkpt lat="45.49507" lon="6.65547">
        <ele>2317.4</ele>
        <time>2015-12-13T08:18:11Z</time>
      </trkpt>
      <trkpt lat="45.49496" lon="6.6552">
        <ele>2314.03</ele>
        <time>2015-12-13T08:18:18Z</time>
      </trkpt>
      <trkpt lat="45.49489" lon="6.655">
        <ele>2312.59</ele>
        <time>2015-12-13T08:18:22Z</time>
      </trkpt>
      <trkpt lat="45.49478" lon="6.65474">
        <ele>2309.22</ele>
        <time>2015-12-13T08:18:27Z</time>
      </trkpt>
      <trkpt lat="45.49476" lon="6.65469">
        <ele>2309.22</ele>
        <time>2015-12-13T08:18:28Z</time>
      </trkpt>
      <trkpt lat="45.4946" lon="6.65426">
        <ele>2305.86</ele>
        <time>2015-12-13T08:18:37Z</time>
      </trkpt>
      <trkpt lat="45.49457" lon="6.65417">
        <ele>2305.38</ele>
        <time>2015-12-13T08:18:39Z</time>
      </trkpt>
      <trkpt lat="45.49449" lon="6.65398">
        <ele>2302.01</ele>
        <time>2015-12-13T08:18:42Z</time>
      </trkpt>
      <trkpt lat="45.49445" lon="6.65393">
        <ele>2302.49</ele>
        <time>2015-12-13T08:18:43Z</time>
      </trkpt>
      <trkpt lat="45.4944" lon="6.65383">
        <ele>2301.05</ele>
        <time>2015-12-13T08:18:45Z</time>
      </trkpt>
      <trkpt lat="45.49438" lon="6.65376">
        <ele>2300.57</ele>
        <time>2015-12-13T08:18:46Z</time>
      </trkpt>
      <trkpt lat="45.49436" lon="6.65371">
        <ele>2299.61</ele>
        <time>2015-12-13T08:18:47Z</time>
      </trkpt>
      <trkpt lat="45.49428" lon="6.65361">
        <ele>2297.69</ele>
        <time>2015-12-13T08:18:50Z</time>
      </trkpt>
      <trkpt lat="45.49426" lon="6.65362">
        <ele>2298.17</ele>
        <time>2015-12-13T08:19:02Z</time>
      </trkpt>
      <trkpt lat="45.49427" lon="6.65362">
        <ele>2298.17</ele>
        <time>2015-12-13T08:19:21Z</time>
      </trkpt>
      <trkpt lat="45.49426" lon="6.65363">
        <ele>2298.17</ele>
        <time>2015-12-13T08:19:45Z</time>
      </trkpt>
      <trkpt lat="45.49425" lon="6.65362">
        <ele>2298.17</ele>
        <time>2015-12-13T08:20:05Z</time>
      </trkpt>
      <trkpt lat="45.49424" lon="6.65361">
        <ele>2296.73</ele>
        <time>2015-12-13T08:20:23Z</time>
      </trkpt>
      <trkpt lat="45.49423" lon="6.65362">
        <ele>2300.09</ele>
        <time>2015-12-13T08:20:24Z</time>
      </trkpt>
      <trkpt lat="45.49425" lon="6.65361">
        <ele>2299.13</ele>
        <time>2015-12-13T08:20:31Z</time>
      </trkpt>
      <trkpt lat="45.49426" lon="6.65361">
        <ele>2298.65</ele>
        <time>2015-12-13T08:20:51Z</time>
      </trkpt>
      <trkpt lat="45.49426" lon="6.65361">
        <ele>2297.21</ele>
        <time>2015-12-13T08:21:00Z</time>
      </trkpt>
      <trkpt lat="45.49426" lon="6.65362">
        <ele>2296.25</ele>
        <time>2015-12-13T08:21:06Z</time>
      </trkpt>
      <trkpt lat="45.49426" lon="6.65361">
        <ele>2301.05</ele>
        <time>2015-12-13T08:21:08Z</time>
      </trkpt>
      <trkpt lat="45.49426" lon="6.65361">
        <ele>2298.65</ele>
        <time>2015-12-13T08:21:09Z</time>
      </trkpt>
      <trkpt lat="45.49425" lon="6.65362">
        <ele>2293.84</ele>
        <time>2015-12-13T08:21:14Z</time>
      </trkpt>
      <trkpt lat="45.49425" lon="6.65362">
        <ele>2299.61</ele>
        <time>2015-12-13T08:21:16Z</time>
      </trkpt>
      <trkpt lat="45.49425" lon="6.65362">
        <ele>2298.17</ele>
        <time>2015-12-13T08:21:17Z</time>
      </trkpt>
      <trkpt lat="45.49425" lon="6.65361">
        <ele>2306.34</ele>
        <time>2015-12-13T08:21:18Z</time>
      </trkpt>
      <trkpt lat="45.49426" lon="6.65361">
        <ele>2298.65</ele>
        <time>2015-12-13T08:21:19Z</time>
      </trkpt>
      <trkpt lat="45.49426" lon="6.65361">
        <ele>2301.53</ele>
        <time>2015-12-13T08:21:22Z</time>
      </trkpt>
      <trkpt lat="45.49427" lon="6.6536">
        <ele>2298.65</ele>
        <time>2015-12-13T08:21:24Z</time>
      </trkpt>
      <trkpt lat="45.49426" lon="6.65359">
        <ele>2298.65</ele>
        <time>2015-12-13T08:21:48Z</time>
      </trkpt>
      <trkpt lat="45.49427" lon="6.6536">
        <ele>2299.61</ele>
        <time>2015-12-13T08:21:55Z</time>
      </trkpt>
      <trkpt lat="45.49427" lon="6.65361">
        <ele>2298.17</ele>
        <time>2015-12-13T08:22:15Z</time>
      </trkpt>
      <trkpt lat="45.49427" lon="6.65362">
        <ele>2299.61</ele>
        <time>2015-12-13T08:22:20Z</time>
      </trkpt>
      <trkpt lat="45.49426" lon="6.65361">
        <ele>2298.17</ele>
        <time>2015-12-13T08:22:24Z</time>
      </trkpt>
      <trkpt lat="45.49425" lon="6.6536">
        <ele>2298.17</ele>
        <time>2015-12-13T08:22:47Z</time>
      </trkpt>
      <trkpt lat="45.49426" lon="6.65359">
        <ele>2299.61</ele>
        <time>2015-12-13T08:22:56Z</time>
      </trkpt>
      <trkpt lat="45.49426" lon="6.65362">
        <ele>2299.13</ele>
        <time>2015-12-13T08:23:19Z</time>
      </trkpt>
      <trkpt lat="45.49427" lon="6.65362">
        <ele>2298.17</ele>
        <time>2015-12-13T08:23:36Z</time>
      </trkpt>
      <trkpt lat="45.49426" lon="6.65359">
        <ele>2294.8</ele>
        <time>2015-12-13T08:23:48Z</time>
      </trkpt>
      <trkpt lat="45.49426" lon="6.65359">
        <ele>2294.8</ele>
        <time>2015-12-13T08:23:49Z</time>
      </trkpt>
      <trkpt lat="45.49426" lon="6.6536">
        <ele>2299.61</ele>
        <time>2015-12-13T08:23:51Z</time>
      </trkpt>
      <trkpt lat="45.49426" lon="6.6536">
        <ele>2299.61</ele>
        <time>2015-12-13T08:23:52Z</time>
      </trkpt>
      <trkpt lat="45.49426" lon="6.6536">
        <ele>2298.17</ele>
        <time>2015-12-13T08:23:54Z</time>
      </trkpt>
      <trkpt lat="45.49426" lon="6.6536">
        <ele>2298.17</ele>
        <time>2015-12-13T08:24:02Z</time>
      </trkpt>
      <trkpt lat="45.49427" lon="6.65359">
        <ele>2299.13</ele>
        <time>2015-12-13T08:24:14Z</time>
      </trkpt>
      <trkpt lat="45.49427" lon="6.65358">
        <ele>2299.61</ele>
        <time>2015-12-13T08:24:36Z</time>
      </trkpt>
      <trkpt lat="45.49424" lon="6.6536">
        <ele>2299.61</ele>
        <time>2015-12-13T08:24:55Z</time>
      </trkpt>
      <trkpt lat="45.49421" lon="6.65361">
        <ele>2299.61</ele>
        <time>2015-12-13T08:25:01Z</time>
      </trkpt>
      <trkpt lat="45.4942" lon="6.65361">
        <ele>2299.61</ele>
        <time>2015-12-13T08:25:03Z</time>
      </trkpt>
      <trkpt lat="45.49416" lon="6.6536">
        <ele>2299.61</ele>
        <time>2015-12-13T08:25:07Z</time>
      </trkpt>
      <trkpt lat="45.49415" lon="6.65359">
        <ele>2299.61</ele>
        <time>2015-12-13T08:25:08Z</time>
      </trkpt>
      <trkpt lat="45.49414" lon="6.65358">
        <ele>2299.61</ele>
        <time>2015-12-13T08:25:09Z</time>
      </trkpt>
      <trkpt lat="45.49413" lon="6.65357">
        <ele>2299.61</ele>
        <time>2015-12-13T08:25:10Z</time>
      </trkpt>
      <trkpt lat="45.49412" lon="6.65356">
        <ele>2299.61</ele>
        <time>2015-12-13T08:25:11Z</time>
      </trkpt>
      <trkpt lat="45.49411" lon="6.65355">
        <ele>2299.61</ele>
        <time>2015-12-13T08:25:12Z</time>
      </trkpt>
      <trkpt lat="45.4941" lon="6.65354">
        <ele>2299.61</ele>
        <time>2015-12-13T08:25:13Z</time>
      </trkpt>
      <trkpt lat="45.49401" lon="6.65341">
        <ele>2300.57</ele>
        <time>2015-12-13T08:25:26Z</time>
      </trkpt>
      <trkpt lat="45.49392" lon="6.65323">
        <ele>2301.53</ele>
        <time>2015-12-13T08:25:40Z</time>
      </trkpt>
      <trkpt lat="45.49387" lon="6.65306">
        <ele>2303.94</ele>
        <time>2015-12-13T08:25:55Z</time>
      </trkpt>
      <trkpt lat="45.49381" lon="6.65285">
        <ele>2304.42</ele>
        <time>2015-12-13T08:26:09Z</time>
      </trkpt>
      <trkpt lat="45.49375" lon="6.65275">
        <ele>2304.9</ele>
        <time>2015-12-13T08:26:16Z</time>
      </trkpt>
      <trkpt lat="45.49374" lon="6.65274">
        <ele>2304.9</ele>
        <time>2015-12-13T08:26:17Z</time>
      </trkpt>
      <trkpt lat="45.49373" lon="6.65273">
        <ele>2304.9</ele>
        <time>2015-12-13T08:26:18Z</time>
      </trkpt>
      <trkpt lat="45.49372" lon="6.65272">
        <ele>2304.9</ele>
        <time>2015-12-13T08:26:19Z</time>
      </trkpt>
      <trkpt lat="45.49371" lon="6.6527">
        <ele>2304.9</ele>
        <time>2015-12-13T08:26:20Z</time>
      </trkpt>
      <trkpt lat="45.4937" lon="6.65269">
        <ele>2304.9</ele>
        <time>2015-12-13T08:26:21Z</time>
      </trkpt>
      <trkpt lat="45.49369" lon="6.65268">
        <ele>2304.9</ele>
        <time>2015-12-13T08:26:22Z</time>
      </trkpt>
      <trkpt lat="45.49368" lon="6.65267">
        <ele>2305.38</ele>
        <time>2015-12-13T08:26:23Z</time>
      </trkpt>
      <trkpt lat="45.49367" lon="6.65265">
        <ele>2304.9</ele>
        <time>2015-12-13T08:26:24Z</time>
      </trkpt>
      <trkpt lat="45.49366" lon="6.65264">
        <ele>2304.9</ele>
        <time>2015-12-13T08:26:25Z</time>
      </trkpt>
      <trkpt lat="45.49357" lon="6.65245">
        <ele>2305.86</ele>
        <time>2015-12-13T08:26:40Z</time>
      </trkpt>
      <trkpt lat="45.49354" lon="6.65232">
        <ele>2307.78</ele>
        <time>2015-12-13T08:26:54Z</time>
      </trkpt>
      <trkpt lat="45.49352" lon="6.65218">
        <ele>2311.15</ele>
        <time>2015-12-13T08:27:08Z</time>
      </trkpt>
      <trkpt lat="45.49344" lon="6.65204">
        <ele>2314.03</ele>
        <time>2015-12-13T08:27:26Z</time>
      </trkpt>
      <trkpt lat="45.49339" lon="6.6519">
        <ele>2316.91</ele>
        <time>2015-12-13T08:27:41Z</time>
      </trkpt>
      <trkpt lat="45.49333" lon="6.65175">
        <ele>2319.8</ele>
        <time>2015-12-13T08:27:56Z</time>
      </trkpt>
      <trkpt lat="45.49328" lon="6.65155">
        <ele>2322.2</ele>
        <time>2015-12-13T08:28:13Z</time>
      </trkpt>
      <trkpt lat="45.49326" lon="6.65137">
        <ele>2325.57</ele>
        <time>2015-12-13T08:28:29Z</time>
      </trkpt>
      <trkpt lat="45.49328" lon="6.6512">
        <ele>2328.45</ele>
        <time>2015-12-13T08:28:45Z</time>
      </trkpt>
      <trkpt lat="45.49331" lon="6.65111">
        <ele>2330.85</ele>
        <time>2015-12-13T08:28:55Z</time>
      </trkpt>
      <trkpt lat="45.49333" lon="6.65097">
        <ele>2334.22</ele>
        <time>2015-12-13T08:29:08Z</time>
      </trkpt>
      <trkpt lat="45.49332" lon="6.65086">
        <ele>2336.62</ele>
        <time>2015-12-13T08:29:18Z</time>
      </trkpt>
      <trkpt lat="45.49332" lon="6.65085">
        <ele>2336.62</ele>
        <time>2015-12-13T08:29:19Z</time>
      </trkpt>
      <trkpt lat="45.49331" lon="6.65084">
        <ele>2337.1</ele>
        <time>2015-12-13T08:29:20Z</time>
      </trkpt>
      <trkpt lat="45.49319" lon="6.65069">
        <ele>2338.54</ele>
        <time>2015-12-13T08:29:35Z</time>
      </trkpt>
      <trkpt lat="45.49319" lon="6.65068">
        <ele>2339.51</ele>
        <time>2015-12-13T08:29:36Z</time>
      </trkpt>
      <trkpt lat="45.49312" lon="6.65057">
        <ele>2342.39</ele>
        <time>2015-12-13T08:29:50Z</time>
      </trkpt>
      <trkpt lat="45.49313" lon="6.6505">
        <ele>2343.83</ele>
        <time>2015-12-13T08:29:56Z</time>
      </trkpt>
      <trkpt lat="45.49313" lon="6.65049">
        <ele>2343.83</ele>
        <time>2015-12-13T08:29:57Z</time>
      </trkpt>
      <trkpt lat="45.49312" lon="6.65042">
        <ele>2343.83</ele>
        <time>2015-12-13T08:30:08Z</time>
      </trkpt>
      <trkpt lat="45.49312" lon="6.65033">
        <ele>2344.79</ele>
        <time>2015-12-13T08:30:16Z</time>
      </trkpt>
      <trkpt lat="45.49314" lon="6.65016">
        <ele>2347.68</ele>
        <time>2015-12-13T08:30:31Z</time>
      </trkpt>
      <trkpt lat="45.49315" lon="6.65">
        <ele>2351.04</ele>
        <time>2015-12-13T08:30:45Z</time>
      </trkpt>
      <trkpt lat="45.49315" lon="6.64986">
        <ele>2354.89</ele>
        <time>2015-12-13T08:31:00Z</time>
      </trkpt>
      <trkpt lat="45.49313" lon="6.64979">
        <ele>2355.85</ele>
        <time>2015-12-13T08:31:07Z</time>
      </trkpt>
      <trkpt lat="45.4931" lon="6.64971">
        <ele>2356.33</ele>
        <time>2015-12-13T08:31:13Z</time>
      </trkpt>
      <trkpt lat="45.49312" lon="6.64952">
        <ele>2358.73</ele>
        <time>2015-12-13T08:31:28Z</time>
      </trkpt>
      <trkpt lat="45.49315" lon="6.64941">
        <ele>2361.14</ele>
        <time>2015-12-13T08:31:41Z</time>
      </trkpt>
      <trkpt lat="45.49317" lon="6.64937">
        <ele>2361.62</ele>
        <time>2015-12-13T08:31:45Z</time>
      </trkpt>
      <trkpt lat="45.49321" lon="6.64926">
        <ele>2363.54</ele>
        <time>2015-12-13T08:31:58Z</time>
      </trkpt>
      <trkpt lat="45.49327" lon="6.64911">
        <ele>2366.42</ele>
        <time>2015-12-13T08:32:13Z</time>
      </trkpt>
      <trkpt lat="45.4933" lon="6.64898">
        <ele>2368.83</ele>
        <time>2015-12-13T08:32:26Z</time>
      </trkpt>
      <trkpt lat="45.49333" lon="6.64884">
        <ele>2372.19</ele>
        <time>2015-12-13T08:32:39Z</time>
      </trkpt>
      <trkpt lat="45.49334" lon="6.64871">
        <ele>2375.55</ele>
        <time>2015-12-13T08:32:52Z</time>
      </trkpt>
      <trkpt lat="45.49333" lon="6.64858">
        <ele>2377.96</ele>
        <time>2015-12-13T08:33:05Z</time>
      </trkpt>
      <trkpt lat="45.49331" lon="6.64841">
        <ele>2381.32</ele>
        <time>2015-12-13T08:33:22Z</time>
      </trkpt>
      <trkpt lat="45.49331" lon="6.64825">
        <ele>2385.17</ele>
        <time>2015-12-13T08:33:38Z</time>
      </trkpt>
      <trkpt lat="45.49331" lon="6.64824">
        <ele>2385.17</ele>
        <time>2015-12-13T08:33:39Z</time>
      </trkpt>
      <trkpt lat="45.49333" lon="6.64807">
        <ele>2387.57</ele>
        <time>2015-12-13T08:33:53Z</time>
      </trkpt>
      <trkpt lat="45.49335" lon="6.64796">
        <ele>2389.97</ele>
        <time>2015-12-13T08:34:05Z</time>
      </trkpt>
      <trkpt lat="45.49335" lon="6.64784">
        <ele>2392.86</ele>
        <time>2015-12-13T08:34:19Z</time>
      </trkpt>
      <trkpt lat="45.49337" lon="6.64769">
        <ele>2396.22</ele>
        <time>2015-12-13T08:34:35Z</time>
      </trkpt>
      <trkpt lat="45.49339" lon="6.64757">
        <ele>2399.11</ele>
        <time>2015-12-13T08:34:49Z</time>
      </trkpt>
      <trkpt lat="45.49335" lon="6.64755">
        <ele>2400.07</ele>
        <time>2015-12-13T08:35:02Z</time>
      </trkpt>
      <trkpt lat="45.49327" lon="6.64754">
        <ele>2401.51</ele>
        <time>2015-12-13T08:35:23Z</time>
      </trkpt>
      <trkpt lat="45.49327" lon="6.64754">
        <ele>2402.95</ele>
        <time>2015-12-13T08:35:33Z</time>
      </trkpt>
      <trkpt lat="45.49335" lon="6.64743">
        <ele>2405.36</ele>
        <time>2015-12-13T08:35:49Z</time>
      </trkpt>
      <trkpt lat="45.49338" lon="6.64736">
        <ele>2406.8</ele>
        <time>2015-12-13T08:36:01Z</time>
      </trkpt>
      <trkpt lat="45.49342" lon="6.64728">
        <ele>2408.24</ele>
        <time>2015-12-13T08:36:11Z</time>
      </trkpt>
      <trkpt lat="45.4935" lon="6.64727">
        <ele>2410.64</ele>
        <time>2015-12-13T08:36:24Z</time>
      </trkpt>
      <trkpt lat="45.49349" lon="6.64723">
        <ele>2411.12</ele>
        <time>2015-12-13T08:36:33Z</time>
      </trkpt>
      <trkpt lat="45.49342" lon="6.64716">
        <ele>2413.53</ele>
        <time>2015-12-13T08:36:46Z</time>
      </trkpt>
      <trkpt lat="45.49339" lon="6.64715">
        <ele>2414.97</ele>
        <time>2015-12-13T08:37:01Z</time>
      </trkpt>
      <trkpt lat="45.49341" lon="6.64715">
        <ele>2414.97</ele>
        <time>2015-12-13T08:37:34Z</time>
      </trkpt>
      <trkpt lat="45.49339" lon="6.64715">
        <ele>2415.45</ele>
        <time>2015-12-13T08:37:51Z</time>
      </trkpt>
      <trkpt lat="45.49343" lon="6.64709">
        <ele>2416.89</ele>
        <time>2015-12-13T08:38:03Z</time>
      </trkpt>
      <trkpt lat="45.4934" lon="6.64699">
        <ele>2419.78</ele>
        <time>2015-12-13T08:38:17Z</time>
      </trkpt>
      <trkpt lat="45.49338" lon="6.64692">
        <ele>2422.66</ele>
        <time>2015-12-13T08:38:29Z</time>
      </trkpt>
      <trkpt lat="45.49335" lon="6.64682">
        <ele>2426.02</ele>
        <time>2015-12-13T08:38:42Z</time>
      </trkpt>
      <trkpt lat="45.49331" lon="6.64668">
        <ele>2427.95</ele>
        <time>2015-12-13T08:38:57Z</time>
      </trkpt>
      <trkpt lat="45.49326" lon="6.64652">
        <ele>2430.83</ele>
        <time>2015-12-13T08:39:13Z</time>
      </trkpt>
      <trkpt lat="45.49319" lon="6.6464">
        <ele>2432.27</ele>
        <time>2015-12-13T08:39:30Z</time>
      </trkpt>
      <trkpt lat="45.4932" lon="6.64634">
        <ele>2432.75</ele>
        <time>2015-12-13T08:39:35Z</time>
      </trkpt>
      <trkpt lat="45.49323" lon="6.64612">
        <ele>2434.68</ele>
        <time>2015-12-13T08:39:52Z</time>
      </trkpt>
      <trkpt lat="45.49325" lon="6.64592">
        <ele>2438.04</ele>
        <time>2015-12-13T08:40:09Z</time>
      </trkpt>
      <trkpt lat="45.49327" lon="6.64567">
        <ele>2440.92</ele>
        <time>2015-12-13T08:40:30Z</time>
      </trkpt>
      <trkpt lat="45.49329" lon="6.64556">
        <ele>2443.33</ele>
        <time>2015-12-13T08:40:42Z</time>
      </trkpt>
      <trkpt lat="45.49332" lon="6.64545">
        <ele>2444.77</ele>
        <time>2015-12-13T08:40:57Z</time>
      </trkpt>
      <trkpt lat="45.49332" lon="6.64535">
        <ele>2445.25</ele>
        <time>2015-12-13T08:41:14Z</time>
      </trkpt>
      <trkpt lat="45.49332" lon="6.6453">
        <ele>2446.69</ele>
        <time>2015-12-13T08:41:28Z</time>
      </trkpt>
      <trkpt lat="45.49332" lon="6.64524">
        <ele>2448.62</ele>
        <time>2015-12-13T08:41:41Z</time>
      </trkpt>
      <trkpt lat="45.49332" lon="6.64515">
        <ele>2450.06</ele>
        <time>2015-12-13T08:41:54Z</time>
      </trkpt>
      <trkpt lat="45.49332" lon="6.64505">
        <ele>2451.02</ele>
        <time>2015-12-13T08:42:08Z</time>
      </trkpt>
      <trkpt lat="45.49333" lon="6.64504">
        <ele>2451.5</ele>
        <time>2015-12-13T08:42:25Z</time>
      </trkpt>
      <trkpt lat="45.4933" lon="6.64505">
        <ele>2452.46</ele>
        <time>2015-12-13T08:42:41Z</time>
      </trkpt>
      <trkpt lat="45.49325" lon="6.64513">
        <ele>2454.86</ele>
        <time>2015-12-13T08:42:56Z</time>
      </trkpt>
      <trkpt lat="45.4932" lon="6.64517">
        <ele>2456.79</ele>
        <time>2015-12-13T08:43:09Z</time>
      </trkpt>
      <trkpt lat="45.49316" lon="6.64518">
        <ele>2457.75</ele>
        <time>2015-12-13T08:43:20Z</time>
      </trkpt>
      <trkpt lat="45.49315" lon="6.64517">
        <ele>2458.71</ele>
        <time>2015-12-13T08:43:31Z</time>
      </trkpt>
      <trkpt lat="45.49308" lon="6.64522">
        <ele>2459.67</ele>
        <time>2015-12-13T08:43:47Z</time>
      </trkpt>
      <trkpt lat="45.49305" lon="6.64522">
        <ele>2460.63</ele>
        <time>2015-12-13T08:43:55Z</time>
      </trkpt>
      <trkpt lat="45.49299" lon="6.64524">
        <ele>2462.07</ele>
        <time>2015-12-13T08:44:12Z</time>
      </trkpt>
      <trkpt lat="45.49298" lon="6.64522">
        <ele>2462.07</ele>
        <time>2015-12-13T08:44:30Z</time>
      </trkpt>
      <trkpt lat="45.49297" lon="6.64521">
        <ele>2462.07</ele>
        <time>2015-12-13T08:44:48Z</time>
      </trkpt>
      <trkpt lat="45.49298" lon="6.64521">
        <ele>2462.07</ele>
        <time>2015-12-13T08:45:11Z</time>
      </trkpt>
      <trkpt lat="45.49301" lon="6.64509">
        <ele>2464.96</ele>
        <time>2015-12-13T08:45:26Z</time>
      </trkpt>
      <trkpt lat="45.49302" lon="6.64502">
        <ele>2465.92</ele>
        <time>2015-12-13T08:45:49Z</time>
      </trkpt>
      <trkpt lat="45.49304" lon="6.64498">
        <ele>2466.88</ele>
        <time>2015-12-13T08:45:53Z</time>
      </trkpt>
      <trkpt lat="45.49309" lon="6.64489">
        <ele>2470.24</ele>
        <time>2015-12-13T08:46:06Z</time>
      </trkpt>
      <trkpt lat="45.49309" lon="6.64486">
        <ele>2470.24</ele>
        <time>2015-12-13T08:46:14Z</time>
      </trkpt>
      <trkpt lat="45.49303" lon="6.64473">
        <ele>2473.61</ele>
        <time>2015-12-13T08:46:29Z</time>
      </trkpt>
      <trkpt lat="45.49304" lon="6.64466">
        <ele>2475.53</ele>
        <time>2015-12-13T08:46:44Z</time>
      </trkpt>
      <trkpt lat="45.49303" lon="6.64467">
        <ele>2475.53</ele>
        <time>2015-12-13T08:47:00Z</time>
      </trkpt>
      <trkpt lat="45.49303" lon="6.64465">
        <ele>2475.53</ele>
        <time>2015-12-13T08:47:25Z</time>
      </trkpt>
      <trkpt lat="45.49305" lon="6.64462">
        <ele>2475.53</ele>
        <time>2015-12-13T08:47:39Z</time>
      </trkpt>
      <trkpt lat="45.49309" lon="6.64455">
        <ele>2475.53</ele>
        <time>2015-12-13T08:47:50Z</time>
      </trkpt>
      <trkpt lat="45.4931" lon="6.64454">
        <ele>2475.53</ele>
        <time>2015-12-13T08:47:52Z</time>
      </trkpt>
      <trkpt lat="45.49318" lon="6.64443">
        <ele>2473.13</ele>
        <time>2015-12-13T08:48:09Z</time>
      </trkpt>
      <trkpt lat="45.4932" lon="6.6444">
        <ele>2472.65</ele>
        <time>2015-12-13T08:48:14Z</time>
      </trkpt>
      <trkpt lat="45.4933" lon="6.64425">
        <ele>2469.76</ele>
        <time>2015-12-13T08:48:28Z</time>
      </trkpt>
      <trkpt lat="45.49333" lon="6.64421">
        <ele>2469.28</ele>
        <time>2015-12-13T08:48:33Z</time>
      </trkpt>
      <trkpt lat="45.49338" lon="6.64417">
        <ele>2468.8</ele>
        <time>2015-12-13T08:48:46Z</time>
      </trkpt>
      <trkpt lat="45.49336" lon="6.64416">
        <ele>2468.8</ele>
        <time>2015-12-13T08:49:09Z</time>
      </trkpt>
      <trkpt lat="45.4934" lon="6.64409">
        <ele>2467.84</ele>
        <time>2015-12-13T08:49:22Z</time>
      </trkpt>
      <trkpt lat="45.49349" lon="6.64396">
        <ele>2466.4</ele>
        <time>2015-12-13T08:49:28Z</time>
      </trkpt>
      <trkpt lat="45.49355" lon="6.64384">
        <ele>2464.48</ele>
        <time>2015-12-13T08:49:41Z</time>
      </trkpt>
      <trkpt lat="45.4936" lon="6.64377">
        <ele>2464</ele>
        <time>2015-12-13T08:49:53Z</time>
      </trkpt>
      <trkpt lat="45.4936" lon="6.64375">
        <ele>2465.44</ele>
        <time>2015-12-13T08:49:55Z</time>
      </trkpt>
      <trkpt lat="45.49365" lon="6.64371">
        <ele>2466.88</ele>
        <time>2015-12-13T08:50:11Z</time>
      </trkpt>
      <trkpt lat="45.4937" lon="6.64365">
        <ele>2468.8</ele>
        <time>2015-12-13T08:50:27Z</time>
      </trkpt>
      <trkpt lat="45.49374" lon="6.6436">
        <ele>2471.21</ele>
        <time>2015-12-13T08:50:39Z</time>
      </trkpt>
      <trkpt lat="45.49379" lon="6.64357">
        <ele>2473.61</ele>
        <time>2015-12-13T08:50:51Z</time>
      </trkpt>
      <trkpt lat="45.49384" lon="6.64355">
        <ele>2475.53</ele>
        <time>2015-12-13T08:51:03Z</time>
      </trkpt>
      <trkpt lat="45.49384" lon="6.64354">
        <ele>2475.53</ele>
        <time>2015-12-13T08:51:20Z</time>
      </trkpt>
      <trkpt lat="45.49386" lon="6.6435">
        <ele>2475.53</ele>
        <time>2015-12-13T08:51:42Z</time>
      </trkpt>
      <trkpt lat="45.49386" lon="6.64349">
        <ele>2475.53</ele>
        <time>2015-12-13T08:51:43Z</time>
      </trkpt>
      <trkpt lat="45.4939" lon="6.64337">
        <ele>2478.42</ele>
        <time>2015-12-13T08:51:58Z</time>
      </trkpt>
      <trkpt lat="45.4939" lon="6.64334">
        <ele>2478.42</ele>
        <time>2015-12-13T08:52:14Z</time>
      </trkpt>
      <trkpt lat="45.4939" lon="6.64336">
        <ele>2478.42</ele>
        <time>2015-12-13T08:52:30Z</time>
      </trkpt>
      <trkpt lat="45.49392" lon="6.64337">
        <ele>2478.42</ele>
        <time>2015-12-13T08:52:53Z</time>
      </trkpt>
      <trkpt lat="45.49393" lon="6.64329">
        <ele>2480.82</ele>
        <time>2015-12-13T08:53:12Z</time>
      </trkpt>
      <trkpt lat="45.49395" lon="6.6432">
        <ele>2482.74</ele>
        <time>2015-12-13T08:53:29Z</time>
      </trkpt>
      <trkpt lat="45.49398" lon="6.64309">
        <ele>2485.63</ele>
        <time>2015-12-13T08:53:49Z</time>
      </trkpt>
      <trkpt lat="45.49399" lon="6.64307">
        <ele>2487.07</ele>
        <time>2015-12-13T08:54:09Z</time>
      </trkpt>
      <trkpt lat="45.49398" lon="6.64305">
        <ele>2487.07</ele>
        <time>2015-12-13T08:54:30Z</time>
      </trkpt>
      <trkpt lat="45.49401" lon="6.64298">
        <ele>2488.99</ele>
        <time>2015-12-13T08:54:48Z</time>
      </trkpt>
      <trkpt lat="45.49403" lon="6.6429">
        <ele>2491.39</ele>
        <time>2015-12-13T08:55:04Z</time>
      </trkpt>
      <trkpt lat="45.49404" lon="6.64284">
        <ele>2492.84</ele>
        <time>2015-12-13T08:55:18Z</time>
      </trkpt>
      <trkpt lat="45.49408" lon="6.64273">
        <ele>2495.72</ele>
        <time>2015-12-13T08:55:35Z</time>
      </trkpt>
      <trkpt lat="45.49411" lon="6.64265">
        <ele>2499.08</ele>
        <time>2015-12-13T08:55:50Z</time>
      </trkpt>
      <trkpt lat="45.49414" lon="6.64255">
        <ele>2501.49</ele>
        <time>2015-12-13T08:56:07Z</time>
      </trkpt>
      <trkpt lat="45.49418" lon="6.64247">
        <ele>2503.89</ele>
        <time>2015-12-13T08:56:20Z</time>
      </trkpt>
      <trkpt lat="45.49424" lon="6.64235">
        <ele>2504.37</ele>
        <time>2015-12-13T08:56:33Z</time>
      </trkpt>
      <trkpt lat="45.49435" lon="6.64223">
        <ele>2506.29</ele>
        <time>2015-12-13T08:56:54Z</time>
      </trkpt>
      <trkpt lat="45.49443" lon="6.64217">
        <ele>2509.18</ele>
        <time>2015-12-13T08:57:12Z</time>
      </trkpt>
      <trkpt lat="45.49447" lon="6.64216">
        <ele>2511.58</ele>
        <time>2015-12-13T08:57:28Z</time>
      </trkpt>
      <trkpt lat="45.49448" lon="6.64216">
        <ele>2511.58</ele>
        <time>2015-12-13T08:57:53Z</time>
      </trkpt>
      <trkpt lat="45.49453" lon="6.6421">
        <ele>2513.02</ele>
        <time>2015-12-13T08:58:08Z</time>
      </trkpt>
      <trkpt lat="45.49458" lon="6.64206">
        <ele>2515.43</ele>
        <time>2015-12-13T08:58:23Z</time>
      </trkpt>
      <trkpt lat="45.49465" lon="6.64199">
        <ele>2518.31</ele>
        <time>2015-12-13T08:58:42Z</time>
      </trkpt>
      <trkpt lat="45.4947" lon="6.64193">
        <ele>2519.75</ele>
        <time>2015-12-13T08:58:56Z</time>
      </trkpt>
      <trkpt lat="45.49474" lon="6.6419">
        <ele>2522.64</ele>
        <time>2015-12-13T08:59:12Z</time>
      </trkpt>
      <trkpt lat="45.49477" lon="6.64187">
        <ele>2524.56</ele>
        <time>2015-12-13T08:59:25Z</time>
      </trkpt>
      <trkpt lat="45.49482" lon="6.64181">
        <ele>2526.96</ele>
        <time>2015-12-13T08:59:40Z</time>
      </trkpt>
      <trkpt lat="45.49487" lon="6.64174">
        <ele>2529.37</ele>
        <time>2015-12-13T08:59:54Z</time>
      </trkpt>
      <trkpt lat="45.49491" lon="6.64163">
        <ele>2530.81</ele>
        <time>2015-12-13T09:00:08Z</time>
      </trkpt>
      <trkpt lat="45.49495" lon="6.64151">
        <ele>2531.77</ele>
        <time>2015-12-13T09:00:22Z</time>
      </trkpt>
      <trkpt lat="45.49497" lon="6.64139">
        <ele>2533.69</ele>
        <time>2015-12-13T09:00:38Z</time>
      </trkpt>
      <trkpt lat="45.49496" lon="6.64127">
        <ele>2533.69</ele>
        <time>2015-12-13T09:00:52Z</time>
      </trkpt>
      <trkpt lat="45.49496" lon="6.64122">
        <ele>2533.69</ele>
        <time>2015-12-13T09:00:55Z</time>
      </trkpt>
      <trkpt lat="45.49498" lon="6.6411">
        <ele>2535.13</ele>
        <time>2015-12-13T09:01:09Z</time>
      </trkpt>
      <trkpt lat="45.49498" lon="6.64097">
        <ele>2537.06</ele>
        <time>2015-12-13T09:01:20Z</time>
      </trkpt>
      <trkpt lat="45.495" lon="6.64084">
        <ele>2538.5</ele>
        <time>2015-12-13T09:01:34Z</time>
      </trkpt>
      <trkpt lat="45.49501" lon="6.64076">
        <ele>2539.94</ele>
        <time>2015-12-13T09:01:48Z</time>
      </trkpt>
      <trkpt lat="45.49503" lon="6.6407">
        <ele>2541.86</ele>
        <time>2015-12-13T09:02:02Z</time>
      </trkpt>
      <trkpt lat="45.495" lon="6.64066">
        <ele>2541.86</ele>
        <time>2015-12-13T09:02:25Z</time>
      </trkpt>
      <trkpt lat="45.49499" lon="6.64055">
        <ele>2542.82</ele>
        <time>2015-12-13T09:02:41Z</time>
      </trkpt>
      <trkpt lat="45.495" lon="6.6405">
        <ele>2544.27</ele>
        <time>2015-12-13T09:02:57Z</time>
      </trkpt>
      <trkpt lat="45.49499" lon="6.64045">
        <ele>2545.23</ele>
        <time>2015-12-13T09:03:15Z</time>
      </trkpt>
      <trkpt lat="45.49498" lon="6.6404">
        <ele>2545.71</ele>
        <time>2015-12-13T09:03:32Z</time>
      </trkpt>
      <trkpt lat="45.49498" lon="6.64039">
        <ele>2545.71</ele>
        <time>2015-12-13T09:03:54Z</time>
      </trkpt>
      <trkpt lat="45.49498" lon="6.64039">
        <ele>2546.19</ele>
        <time>2015-12-13T09:04:07Z</time>
      </trkpt>
      <trkpt lat="45.49498" lon="6.64037">
        <ele>2546.67</ele>
        <time>2015-12-13T09:04:21Z</time>
      </trkpt>
      <trkpt lat="45.495" lon="6.64033">
        <ele>2547.15</ele>
        <time>2015-12-13T09:04:31Z</time>
      </trkpt>
      <trkpt lat="45.495" lon="6.64028">
        <ele>2547.63</ele>
        <time>2015-12-13T09:04:47Z</time>
      </trkpt>
      <trkpt lat="45.495" lon="6.64026">
        <ele>2547.63</ele>
        <time>2015-12-13T09:04:48Z</time>
      </trkpt>
      <trkpt lat="45.495" lon="6.64025">
        <ele>2547.63</ele>
        <time>2015-12-13T09:04:49Z</time>
      </trkpt>
      <trkpt lat="45.495" lon="6.64023">
        <ele>2547.63</ele>
        <time>2015-12-13T09:04:50Z</time>
      </trkpt>
      <trkpt lat="45.49499" lon="6.64022">
        <ele>2547.63</ele>
        <time>2015-12-13T09:04:51Z</time>
      </trkpt>
      <trkpt lat="45.49499" lon="6.64016">
        <ele>2547.63</ele>
        <time>2015-12-13T09:04:55Z</time>
      </trkpt>
      <trkpt lat="45.49498" lon="6.64015">
        <ele>2547.63</ele>
        <time>2015-12-13T09:04:56Z</time>
      </trkpt>
      <trkpt lat="45.49497" lon="6.64012">
        <ele>2547.63</ele>
        <time>2015-12-13T09:05:03Z</time>
      </trkpt>
      <trkpt lat="45.49496" lon="6.64008">
        <ele>2547.63</ele>
        <time>2015-12-13T09:05:06Z</time>
      </trkpt>
      <trkpt lat="45.49489" lon="6.63987">
        <ele>2546.19</ele>
        <time>2015-12-13T09:05:20Z</time>
      </trkpt>
      <trkpt lat="45.49487" lon="6.63984">
        <ele>2547.63</ele>
        <time>2015-12-13T09:05:24Z</time>
      </trkpt>
      <trkpt lat="45.49484" lon="6.63967">
        <ele>2549.55</ele>
        <time>2015-12-13T09:05:38Z</time>
      </trkpt>
      <trkpt lat="45.4948" lon="6.63956">
        <ele>2552.44</ele>
        <time>2015-12-13T09:05:52Z</time>
      </trkpt>
      <trkpt lat="45.49479" lon="6.63947">
        <ele>2555.8</ele>
        <time>2015-12-13T09:06:05Z</time>
      </trkpt>
      <trkpt lat="45.49479" lon="6.63938">
        <ele>2557.24</ele>
        <time>2015-12-13T09:06:16Z</time>
      </trkpt>
      <trkpt lat="45.49478" lon="6.63933">
        <ele>2557.73</ele>
        <time>2015-12-13T09:06:28Z</time>
      </trkpt>
      <trkpt lat="45.49477" lon="6.63925">
        <ele>2558.69</ele>
        <time>2015-12-13T09:06:38Z</time>
      </trkpt>
      <trkpt lat="45.49476" lon="6.63924">
        <ele>2558.69</ele>
        <time>2015-12-13T09:07:02Z</time>
      </trkpt>
      <trkpt lat="45.49476" lon="6.63922">
        <ele>2558.69</ele>
        <time>2015-12-13T09:07:17Z</time>
      </trkpt>
      <trkpt lat="45.49476" lon="6.63921">
        <ele>2558.69</ele>
        <time>2015-12-13T09:07:28Z</time>
      </trkpt>
      <trkpt lat="45.49476" lon="6.63921">
        <ele>2558.69</ele>
        <time>2015-12-13T09:07:44Z</time>
      </trkpt>
      <trkpt lat="45.49476" lon="6.63922">
        <ele>2558.69</ele>
        <time>2015-12-13T09:08:10Z</time>
      </trkpt>
      <trkpt lat="45.49476" lon="6.63921">
        <ele>2558.69</ele>
        <time>2015-12-13T09:08:42Z</time>
      </trkpt>
      <trkpt lat="45.49476" lon="6.63921">
        <ele>2558.69</ele>
        <time>2015-12-13T09:09:02Z</time>
      </trkpt>
      <trkpt lat="45.49476" lon="6.63921">
        <ele>2558.69</ele>
        <time>2015-12-13T09:09:28Z</time>
      </trkpt>
      <trkpt lat="45.49477" lon="6.63922">
        <ele>2557.73</ele>
        <time>2015-12-13T09:09:43Z</time>
      </trkpt>
      <trkpt lat="45.49476" lon="6.63923">
        <ele>2556.28</ele>
        <time>2015-12-13T09:09:49Z</time>
      </trkpt>
      <trkpt lat="45.49476" lon="6.63923">
        <ele>2557.73</ele>
        <time>2015-12-13T09:09:52Z</time>
      </trkpt>
      <trkpt lat="45.49476" lon="6.63923">
        <ele>2561.57</ele>
        <time>2015-12-13T09:09:54Z</time>
      </trkpt>
      <trkpt lat="45.49477" lon="6.63923">
        <ele>2559.65</ele>
        <time>2015-12-13T09:09:55Z</time>
      </trkpt>
      <trkpt lat="45.49477" lon="6.63923">
        <ele>2558.69</ele>
        <time>2015-12-13T09:09:57Z</time>
      </trkpt>
      <trkpt lat="45.49476" lon="6.63923">
        <ele>2557.73</ele>
        <time>2015-12-13T09:10:08Z</time>
      </trkpt>
      <trkpt lat="45.49476" lon="6.63923">
        <ele>2559.17</ele>
        <time>2015-12-13T09:10:35Z</time>
      </trkpt>
      <trkpt lat="45.49476" lon="6.63922">
        <ele>2559.17</ele>
        <time>2015-12-13T09:11:10Z</time>
      </trkpt>
      <trkpt lat="45.49476" lon="6.63923">
        <ele>2557.73</ele>
        <time>2015-12-13T09:11:29Z</time>
      </trkpt>
      <trkpt lat="45.49476" lon="6.63922">
        <ele>2557.73</ele>
        <time>2015-12-13T09:11:50Z</time>
      </trkpt>
      <trkpt lat="45.49476" lon="6.63921">
        <ele>2557.73</ele>
        <time>2015-12-13T09:12:26Z</time>
      </trkpt>
      <trkpt lat="45.49476" lon="6.63922">
        <ele>2556.76</ele>
        <time>2015-12-13T09:12:37Z</time>
      </trkpt>
      <trkpt lat="45.49476" lon="6.63922">
        <ele>2558.21</ele>
        <time>2015-12-13T09:12:39Z</time>
      </trkpt>
      <trkpt lat="45.49476" lon="6.63922">
        <ele>2558.69</ele>
        <time>2015-12-13T09:12:59Z</time>
      </trkpt>
      <trkpt lat="45.49476" lon="6.63921">
        <ele>2557.24</ele>
        <time>2015-12-13T09:13:23Z</time>
      </trkpt>
      <trkpt lat="45.49477" lon="6.63921">
        <ele>2558.69</ele>
        <time>2015-12-13T09:13:34Z</time>
      </trkpt>
      <trkpt lat="45.49476" lon="6.63921">
        <ele>2557.73</ele>
        <time>2015-12-13T09:13:51Z</time>
      </trkpt>
      <trkpt lat="45.49476" lon="6.63921">
        <ele>2557.73</ele>
        <time>2015-12-13T09:14:15Z</time>
      </trkpt>
      <trkpt lat="45.49476" lon="6.63922">
        <ele>2558.69</ele>
        <time>2015-12-13T09:14:19Z</time>
      </trkpt>
      <trkpt lat="45.49476" lon="6.63922">
        <ele>2557.73</ele>
        <time>2015-12-13T09:14:21Z</time>
      </trkpt>
      <trkpt lat="45.49476" lon="6.63922">
        <ele>2557.73</ele>
        <time>2015-12-13T09:14:42Z</time>
      </trkpt>
      <trkpt lat="45.49477" lon="6.63922">
        <ele>2557.73</ele>
        <time>2015-12-13T09:15:13Z</time>
      </trkpt>
      <trkpt lat="45.49476" lon="6.63923">
        <ele>2557.73</ele>
        <time>2015-12-13T09:15:36Z</time>
      </trkpt>
      <trkpt lat="45.49477" lon="6.63923">
        <ele>2557.73</ele>
        <time>2015-12-13T09:16:10Z</time>
      </trkpt>
      <trkpt lat="45.49476" lon="6.63921">
        <ele>2557.24</ele>
        <time>2015-12-13T09:16:30Z</time>
      </trkpt>
      <trkpt lat="45.49476" lon="6.63922">
        <ele>2560.61</ele>
        <time>2015-12-13T09:16:51Z</time>
      </trkpt>
      <trkpt lat="45.49476" lon="6.63921">
        <ele>2553.88</ele>
        <time>2015-12-13T09:16:54Z</time>
      </trkpt>
      <trkpt lat="45.49475" lon="6.63921">
        <ele>2557.24</ele>
        <time>2015-12-13T09:16:55Z</time>
      </trkpt>
      <trkpt lat="45.49476" lon="6.63921">
        <ele>2557.73</ele>
        <time>2015-12-13T09:17:05Z</time>
      </trkpt>
      <trkpt lat="45.49476" lon="6.63921">
        <ele>2553.88</ele>
        <time>2015-12-13T09:17:06Z</time>
      </trkpt>
      <trkpt lat="45.49476" lon="6.63921">
        <ele>2560.61</ele>
        <time>2015-12-13T09:17:07Z</time>
      </trkpt>
      <trkpt lat="45.49476" lon="6.6392">
        <ele>2556.76</ele>
        <time>2015-12-13T09:17:11Z</time>
      </trkpt>
      <trkpt lat="45.49476" lon="6.6392">
        <ele>2553.4</ele>
        <time>2015-12-13T09:17:13Z</time>
      </trkpt>
      <trkpt lat="45.49475" lon="6.63921">
        <ele>2560.13</ele>
        <time>2015-12-13T09:17:14Z</time>
      </trkpt>
      <trkpt lat="45.49475" lon="6.6392">
        <ele>2555.8</ele>
        <time>2015-12-13T09:17:15Z</time>
      </trkpt>
      <trkpt lat="45.49476" lon="6.6392">
        <ele>2559.65</ele>
        <time>2015-12-13T09:17:18Z</time>
      </trkpt>
      <trkpt lat="45.49476" lon="6.6392">
        <ele>2553.4</ele>
        <time>2015-12-13T09:17:19Z</time>
      </trkpt>
      <trkpt lat="45.49476" lon="6.63921">
        <ele>2557.73</ele>
        <time>2015-12-13T09:17:21Z</time>
      </trkpt>
      <trkpt lat="45.49476" lon="6.63921">
        <ele>2557.73</ele>
        <time>2015-12-13T09:17:22Z</time>
      </trkpt>
      <trkpt lat="45.49475" lon="6.6392">
        <ele>2559.17</ele>
        <time>2015-12-13T09:17:24Z</time>
      </trkpt>
      <trkpt lat="45.49475" lon="6.63921">
        <ele>2563.97</ele>
        <time>2015-12-13T09:17:25Z</time>
      </trkpt>
      <trkpt lat="45.49476" lon="6.63921">
        <ele>2559.65</ele>
        <time>2015-12-13T09:17:26Z</time>
      </trkpt>
      <trkpt lat="45.49476" lon="6.63921">
        <ele>2557.73</ele>
        <time>2015-12-13T09:17:28Z</time>
      </trkpt>
      <trkpt lat="45.49476" lon="6.63922">
        <ele>2557.73</ele>
        <time>2015-12-13T09:17:43Z</time>
      </trkpt>
      <trkpt lat="45.49476" lon="6.63921">
        <ele>2557.24</ele>
        <time>2015-12-13T09:18:01Z</time>
      </trkpt>
      <trkpt lat="45.49477" lon="6.63927">
        <ele>2557.24</ele>
        <time>2015-12-13T09:18:18Z</time>
      </trkpt>
      <trkpt lat="45.49478" lon="6.63934">
        <ele>2556.76</ele>
        <time>2015-12-13T09:18:29Z</time>
      </trkpt>
      <trkpt lat="45.49479" lon="6.63933">
        <ele>2556.76</ele>
        <time>2015-12-13T09:18:55Z</time>
      </trkpt>
      <trkpt lat="45.4948" lon="6.63934">
        <ele>2556.76</ele>
        <time>2015-12-13T09:19:28Z</time>
      </trkpt>
      <trkpt lat="45.49481" lon="6.63942">
        <ele>2555.32</ele>
        <time>2015-12-13T09:19:42Z</time>
      </trkpt>
      <trkpt lat="45.49481" lon="6.63943">
        <ele>2555.32</ele>
        <time>2015-12-13T09:19:43Z</time>
      </trkpt>
      <trkpt lat="45.4948" lon="6.63947">
        <ele>2554.36</ele>
        <time>2015-12-13T09:19:46Z</time>
      </trkpt>
      <trkpt lat="45.49481" lon="6.63951">
        <ele>2552.44</ele>
        <time>2015-12-13T09:19:52Z</time>
      </trkpt>
      <trkpt lat="45.49482" lon="6.63956">
        <ele>2551.48</ele>
        <time>2015-12-13T09:19:57Z</time>
      </trkpt>
      <trkpt lat="45.49483" lon="6.63959">
        <ele>2550.51</ele>
        <time>2015-12-13T09:19:58Z</time>
      </trkpt>
      <trkpt lat="45.49484" lon="6.63963">
        <ele>2549.55</ele>
        <time>2015-12-13T09:19:59Z</time>
      </trkpt>
      <trkpt lat="45.49487" lon="6.63971">
        <ele>2549.07</ele>
        <time>2015-12-13T09:20:01Z</time>
      </trkpt>
      <trkpt lat="45.49487" lon="6.63971">
        <ele>2550.03</ele>
        <time>2015-12-13T09:20:04Z</time>
      </trkpt>
      <trkpt lat="45.49486" lon="6.63967">
        <ele>2548.59</ele>
        <time>2015-12-13T09:20:24Z</time>
      </trkpt>
      <trkpt lat="45.49488" lon="6.63969">
        <ele>2548.59</ele>
        <time>2015-12-13T09:20:53Z</time>
      </trkpt>
      <trkpt lat="45.49487" lon="6.63967">
        <ele>2549.07</ele>
        <time>2015-12-13T09:21:15Z</time>
      </trkpt>
      <trkpt lat="45.49487" lon="6.63969">
        <ele>2549.07</ele>
        <time>2015-12-13T09:21:41Z</time>
      </trkpt>
      <trkpt lat="45.49486" lon="6.63968">
        <ele>2549.07</ele>
        <time>2015-12-13T09:22:09Z</time>
      </trkpt>
      <trkpt lat="45.49486" lon="6.63965">
        <ele>2549.07</ele>
        <time>2015-12-13T09:22:31Z</time>
      </trkpt>
      <trkpt lat="45.49487" lon="6.63964">
        <ele>2547.15</ele>
        <time>2015-12-13T09:22:52Z</time>
      </trkpt>
      <trkpt lat="45.49489" lon="6.6396">
        <ele>2544.75</ele>
        <time>2015-12-13T09:23:07Z</time>
      </trkpt>
      <trkpt lat="45.49491" lon="6.63955">
        <ele>2541.86</ele>
        <time>2015-12-13T09:23:22Z</time>
      </trkpt>
      <trkpt lat="45.49493" lon="6.63953">
        <ele>2539.46</ele>
        <time>2015-12-13T09:23:27Z</time>
      </trkpt>
      <trkpt lat="45.49492" lon="6.63953">
        <ele>2539.94</ele>
        <time>2015-12-13T09:23:42Z</time>
      </trkpt>
      <trkpt lat="45.49492" lon="6.63954">
        <ele>2539.94</ele>
        <time>2015-12-13T09:24:06Z</time>
      </trkpt>
      <trkpt lat="45.49493" lon="6.63953">
        <ele>2538.5</ele>
        <time>2015-12-13T09:24:12Z</time>
      </trkpt>
      <trkpt lat="45.49493" lon="6.6395">
        <ele>2538.02</ele>
        <time>2015-12-13T09:24:15Z</time>
      </trkpt>
      <trkpt lat="45.49497" lon="6.63944">
        <ele>2534.65</ele>
        <time>2015-12-13T09:24:23Z</time>
      </trkpt>
      <trkpt lat="45.49499" lon="6.63945">
        <ele>2532.73</ele>
        <time>2015-12-13T09:24:32Z</time>
      </trkpt>
      <trkpt lat="45.49502" lon="6.63947">
        <ele>2531.29</ele>
        <time>2015-12-13T09:24:33Z</time>
      </trkpt>
      <trkpt lat="45.49502" lon="6.63948">
        <ele>2530.81</ele>
        <time>2015-12-13T09:24:40Z</time>
      </trkpt>
      <trkpt lat="45.49508" lon="6.63949">
        <ele>2526</ele>
        <time>2015-12-13T09:24:43Z</time>
      </trkpt>
      <trkpt lat="45.49508" lon="6.63949">
        <ele>2526</ele>
        <time>2015-12-13T09:24:44Z</time>
      </trkpt>
      <trkpt lat="45.49509" lon="6.63948">
        <ele>2525.04</ele>
        <time>2015-12-13T09:24:46Z</time>
      </trkpt>
      <trkpt lat="45.49515" lon="6.63952">
        <ele>2521.19</ele>
        <time>2015-12-13T09:24:50Z</time>
      </trkpt>
      <trkpt lat="45.49515" lon="6.63951">
        <ele>2519.75</ele>
        <time>2015-12-13T09:24:51Z</time>
      </trkpt>
      <trkpt lat="45.4952" lon="6.6395">
        <ele>2516.39</ele>
        <time>2015-12-13T09:24:54Z</time>
      </trkpt>
      <trkpt lat="45.49521" lon="6.63949">
        <ele>2515.43</ele>
        <time>2015-12-13T09:24:55Z</time>
      </trkpt>
      <trkpt lat="45.49524" lon="6.63951">
        <ele>2509.18</ele>
        <time>2015-12-13T09:24:57Z</time>
      </trkpt>
      <trkpt lat="45.49525" lon="6.63954">
        <ele>2513.98</ele>
        <time>2015-12-13T09:24:58Z</time>
      </trkpt>
      <trkpt lat="45.49524" lon="6.63954">
        <ele>2510.62</ele>
        <time>2015-12-13T09:25:03Z</time>
      </trkpt>
      <trkpt lat="45.49525" lon="6.63956">
        <ele>2510.14</ele>
        <time>2015-12-13T09:25:08Z</time>
      </trkpt>
      <trkpt lat="45.49526" lon="6.63959">
        <ele>2508.7</ele>
        <time>2015-12-13T09:25:11Z</time>
      </trkpt>
      <trkpt lat="45.49526" lon="6.63959">
        <ele>2508.7</ele>
        <time>2015-12-13T09:25:14Z</time>
      </trkpt>
      <trkpt lat="45.49532" lon="6.63958">
        <ele>2504.37</ele>
        <time>2015-12-13T09:25:18Z</time>
      </trkpt>
      <trkpt lat="45.49532" lon="6.63957">
        <ele>2504.37</ele>
        <time>2015-12-13T09:25:19Z</time>
      </trkpt>
      <trkpt lat="45.49533" lon="6.63957">
        <ele>2503.89</ele>
        <time>2015-12-13T09:25:23Z</time>
      </trkpt>
      <trkpt lat="45.49536" lon="6.63955">
        <ele>2502.45</ele>
        <time>2015-12-13T09:25:25Z</time>
      </trkpt>
      <trkpt lat="45.49539" lon="6.63958">
        <ele>2500.05</ele>
        <time>2015-12-13T09:25:28Z</time>
      </trkpt>
      <trkpt lat="45.4954" lon="6.63962">
        <ele>2496.68</ele>
        <time>2015-12-13T09:25:31Z</time>
      </trkpt>
      <trkpt lat="45.4954" lon="6.63961">
        <ele>2498.12</ele>
        <time>2015-12-13T09:25:32Z</time>
      </trkpt>
      <trkpt lat="45.49541" lon="6.63962">
        <ele>2498.12</ele>
        <time>2015-12-13T09:25:35Z</time>
      </trkpt>
      <trkpt lat="45.49542" lon="6.63966">
        <ele>2495.24</ele>
        <time>2015-12-13T09:25:38Z</time>
      </trkpt>
      <trkpt lat="45.49545" lon="6.63964">
        <ele>2497.64</ele>
        <time>2015-12-13T09:25:40Z</time>
      </trkpt>
      <trkpt lat="45.49546" lon="6.63963">
        <ele>2491.39</ele>
        <time>2015-12-13T09:25:41Z</time>
      </trkpt>
      <trkpt lat="45.49546" lon="6.63964">
        <ele>2490.91</ele>
        <time>2015-12-13T09:25:44Z</time>
      </trkpt>
      <trkpt lat="45.49553" lon="6.63964">
        <ele>2486.11</ele>
        <time>2015-12-13T09:25:47Z</time>
      </trkpt>
      <trkpt lat="45.49554" lon="6.63966">
        <ele>2489.47</ele>
        <time>2015-12-13T09:25:48Z</time>
      </trkpt>
      <trkpt lat="45.49555" lon="6.63967">
        <ele>2483.7</ele>
        <time>2015-12-13T09:25:50Z</time>
      </trkpt>
      <trkpt lat="45.49556" lon="6.63966">
        <ele>2487.55</ele>
        <time>2015-12-13T09:25:51Z</time>
      </trkpt>
      <trkpt lat="45.49557" lon="6.63966">
        <ele>2483.7</ele>
        <time>2015-12-13T09:25:52Z</time>
      </trkpt>
      <trkpt lat="45.4956" lon="6.63966">
        <ele>2482.26</ele>
        <time>2015-12-13T09:25:54Z</time>
      </trkpt>
      <trkpt lat="45.4956" lon="6.63968">
        <ele>2479.86</ele>
        <time>2015-12-13T09:25:56Z</time>
      </trkpt>
      <trkpt lat="45.49561" lon="6.6397">
        <ele>2478.42</ele>
        <time>2015-12-13T09:26:04Z</time>
      </trkpt>
      <trkpt lat="45.49564" lon="6.63971">
        <ele>2481.3</ele>
        <time>2015-12-13T09:26:06Z</time>
      </trkpt>
      <trkpt lat="45.49566" lon="6.63969">
        <ele>2476.01</ele>
        <time>2015-12-13T09:26:07Z</time>
      </trkpt>
      <trkpt lat="45.49567" lon="6.63969">
        <ele>2474.57</ele>
        <time>2015-12-13T09:26:09Z</time>
      </trkpt>
      <trkpt lat="45.49568" lon="6.63968">
        <ele>2474.57</ele>
        <time>2015-12-13T09:26:11Z</time>
      </trkpt>
      <trkpt lat="45.49571" lon="6.63965">
        <ele>2469.76</ele>
        <time>2015-12-13T09:26:13Z</time>
      </trkpt>
      <trkpt lat="45.49574" lon="6.63967">
        <ele>2473.61</ele>
        <time>2015-12-13T09:26:14Z</time>
      </trkpt>
      <trkpt lat="45.49575" lon="6.63969">
        <ele>2470.24</ele>
        <time>2015-12-13T09:26:15Z</time>
      </trkpt>
      <trkpt lat="45.49574" lon="6.6397">
        <ele>2470.24</ele>
        <time>2015-12-13T09:26:17Z</time>
      </trkpt>
      <trkpt lat="45.49576" lon="6.63974">
        <ele>2468.8</ele>
        <time>2015-12-13T09:26:22Z</time>
      </trkpt>
      <trkpt lat="45.49577" lon="6.6398">
        <ele>2466.88</ele>
        <time>2015-12-13T09:26:37Z</time>
      </trkpt>
      <trkpt lat="45.49577" lon="6.63981">
        <ele>2466.88</ele>
        <time>2015-12-13T09:27:08Z</time>
      </trkpt>
      <trkpt lat="45.49578" lon="6.6398">
        <ele>2467.36</ele>
        <time>2015-12-13T09:27:35Z</time>
      </trkpt>
      <trkpt lat="45.49579" lon="6.6398">
        <ele>2465.92</ele>
        <time>2015-12-13T09:27:48Z</time>
      </trkpt>
      <trkpt lat="45.49585" lon="6.63974">
        <ele>2461.59</ele>
        <time>2015-12-13T09:27:51Z</time>
      </trkpt>
      <trkpt lat="45.49586" lon="6.63973">
        <ele>2461.59</ele>
        <time>2015-12-13T09:27:52Z</time>
      </trkpt>
      <trkpt lat="45.4959" lon="6.63969">
        <ele>2457.27</ele>
        <time>2015-12-13T09:27:55Z</time>
      </trkpt>
      <trkpt lat="45.49594" lon="6.63976">
        <ele>2456.31</ele>
        <time>2015-12-13T09:27:57Z</time>
      </trkpt>
      <trkpt lat="45.49597" lon="6.63988">
        <ele>2451.5</ele>
        <time>2015-12-13T09:28:00Z</time>
      </trkpt>
      <trkpt lat="45.496" lon="6.63998">
        <ele>2452.46</ele>
        <time>2015-12-13T09:28:05Z</time>
      </trkpt>
      <trkpt lat="45.49607" lon="6.64004">
        <ele>2447.65</ele>
        <time>2015-12-13T09:28:08Z</time>
      </trkpt>
      <trkpt lat="45.49609" lon="6.64008">
        <ele>2449.1</ele>
        <time>2015-12-13T09:28:09Z</time>
      </trkpt>
      <trkpt lat="45.49611" lon="6.64014">
        <ele>2447.17</ele>
        <time>2015-12-13T09:28:12Z</time>
      </trkpt>
      <trkpt lat="45.49611" lon="6.64014">
        <ele>2447.17</ele>
        <time>2015-12-13T09:28:15Z</time>
      </trkpt>
      <trkpt lat="45.49615" lon="6.64021">
        <ele>2443.81</ele>
        <time>2015-12-13T09:28:18Z</time>
      </trkpt>
      <trkpt lat="45.49616" lon="6.64025">
        <ele>2443.81</ele>
        <time>2015-12-13T09:28:19Z</time>
      </trkpt>
      <trkpt lat="45.49616" lon="6.64032">
        <ele>2442.37</ele>
        <time>2015-12-13T09:28:21Z</time>
      </trkpt>
      <trkpt lat="45.49619" lon="6.64041">
        <ele>2440.44</ele>
        <time>2015-12-13T09:28:25Z</time>
      </trkpt>
      <trkpt lat="45.49627" lon="6.6405">
        <ele>2436.6</ele>
        <time>2015-12-13T09:28:31Z</time>
      </trkpt>
      <trkpt lat="45.49628" lon="6.64052">
        <ele>2436.6</ele>
        <time>2015-12-13T09:28:32Z</time>
      </trkpt>
      <trkpt lat="45.49635" lon="6.64063">
        <ele>2434.2</ele>
        <time>2015-12-13T09:28:43Z</time>
      </trkpt>
      <trkpt lat="45.49636" lon="6.64067">
        <ele>2433.23</ele>
        <time>2015-12-13T09:28:48Z</time>
      </trkpt>
      <trkpt lat="45.4964" lon="6.64069">
        <ele>2428.43</ele>
        <time>2015-12-13T09:28:50Z</time>
      </trkpt>
      <trkpt lat="45.49644" lon="6.6407">
        <ele>2434.2</ele>
        <time>2015-12-13T09:28:51Z</time>
      </trkpt>
      <trkpt lat="45.49649" lon="6.6406">
        <ele>2426.99</ele>
        <time>2015-12-13T09:28:54Z</time>
      </trkpt>
      <trkpt lat="45.49653" lon="6.64059">
        <ele>2423.62</ele>
        <time>2015-12-13T09:28:55Z</time>
      </trkpt>
      <trkpt lat="45.49656" lon="6.64061">
        <ele>2423.62</ele>
        <time>2015-12-13T09:28:56Z</time>
      </trkpt>
      <trkpt lat="45.49656" lon="6.64071">
        <ele>2420.26</ele>
        <time>2015-12-13T09:29:03Z</time>
      </trkpt>
      <trkpt lat="45.4966" lon="6.64073">
        <ele>2420.26</ele>
        <time>2015-12-13T09:29:09Z</time>
      </trkpt>
      <trkpt lat="45.49665" lon="6.64057">
        <ele>2414.01</ele>
        <time>2015-12-13T09:29:15Z</time>
      </trkpt>
      <trkpt lat="45.49669" lon="6.64059">
        <ele>2412.09</ele>
        <time>2015-12-13T09:29:18Z</time>
      </trkpt>
      <trkpt lat="45.49671" lon="6.64061">
        <ele>2412.09</ele>
        <time>2015-12-13T09:29:19Z</time>
      </trkpt>
      <trkpt lat="45.49674" lon="6.64058">
        <ele>2408.24</ele>
        <time>2015-12-13T09:29:21Z</time>
      </trkpt>
      <trkpt lat="45.49675" lon="6.64055">
        <ele>2408.24</ele>
        <time>2015-12-13T09:29:22Z</time>
      </trkpt>
      <trkpt lat="45.49679" lon="6.64059">
        <ele>2406.8</ele>
        <time>2015-12-13T09:29:25Z</time>
      </trkpt>
      <trkpt lat="45.49683" lon="6.64068">
        <ele>2402.47</ele>
        <time>2015-12-13T09:29:29Z</time>
      </trkpt>
      <trkpt lat="45.49681" lon="6.64068">
        <ele>2402.47</ele>
        <time>2015-12-13T09:29:31Z</time>
      </trkpt>
      <trkpt lat="45.49689" lon="6.64078">
        <ele>2400.07</ele>
        <time>2015-12-13T09:29:36Z</time>
      </trkpt>
      <trkpt lat="45.497" lon="6.64093">
        <ele>2395.74</ele>
        <time>2015-12-13T09:29:46Z</time>
      </trkpt>
      <trkpt lat="45.49706" lon="6.6409">
        <ele>2394.78</ele>
        <time>2015-12-13T09:29:48Z</time>
      </trkpt>
      <trkpt lat="45.49712" lon="6.64091">
        <ele>2390.94</ele>
        <time>2015-12-13T09:29:51Z</time>
      </trkpt>
      <trkpt lat="45.49718" lon="6.64102">
        <ele>2389.97</ele>
        <time>2015-12-13T09:29:56Z</time>
      </trkpt>
      <trkpt lat="45.49727" lon="6.64094">
        <ele>2384.69</ele>
        <time>2015-12-13T09:30:01Z</time>
      </trkpt>
      <trkpt lat="45.49736" lon="6.64098">
        <ele>2379.88</ele>
        <time>2015-12-13T09:30:05Z</time>
      </trkpt>
      <trkpt lat="45.4974" lon="6.64103">
        <ele>2379.88</ele>
        <time>2015-12-13T09:30:06Z</time>
      </trkpt>
      <trkpt lat="45.49743" lon="6.64108">
        <ele>2379.4</ele>
        <time>2015-12-13T09:30:07Z</time>
      </trkpt>
      <trkpt lat="45.4976" lon="6.64121">
        <ele>2371.71</ele>
        <time>2015-12-13T09:30:10Z</time>
      </trkpt>
      <trkpt lat="45.49766" lon="6.64125">
        <ele>2377</ele>
        <time>2015-12-13T09:30:11Z</time>
      </trkpt>
      <trkpt lat="45.49771" lon="6.64128">
        <ele>2373.63</ele>
        <time>2015-12-13T09:30:12Z</time>
      </trkpt>
      <trkpt lat="45.49783" lon="6.64131">
        <ele>2373.63</ele>
        <time>2015-12-13T09:30:15Z</time>
      </trkpt>
      <trkpt lat="45.49799" lon="6.64141">
        <ele>2370.75</ele>
        <time>2015-12-13T09:30:21Z</time>
      </trkpt>
      <trkpt lat="45.49807" lon="6.64144">
        <ele>2368.83</ele>
        <time>2015-12-13T09:30:25Z</time>
      </trkpt>
      <trkpt lat="45.49816" lon="6.64147">
        <ele>2365.46</ele>
        <time>2015-12-13T09:30:28Z</time>
      </trkpt>
      <trkpt lat="45.49831" lon="6.64153">
        <ele>2365.94</ele>
        <time>2015-12-13T09:30:34Z</time>
      </trkpt>
      <trkpt lat="45.49859" lon="6.64162">
        <ele>2362.58</ele>
        <time>2015-12-13T09:30:41Z</time>
      </trkpt>
      <trkpt lat="45.4987" lon="6.64165">
        <ele>2363.06</ele>
        <time>2015-12-13T09:30:46Z</time>
      </trkpt>
      <trkpt lat="45.49871" lon="6.64165">
        <ele>2363.06</ele>
        <time>2015-12-13T09:31:00Z</time>
      </trkpt>
      <trkpt lat="45.49871" lon="6.64165">
        <ele>2363.06</ele>
        <time>2015-12-13T09:31:24Z</time>
      </trkpt>
      <trkpt lat="45.4987" lon="6.64165">
        <ele>2363.06</ele>
        <time>2015-12-13T09:31:32Z</time>
      </trkpt>
      <trkpt lat="45.49866" lon="6.64165">
        <ele>2361.62</ele>
        <time>2015-12-13T09:31:43Z</time>
      </trkpt>
      <trkpt lat="45.4987" lon="6.64162">
        <ele>2361.62</ele>
        <time>2015-12-13T09:32:07Z</time>
      </trkpt>
      <trkpt lat="45.49871" lon="6.64162">
        <ele>2361.62</ele>
        <time>2015-12-13T09:32:08Z</time>
      </trkpt>
      <trkpt lat="45.49877" lon="6.6416">
        <ele>2363.06</ele>
        <time>2015-12-13T09:32:13Z</time>
      </trkpt>
      <trkpt lat="45.49893" lon="6.64162">
        <ele>2362.1</ele>
        <time>2015-12-13T09:32:26Z</time>
      </trkpt>
      <trkpt lat="45.49923" lon="6.64166">
        <ele>2358.73</ele>
        <time>2015-12-13T09:32:40Z</time>
      </trkpt>
      <trkpt lat="45.49934" lon="6.64169">
        <ele>2356.81</ele>
        <time>2015-12-13T09:32:42Z</time>
      </trkpt>
      <trkpt lat="45.49937" lon="6.64172">
        <ele>2356.81</ele>
        <time>2015-12-13T09:32:43Z</time>
      </trkpt>
      <trkpt lat="45.49936" lon="6.64173">
        <ele>2356.81</ele>
        <time>2015-12-13T09:32:52Z</time>
      </trkpt>
      <trkpt lat="45.49936" lon="6.64174">
        <ele>2355.85</ele>
        <time>2015-12-13T09:32:53Z</time>
      </trkpt>
      <trkpt lat="45.49935" lon="6.64175">
        <ele>2357.29</ele>
        <time>2015-12-13T09:32:54Z</time>
      </trkpt>
      <trkpt lat="45.49934" lon="6.64177">
        <ele>2354.89</ele>
        <time>2015-12-13T09:33:03Z</time>
      </trkpt>
      <trkpt lat="45.49931" lon="6.6418">
        <ele>2352.48</ele>
        <time>2015-12-13T09:33:23Z</time>
      </trkpt>
      <trkpt lat="45.49926" lon="6.64183">
        <ele>2349.12</ele>
        <time>2015-12-13T09:33:36Z</time>
      </trkpt>
      <trkpt lat="45.49925" lon="6.64186">
        <ele>2342.39</ele>
        <time>2015-12-13T09:33:42Z</time>
      </trkpt>
      <trkpt lat="45.49927" lon="6.6419">
        <ele>2350.56</ele>
        <time>2015-12-13T09:33:43Z</time>
      </trkpt>
      <trkpt lat="45.49928" lon="6.64192">
        <ele>2344.79</ele>
        <time>2015-12-13T09:33:44Z</time>
      </trkpt>
      <trkpt lat="45.49929" lon="6.64195">
        <ele>2342.87</ele>
        <time>2015-12-13T09:33:52Z</time>
      </trkpt>
      <trkpt lat="45.49927" lon="6.64201">
        <ele>2340.47</ele>
        <time>2015-12-13T09:33:56Z</time>
      </trkpt>
      <trkpt lat="45.49923" lon="6.64205">
        <ele>2339.02</ele>
        <time>2015-12-13T09:33:59Z</time>
      </trkpt>
      <trkpt lat="45.49922" lon="6.64204">
        <ele>2339.02</ele>
        <time>2015-12-13T09:34:07Z</time>
      </trkpt>
      <trkpt lat="45.4992" lon="6.6421">
        <ele>2337.58</ele>
        <time>2015-12-13T09:34:09Z</time>
      </trkpt>
      <trkpt lat="45.49915" lon="6.64214">
        <ele>2333.26</ele>
        <time>2015-12-13T09:34:11Z</time>
      </trkpt>
      <trkpt lat="45.49916" lon="6.64213">
        <ele>2331.33</ele>
        <time>2015-12-13T09:34:12Z</time>
      </trkpt>
      <trkpt lat="45.49914" lon="6.64215">
        <ele>2333.74</ele>
        <time>2015-12-13T09:34:14Z</time>
      </trkpt>
      <trkpt lat="45.49913" lon="6.64218">
        <ele>2333.26</ele>
        <time>2015-12-13T09:34:16Z</time>
      </trkpt>
      <trkpt lat="45.49911" lon="6.64224">
        <ele>2330.37</ele>
        <time>2015-12-13T09:34:20Z</time>
      </trkpt>
      <trkpt lat="45.49908" lon="6.64225">
        <ele>2328.93</ele>
        <time>2015-12-13T09:34:25Z</time>
      </trkpt>
      <trkpt lat="45.49904" lon="6.64232">
        <ele>2327.01</ele>
        <time>2015-12-13T09:34:29Z</time>
      </trkpt>
      <trkpt lat="45.49899" lon="6.64238">
        <ele>2323.16</ele>
        <time>2015-12-13T09:34:33Z</time>
      </trkpt>
      <trkpt lat="45.49895" lon="6.64242">
        <ele>2322.68</ele>
        <time>2015-12-13T09:34:38Z</time>
      </trkpt>
      <trkpt lat="45.49893" lon="6.64244">
        <ele>2322.2</ele>
        <time>2015-12-13T09:34:46Z</time>
      </trkpt>
      <trkpt lat="45.49879" lon="6.64245">
        <ele>2319.8</ele>
        <time>2015-12-13T09:34:53Z</time>
      </trkpt>
      <trkpt lat="45.49874" lon="6.64246">
        <ele>2318.84</ele>
        <time>2015-12-13T09:34:56Z</time>
      </trkpt>
      <trkpt lat="45.49869" lon="6.64245">
        <ele>2317.4</ele>
        <time>2015-12-13T09:34:58Z</time>
      </trkpt>
      <trkpt lat="45.49862" lon="6.64246">
        <ele>2315.95</ele>
        <time>2015-12-13T09:35:05Z</time>
      </trkpt>
      <trkpt lat="45.49863" lon="6.64265">
        <ele>2310.19</ele>
        <time>2015-12-13T09:35:09Z</time>
      </trkpt>
      <trkpt lat="45.49865" lon="6.6427">
        <ele>2307.78</ele>
        <time>2015-12-13T09:35:11Z</time>
      </trkpt>
      <trkpt lat="45.49865" lon="6.64279">
        <ele>2302.49</ele>
        <time>2015-12-13T09:35:14Z</time>
      </trkpt>
      <trkpt lat="45.49865" lon="6.64284">
        <ele>2302.49</ele>
        <time>2015-12-13T09:35:15Z</time>
      </trkpt>
      <trkpt lat="45.49863" lon="6.64287">
        <ele>2299.13</ele>
        <time>2015-12-13T09:35:16Z</time>
      </trkpt>
      <trkpt lat="45.49862" lon="6.64286">
        <ele>2297.69</ele>
        <time>2015-12-13T09:35:24Z</time>
      </trkpt>
      <trkpt lat="45.49859" lon="6.64288">
        <ele>2298.65</ele>
        <time>2015-12-13T09:35:33Z</time>
      </trkpt>
      <trkpt lat="45.49854" lon="6.64291">
        <ele>2295.28</ele>
        <time>2015-12-13T09:35:36Z</time>
      </trkpt>
      <trkpt lat="45.49852" lon="6.64292">
        <ele>2295.28</ele>
        <time>2015-12-13T09:35:37Z</time>
      </trkpt>
      <trkpt lat="45.49837" lon="6.64305">
        <ele>2292.4</ele>
        <time>2015-12-13T09:35:45Z</time>
      </trkpt>
      <trkpt lat="45.49819" lon="6.64326">
        <ele>2290.48</ele>
        <time>2015-12-13T09:35:55Z</time>
      </trkpt>
      <trkpt lat="45.49815" lon="6.6433">
        <ele>2289.04</ele>
        <time>2015-12-13T09:35:58Z</time>
      </trkpt>
      <trkpt lat="45.49805" lon="6.64348">
        <ele>2284.23</ele>
        <time>2015-12-13T09:36:06Z</time>
      </trkpt>
      <trkpt lat="45.49804" lon="6.64349">
        <ele>2288.56</ele>
        <time>2015-12-13T09:36:08Z</time>
      </trkpt>
      <trkpt lat="45.49804" lon="6.64349">
        <ele>2285.67</ele>
        <time>2015-12-13T09:36:10Z</time>
      </trkpt>
      <trkpt lat="45.49802" lon="6.64353">
        <ele>2287.11</ele>
        <time>2015-12-13T09:36:15Z</time>
      </trkpt>
      <trkpt lat="45.49809" lon="6.64364">
        <ele>2278.94</ele>
        <time>2015-12-13T09:36:19Z</time>
      </trkpt>
      <trkpt lat="45.49811" lon="6.64369">
        <ele>2278.94</ele>
        <time>2015-12-13T09:36:20Z</time>
      </trkpt>
      <trkpt lat="45.49813" lon="6.64372">
        <ele>2275.58</ele>
        <time>2015-12-13T09:36:21Z</time>
      </trkpt>
      <trkpt lat="45.49821" lon="6.64382">
        <ele>2272.21</ele>
        <time>2015-12-13T09:36:24Z</time>
      </trkpt>
      <trkpt lat="45.49828" lon="6.64392">
        <ele>2263.56</ele>
        <time>2015-12-13T09:36:27Z</time>
      </trkpt>
      <trkpt lat="45.49832" lon="6.64397">
        <ele>2260.2</ele>
        <time>2015-12-13T09:36:29Z</time>
      </trkpt>
      <trkpt lat="45.49834" lon="6.64401">
        <ele>2256.83</ele>
        <time>2015-12-13T09:36:30Z</time>
      </trkpt>
      <trkpt lat="45.49836" lon="6.64409">
        <ele>2253.95</ele>
        <time>2015-12-13T09:36:32Z</time>
      </trkpt>
      <trkpt lat="45.4984" lon="6.64419">
        <ele>2240.97</ele>
        <time>2015-12-13T09:36:34Z</time>
      </trkpt>
      <trkpt lat="45.49841" lon="6.64424">
        <ele>2255.39</ele>
        <time>2015-12-13T09:36:35Z</time>
      </trkpt>
      <trkpt lat="45.49843" lon="6.64429">
        <ele>2246.26</ele>
        <time>2015-12-13T09:36:36Z</time>
      </trkpt>
      <trkpt lat="45.49838" lon="6.64434">
        <ele>2243.37</ele>
        <time>2015-12-13T09:36:42Z</time>
      </trkpt>
      <trkpt lat="45.49838" lon="6.64431">
        <ele>2243.85</ele>
        <time>2015-12-13T09:37:02Z</time>
      </trkpt>
      <trkpt lat="45.49837" lon="6.6443">
        <ele>2243.85</ele>
        <time>2015-12-13T09:37:29Z</time>
      </trkpt>
      <trkpt lat="45.49836" lon="6.6443">
        <ele>2243.85</ele>
        <time>2015-12-13T09:37:45Z</time>
      </trkpt>
      <trkpt lat="45.4984" lon="6.64444">
        <ele>2241.93</ele>
        <time>2015-12-13T09:37:49Z</time>
      </trkpt>
      <trkpt lat="45.4984" lon="6.64448">
        <ele>2237.61</ele>
        <time>2015-12-13T09:37:50Z</time>
      </trkpt>
      <trkpt lat="45.49839" lon="6.64453">
        <ele>2240.49</ele>
        <time>2015-12-13T09:37:51Z</time>
      </trkpt>
      <trkpt lat="45.49841" lon="6.64455">
        <ele>2236.64</ele>
        <time>2015-12-13T09:37:52Z</time>
      </trkpt>
      <trkpt lat="45.49846" lon="6.64458">
        <ele>2232.8</ele>
        <time>2015-12-13T09:37:54Z</time>
      </trkpt>
      <trkpt lat="45.49847" lon="6.64461">
        <ele>2232.8</ele>
        <time>2015-12-13T09:37:55Z</time>
      </trkpt>
      <trkpt lat="45.49845" lon="6.64464">
        <ele>2231.84</ele>
        <time>2015-12-13T09:37:56Z</time>
      </trkpt>
      <trkpt lat="45.49828" lon="6.64481">
        <ele>2230.4</ele>
        <time>2015-12-13T09:38:08Z</time>
      </trkpt>
      <trkpt lat="45.49814" lon="6.64503">
        <ele>2227.03</ele>
        <time>2015-12-13T09:38:18Z</time>
      </trkpt>
      <trkpt lat="45.49808" lon="6.6452">
        <ele>2225.11</ele>
        <time>2015-12-13T09:38:23Z</time>
      </trkpt>
      <trkpt lat="45.49806" lon="6.64536">
        <ele>2221.26</ele>
        <time>2015-12-13T09:38:26Z</time>
      </trkpt>
      <trkpt lat="45.49805" lon="6.64541">
        <ele>2221.26</ele>
        <time>2015-12-13T09:38:27Z</time>
      </trkpt>
      <trkpt lat="45.49805" lon="6.64555">
        <ele>2217.42</ele>
        <time>2015-12-13T09:38:30Z</time>
      </trkpt>
      <trkpt lat="45.49804" lon="6.64562">
        <ele>2214.05</ele>
        <time>2015-12-13T09:38:31Z</time>
      </trkpt>
      <trkpt lat="45.49814" lon="6.6456">
        <ele>2212.61</ele>
        <time>2015-12-13T09:38:33Z</time>
      </trkpt>
      <trkpt lat="45.4982" lon="6.64565">
        <ele>2210.21</ele>
        <time>2015-12-13T09:38:37Z</time>
      </trkpt>
      <trkpt lat="45.49827" lon="6.64561">
        <ele>2210.21</ele>
        <time>2015-12-13T09:38:40Z</time>
      </trkpt>
      <trkpt lat="45.49837" lon="6.64559">
        <ele>2207.32</ele>
        <time>2015-12-13T09:38:45Z</time>
      </trkpt>
      <trkpt lat="45.49837" lon="6.64558">
        <ele>2207.81</ele>
        <time>2015-12-13T09:38:47Z</time>
      </trkpt>
      <trkpt lat="45.4984" lon="6.64567">
        <ele>2203.96</ele>
        <time>2015-12-13T09:38:51Z</time>
      </trkpt>
      <trkpt lat="45.49839" lon="6.64568">
        <ele>2203.96</ele>
        <time>2015-12-13T09:38:52Z</time>
      </trkpt>
      <trkpt lat="45.49839" lon="6.64569">
        <ele>2203.96</ele>
        <time>2015-12-13T09:38:54Z</time>
      </trkpt>
      <trkpt lat="45.49853" lon="6.64563">
        <ele>2201.08</ele>
        <time>2015-12-13T09:39:01Z</time>
      </trkpt>
      <trkpt lat="45.49878" lon="6.64561">
        <ele>2198.19</ele>
        <time>2015-12-13T09:39:11Z</time>
      </trkpt>
      <trkpt lat="45.49887" lon="6.64568">
        <ele>2197.23</ele>
        <time>2015-12-13T09:39:14Z</time>
      </trkpt>
      <trkpt lat="45.49887" lon="6.64574">
        <ele>2195.79</ele>
        <time>2015-12-13T09:39:17Z</time>
      </trkpt>
      <trkpt lat="45.49888" lon="6.64589">
        <ele>2192.9</ele>
        <time>2015-12-13T09:39:21Z</time>
      </trkpt>
      <trkpt lat="45.4989" lon="6.64597">
        <ele>2190.98</ele>
        <time>2015-12-13T09:39:29Z</time>
      </trkpt>
      <trkpt lat="45.49887" lon="6.64598">
        <ele>2188.1</ele>
        <time>2015-12-13T09:39:40Z</time>
      </trkpt>
      <trkpt lat="45.49886" lon="6.64596">
        <ele>2186.66</ele>
        <time>2015-12-13T09:39:49Z</time>
      </trkpt>
      <trkpt lat="45.49885" lon="6.64604">
        <ele>2184.73</ele>
        <time>2015-12-13T09:39:51Z</time>
      </trkpt>
      <trkpt lat="45.49881" lon="6.64607">
        <ele>2183.77</ele>
        <time>2015-12-13T09:39:52Z</time>
      </trkpt>
      <trkpt lat="45.49878" lon="6.64609">
        <ele>2183.29</ele>
        <time>2015-12-13T09:39:53Z</time>
      </trkpt>
      <trkpt lat="45.49876" lon="6.64609">
        <ele>2183.29</ele>
        <time>2015-12-13T09:39:54Z</time>
      </trkpt>
      <trkpt lat="45.49873" lon="6.64609">
        <ele>2185.21</ele>
        <time>2015-12-13T09:39:56Z</time>
      </trkpt>
      <trkpt lat="45.49874" lon="6.64609">
        <ele>2185.21</ele>
        <time>2015-12-13T09:40:11Z</time>
      </trkpt>
      <trkpt lat="45.49874" lon="6.64609">
        <ele>2185.21</ele>
        <time>2015-12-13T09:40:28Z</time>
      </trkpt>
      <trkpt lat="45.49875" lon="6.64609">
        <ele>2183.77</ele>
        <time>2015-12-13T09:40:37Z</time>
      </trkpt>
      <trkpt lat="45.49875" lon="6.64607">
        <ele>2187.14</ele>
        <time>2015-12-13T09:40:52Z</time>
      </trkpt>
      <trkpt lat="45.49875" lon="6.64607">
        <ele>2183.77</ele>
        <time>2015-12-13T09:40:54Z</time>
      </trkpt>
      <trkpt lat="45.49876" lon="6.64607">
        <ele>2183.77</ele>
        <time>2015-12-13T09:40:55Z</time>
      </trkpt>
      <trkpt lat="45.49875" lon="6.64609">
        <ele>2186.66</ele>
        <time>2015-12-13T09:41:00Z</time>
      </trkpt>
      <trkpt lat="45.49875" lon="6.64608">
        <ele>2183.29</ele>
        <time>2015-12-13T09:41:03Z</time>
      </trkpt>
      <trkpt lat="45.49875" lon="6.64608">
        <ele>2183.29</ele>
        <time>2015-12-13T09:41:04Z</time>
      </trkpt>
      <trkpt lat="45.49874" lon="6.6461">
        <ele>2184.25</ele>
        <time>2015-12-13T09:41:18Z</time>
      </trkpt>
      <trkpt lat="45.49873" lon="6.64611">
        <ele>2183.29</ele>
        <time>2015-12-13T09:41:31Z</time>
      </trkpt>
      <trkpt lat="45.49874" lon="6.64612">
        <ele>2185.69</ele>
        <time>2015-12-13T09:41:49Z</time>
      </trkpt>
      <trkpt lat="45.49874" lon="6.64611">
        <ele>2184.25</ele>
        <time>2015-12-13T09:41:51Z</time>
      </trkpt>
      <trkpt lat="45.49874" lon="6.64611">
        <ele>2184.73</ele>
        <time>2015-12-13T09:42:19Z</time>
      </trkpt>
      <trkpt lat="45.49874" lon="6.64608">
        <ele>2185.21</ele>
        <time>2015-12-13T09:42:34Z</time>
      </trkpt>
      <trkpt lat="45.49874" lon="6.64607">
        <ele>2183.77</ele>
        <time>2015-12-13T09:42:42Z</time>
      </trkpt>
      <trkpt lat="45.49874" lon="6.6461">
        <ele>2184.73</ele>
        <time>2015-12-13T09:42:47Z</time>
      </trkpt>
      <trkpt lat="45.49874" lon="6.64607">
        <ele>2183.29</ele>
        <time>2015-12-13T09:43:00Z</time>
      </trkpt>
      <trkpt lat="45.49874" lon="6.64606">
        <ele>2184.25</ele>
        <time>2015-12-13T09:43:06Z</time>
      </trkpt>
      <trkpt lat="45.49874" lon="6.64607">
        <ele>2185.21</ele>
        <time>2015-12-13T09:43:30Z</time>
      </trkpt>
      <trkpt lat="45.49874" lon="6.64609">
        <ele>2183.77</ele>
        <time>2015-12-13T09:43:49Z</time>
      </trkpt>
      <trkpt lat="45.49874" lon="6.64607">
        <ele>2184.73</ele>
        <time>2015-12-13T09:44:04Z</time>
      </trkpt>
      <trkpt lat="45.49874" lon="6.64608">
        <ele>2180.41</ele>
        <time>2015-12-13T09:44:08Z</time>
      </trkpt>
      <trkpt lat="45.49874" lon="6.64608">
        <ele>2180.41</ele>
        <time>2015-12-13T09:44:09Z</time>
      </trkpt>
      <trkpt lat="45.49874" lon="6.64608">
        <ele>2183.77</ele>
        <time>2015-12-13T09:44:11Z</time>
      </trkpt>
      <trkpt lat="45.49874" lon="6.64608">
        <ele>2183.77</ele>
        <time>2015-12-13T09:44:12Z</time>
      </trkpt>
      <trkpt lat="45.49876" lon="6.64607">
        <ele>2184.73</ele>
        <time>2015-12-13T09:44:23Z</time>
      </trkpt>
      <trkpt lat="45.49877" lon="6.64608">
        <ele>2184.73</ele>
        <time>2015-12-13T09:44:47Z</time>
      </trkpt>
      <trkpt lat="45.49873" lon="6.64609">
        <ele>2185.21</ele>
        <time>2015-12-13T09:45:01Z</time>
      </trkpt>
      <trkpt lat="45.49871" lon="6.64609">
        <ele>2185.69</ele>
        <time>2015-12-13T09:45:20Z</time>
      </trkpt>
      <trkpt lat="45.49871" lon="6.64609">
        <ele>2185.69</ele>
        <time>2015-12-13T09:45:41Z</time>
      </trkpt>
      <trkpt lat="45.49869" lon="6.64608">
        <ele>2185.69</ele>
        <time>2015-12-13T09:45:58Z</time>
      </trkpt>
      <trkpt lat="45.49867" lon="6.64611">
        <ele>2185.69</ele>
        <time>2015-12-13T09:46:10Z</time>
      </trkpt>
      <trkpt lat="45.49866" lon="6.64612">
        <ele>2185.69</ele>
        <time>2015-12-13T09:46:11Z</time>
      </trkpt>
      <trkpt lat="45.49865" lon="6.64613">
        <ele>2185.69</ele>
        <time>2015-12-13T09:46:12Z</time>
      </trkpt>
      <trkpt lat="45.49865" lon="6.64613">
        <ele>2186.18</ele>
        <time>2015-12-13T09:46:13Z</time>
      </trkpt>
      <trkpt lat="45.49864" lon="6.64614">
        <ele>2186.18</ele>
        <time>2015-12-13T09:46:14Z</time>
      </trkpt>
      <trkpt lat="45.49858" lon="6.64624">
        <ele>2187.62</ele>
        <time>2015-12-13T09:46:24Z</time>
      </trkpt>
      <trkpt lat="45.49857" lon="6.64625">
        <ele>2187.62</ele>
        <time>2015-12-13T09:46:25Z</time>
      </trkpt>
      <trkpt lat="45.49855" lon="6.64629">
        <ele>2187.62</ele>
        <time>2015-12-13T09:46:39Z</time>
      </trkpt>
      <trkpt lat="45.49857" lon="6.64632">
        <ele>2187.62</ele>
        <time>2015-12-13T09:47:03Z</time>
      </trkpt>
      <trkpt lat="45.49853" lon="6.64635">
        <ele>2188.1</ele>
        <time>2015-12-13T09:47:25Z</time>
      </trkpt>
      <trkpt lat="45.49848" lon="6.64642">
        <ele>2188.58</ele>
        <time>2015-12-13T09:47:36Z</time>
      </trkpt>
      <trkpt lat="45.49841" lon="6.6465">
        <ele>2189.54</ele>
        <time>2015-12-13T09:47:48Z</time>
      </trkpt>
      <trkpt lat="45.4984" lon="6.64651">
        <ele>2189.54</ele>
        <time>2015-12-13T09:47:49Z</time>
      </trkpt>
      <trkpt lat="45.49835" lon="6.64659">
        <ele>2190.02</ele>
        <time>2015-12-13T09:48:00Z</time>
      </trkpt>
      <trkpt lat="45.49828" lon="6.64668">
        <ele>2190.98</ele>
        <time>2015-12-13T09:48:12Z</time>
      </trkpt>
      <trkpt lat="45.49819" lon="6.64677">
        <ele>2191.94</ele>
        <time>2015-12-13T09:48:24Z</time>
      </trkpt>
      <trkpt lat="45.49813" lon="6.64685">
        <ele>2192.9</ele>
        <time>2015-12-13T09:48:34Z</time>
      </trkpt>
      <trkpt lat="45.49808" lon="6.64691">
        <ele>2193.39</ele>
        <time>2015-12-13T09:48:40Z</time>
      </trkpt>
      <trkpt lat="45.49808" lon="6.64693">
        <ele>2193.39</ele>
        <time>2015-12-13T09:48:41Z</time>
      </trkpt>
      <trkpt lat="45.49798" lon="6.64708">
        <ele>2194.83</ele>
        <time>2015-12-13T09:48:54Z</time>
      </trkpt>
      <trkpt lat="45.49797" lon="6.6471">
        <ele>2194.83</ele>
        <time>2015-12-13T09:48:56Z</time>
      </trkpt>
      <trkpt lat="45.49796" lon="6.64714">
        <ele>2195.31</ele>
        <time>2015-12-13T09:49:00Z</time>
      </trkpt>
      <trkpt lat="45.4979" lon="6.64723">
        <ele>2196.27</ele>
        <time>2015-12-13T09:49:09Z</time>
      </trkpt>
      <trkpt lat="45.49789" lon="6.64724">
        <ele>2196.27</ele>
        <time>2015-12-13T09:49:10Z</time>
      </trkpt>
      <trkpt lat="45.49789" lon="6.64725">
        <ele>2196.75</ele>
        <time>2015-12-13T09:49:11Z</time>
      </trkpt>
      <trkpt lat="45.49782" lon="6.64739">
        <ele>2198.19</ele>
        <time>2015-12-13T09:49:24Z</time>
      </trkpt>
      <trkpt lat="45.49777" lon="6.64748">
        <ele>2199.15</ele>
        <time>2015-12-13T09:49:32Z</time>
      </trkpt>
      <trkpt lat="45.49777" lon="6.64749">
        <ele>2199.63</ele>
        <time>2015-12-13T09:49:33Z</time>
      </trkpt>
      <trkpt lat="45.49775" lon="6.64754">
        <ele>2199.63</ele>
        <time>2015-12-13T09:49:37Z</time>
      </trkpt>
      <trkpt lat="45.49772" lon="6.64759">
        <ele>2200.11</ele>
        <time>2015-12-13T09:49:41Z</time>
      </trkpt>
      <trkpt lat="45.49769" lon="6.64766">
        <ele>2200.59</ele>
        <time>2015-12-13T09:49:47Z</time>
      </trkpt>
      <trkpt lat="45.4976" lon="6.64781">
        <ele>2203</ele>
        <time>2015-12-13T09:50:02Z</time>
      </trkpt>
      <trkpt lat="45.49755" lon="6.64791">
        <ele>2203.48</ele>
        <time>2015-12-13T09:50:11Z</time>
      </trkpt>
      <trkpt lat="45.49751" lon="6.648">
        <ele>2204.44</ele>
        <time>2015-12-13T09:50:19Z</time>
      </trkpt>
      <trkpt lat="45.49748" lon="6.64813">
        <ele>2206.84</ele>
        <time>2015-12-13T09:50:32Z</time>
      </trkpt>
      <trkpt lat="45.49741" lon="6.6483">
        <ele>2208.29</ele>
        <time>2015-12-13T09:50:46Z</time>
      </trkpt>
      <trkpt lat="45.49736" lon="6.64843">
        <ele>2209.25</ele>
        <time>2015-12-13T09:50:57Z</time>
      </trkpt>
      <trkpt lat="45.49735" lon="6.64845">
        <ele>2210.21</ele>
        <time>2015-12-13T09:50:58Z</time>
      </trkpt>
      <trkpt lat="45.49731" lon="6.64856">
        <ele>2211.17</ele>
        <time>2015-12-13T09:51:09Z</time>
      </trkpt>
      <trkpt lat="45.49729" lon="6.64869">
        <ele>2213.09</ele>
        <time>2015-12-13T09:51:22Z</time>
      </trkpt>
      <trkpt lat="45.49726" lon="6.64875">
        <ele>2213.09</ele>
        <time>2015-12-13T09:51:27Z</time>
      </trkpt>
      <trkpt lat="45.49725" lon="6.64876">
        <ele>2213.57</ele>
        <time>2015-12-13T09:51:28Z</time>
      </trkpt>
      <trkpt lat="45.49719" lon="6.64884">
        <ele>2214.53</ele>
        <time>2015-12-13T09:51:37Z</time>
      </trkpt>
      <trkpt lat="45.49716" lon="6.6489">
        <ele>2215.5</ele>
        <time>2015-12-13T09:51:43Z</time>
      </trkpt>
      <trkpt lat="45.49716" lon="6.64892">
        <ele>2215.5</ele>
        <time>2015-12-13T09:51:44Z</time>
      </trkpt>
      <trkpt lat="45.49715" lon="6.64893">
        <ele>2215.5</ele>
        <time>2015-12-13T09:51:45Z</time>
      </trkpt>
      <trkpt lat="45.4971" lon="6.64906">
        <ele>2216.46</ele>
        <time>2015-12-13T09:51:55Z</time>
      </trkpt>
      <trkpt lat="45.49709" lon="6.64907">
        <ele>2216.94</ele>
        <time>2015-12-13T09:51:56Z</time>
      </trkpt>
      <trkpt lat="45.49708" lon="6.64908">
        <ele>2216.94</ele>
        <time>2015-12-13T09:51:57Z</time>
      </trkpt>
      <trkpt lat="45.49704" lon="6.64917">
        <ele>2217.42</ele>
        <time>2015-12-13T09:52:05Z</time>
      </trkpt>
      <trkpt lat="45.49703" lon="6.64918">
        <ele>2217.9</ele>
        <time>2015-12-13T09:52:06Z</time>
      </trkpt>
      <trkpt lat="45.49698" lon="6.6493">
        <ele>2218.86</ele>
        <time>2015-12-13T09:52:16Z</time>
      </trkpt>
      <trkpt lat="45.49698" lon="6.64931">
        <ele>2218.86</ele>
        <time>2015-12-13T09:52:17Z</time>
      </trkpt>
      <trkpt lat="45.49697" lon="6.64933">
        <ele>2218.86</ele>
        <time>2015-12-13T09:52:18Z</time>
      </trkpt>
      <trkpt lat="45.49695" lon="6.64934">
        <ele>2219.34</ele>
        <time>2015-12-13T09:52:31Z</time>
      </trkpt>
      <trkpt lat="45.49694" lon="6.64935">
        <ele>2219.34</ele>
        <time>2015-12-13T09:52:53Z</time>
      </trkpt>
      <trkpt lat="45.49695" lon="6.64937">
        <ele>2219.34</ele>
        <time>2015-12-13T09:53:13Z</time>
      </trkpt>
      <trkpt lat="45.49693" lon="6.6494">
        <ele>2219.34</ele>
        <time>2015-12-13T09:53:22Z</time>
      </trkpt>
      <trkpt lat="45.49693" lon="6.64942">
        <ele>2219.34</ele>
        <time>2015-12-13T09:53:23Z</time>
      </trkpt>
      <trkpt lat="45.49692" lon="6.64943">
        <ele>2219.34</ele>
        <time>2015-12-13T09:53:24Z</time>
      </trkpt>
      <trkpt lat="45.49692" lon="6.64944">
        <ele>2219.34</ele>
        <time>2015-12-13T09:53:25Z</time>
      </trkpt>
      <trkpt lat="45.49692" lon="6.64946">
        <ele>2219.34</ele>
        <time>2015-12-13T09:53:26Z</time>
      </trkpt>
      <trkpt lat="45.4969" lon="6.64948">
        <ele>2219.82</ele>
        <time>2015-12-13T09:53:28Z</time>
      </trkpt>
      <trkpt lat="45.4969" lon="6.64949">
        <ele>2219.82</ele>
        <time>2015-12-13T09:53:29Z</time>
      </trkpt>
      <trkpt lat="45.49681" lon="6.64967">
        <ele>2222.22</ele>
        <time>2015-12-13T09:53:45Z</time>
      </trkpt>
      <trkpt lat="45.4968" lon="6.64973">
        <ele>2222.71</ele>
        <time>2015-12-13T09:53:50Z</time>
      </trkpt>
      <trkpt lat="45.4968" lon="6.64975">
        <ele>2222.71</ele>
        <time>2015-12-13T09:53:51Z</time>
      </trkpt>
      <trkpt lat="45.49679" lon="6.64983">
        <ele>2222.71</ele>
        <time>2015-12-13T09:54:03Z</time>
      </trkpt>
      <trkpt lat="45.49676" lon="6.65004">
        <ele>2223.67</ele>
        <time>2015-12-13T09:54:17Z</time>
      </trkpt>
      <trkpt lat="45.49675" lon="6.65019">
        <ele>2225.59</ele>
        <time>2015-12-13T09:54:29Z</time>
      </trkpt>
      <trkpt lat="45.49676" lon="6.6504">
        <ele>2227.03</ele>
        <time>2015-12-13T09:54:45Z</time>
      </trkpt>
      <trkpt lat="45.49675" lon="6.6506">
        <ele>2228.47</ele>
        <time>2015-12-13T09:54:58Z</time>
      </trkpt>
      <trkpt lat="45.49676" lon="6.65081">
        <ele>2230.4</ele>
        <time>2015-12-13T09:55:13Z</time>
      </trkpt>
      <trkpt lat="45.49678" lon="6.65093">
        <ele>2231.36</ele>
        <time>2015-12-13T09:55:26Z</time>
      </trkpt>
      <trkpt lat="45.49678" lon="6.65092">
        <ele>2231.36</ele>
        <time>2015-12-13T09:55:53Z</time>
      </trkpt>
      <trkpt lat="45.4968" lon="6.65097">
        <ele>2231.36</ele>
        <time>2015-12-13T09:56:07Z</time>
      </trkpt>
      <trkpt lat="45.4968" lon="6.65098">
        <ele>2231.36</ele>
        <time>2015-12-13T09:56:08Z</time>
      </trkpt>
      <trkpt lat="45.49679" lon="6.651">
        <ele>2231.36</ele>
        <time>2015-12-13T09:56:09Z</time>
      </trkpt>
      <trkpt lat="45.49681" lon="6.65123">
        <ele>2233.28</ele>
        <time>2015-12-13T09:56:25Z</time>
      </trkpt>
      <trkpt lat="45.49684" lon="6.65143">
        <ele>2234.72</ele>
        <time>2015-12-13T09:56:39Z</time>
      </trkpt>
      <trkpt lat="45.49684" lon="6.65154">
        <ele>2235.68</ele>
        <time>2015-12-13T09:56:46Z</time>
      </trkpt>
      <trkpt lat="45.49684" lon="6.65159">
        <ele>2236.64</ele>
        <time>2015-12-13T09:56:50Z</time>
      </trkpt>
      <trkpt lat="45.49684" lon="6.65161">
        <ele>2236.64</ele>
        <time>2015-12-13T09:56:51Z</time>
      </trkpt>
      <trkpt lat="45.49685" lon="6.65162">
        <ele>2236.64</ele>
        <time>2015-12-13T09:56:52Z</time>
      </trkpt>
      <trkpt lat="45.49689" lon="6.65184">
        <ele>2238.09</ele>
        <time>2015-12-13T09:57:06Z</time>
      </trkpt>
      <trkpt lat="45.4969" lon="6.65188">
        <ele>2238.09</ele>
        <time>2015-12-13T09:57:09Z</time>
      </trkpt>
      <trkpt lat="45.4969" lon="6.65189">
        <ele>2238.09</ele>
        <time>2015-12-13T09:57:10Z</time>
      </trkpt>
      <trkpt lat="45.49691" lon="6.65191">
        <ele>2238.09</ele>
        <time>2015-12-13T09:57:11Z</time>
      </trkpt>
      <trkpt lat="45.49691" lon="6.65192">
        <ele>2238.57</ele>
        <time>2015-12-13T09:57:12Z</time>
      </trkpt>
      <trkpt lat="45.49692" lon="6.65194">
        <ele>2238.57</ele>
        <time>2015-12-13T09:57:13Z</time>
      </trkpt>
      <trkpt lat="45.49693" lon="6.65199">
        <ele>2239.05</ele>
        <time>2015-12-13T09:57:17Z</time>
      </trkpt>
      <trkpt lat="45.49697" lon="6.65205">
        <ele>2239.53</ele>
        <time>2015-12-13T09:57:23Z</time>
      </trkpt>
      <trkpt lat="45.49697" lon="6.65207">
        <ele>2239.53</ele>
        <time>2015-12-13T09:57:24Z</time>
      </trkpt>
      <trkpt lat="45.49703" lon="6.65228">
        <ele>2240.49</ele>
        <time>2015-12-13T09:57:38Z</time>
      </trkpt>
      <trkpt lat="45.49706" lon="6.65247">
        <ele>2243.37</ele>
        <time>2015-12-13T09:57:54Z</time>
      </trkpt>
      <trkpt lat="45.49709" lon="6.65268">
        <ele>2245.78</ele>
        <time>2015-12-13T09:58:11Z</time>
      </trkpt>
      <trkpt lat="45.49705" lon="6.65286">
        <ele>2247.7</ele>
        <time>2015-12-13T09:58:24Z</time>
      </trkpt>
      <trkpt lat="45.49703" lon="6.65291">
        <ele>2248.18</ele>
        <time>2015-12-13T09:58:28Z</time>
      </trkpt>
      <trkpt lat="45.49701" lon="6.65297">
        <ele>2248.66</ele>
        <time>2015-12-13T09:58:34Z</time>
      </trkpt>
      <trkpt lat="45.49701" lon="6.65298">
        <ele>2248.66</ele>
        <time>2015-12-13T09:58:35Z</time>
      </trkpt>
      <trkpt lat="45.497" lon="6.653">
        <ele>2248.66</ele>
        <time>2015-12-13T09:58:36Z</time>
      </trkpt>
      <trkpt lat="45.49693" lon="6.65321">
        <ele>2251.06</ele>
        <time>2015-12-13T09:58:53Z</time>
      </trkpt>
      <trkpt lat="45.49683" lon="6.6533">
        <ele>2253.47</ele>
        <time>2015-12-13T09:59:07Z</time>
      </trkpt>
      <trkpt lat="45.49676" lon="6.65331">
        <ele>2254.43</ele>
        <time>2015-12-13T09:59:20Z</time>
      </trkpt>
      <trkpt lat="45.49661" lon="6.65332">
        <ele>2256.83</ele>
        <time>2015-12-13T09:59:35Z</time>
      </trkpt>
      <trkpt lat="45.49659" lon="6.65332">
        <ele>2256.83</ele>
        <time>2015-12-13T09:59:37Z</time>
      </trkpt>
      <trkpt lat="45.49658" lon="6.65332">
        <ele>2256.83</ele>
        <time>2015-12-13T09:59:38Z</time>
      </trkpt>
      <trkpt lat="45.49642" lon="6.65327">
        <ele>2259.24</ele>
        <time>2015-12-13T09:59:53Z</time>
      </trkpt>
      <trkpt lat="45.49631" lon="6.65322">
        <ele>2261.64</ele>
        <time>2015-12-13T10:00:09Z</time>
      </trkpt>
      <trkpt lat="45.4963" lon="6.65322">
        <ele>2261.64</ele>
        <time>2015-12-13T10:00:10Z</time>
      </trkpt>
      <trkpt lat="45.49621" lon="6.65317">
        <ele>2263.56</ele>
        <time>2015-12-13T10:00:23Z</time>
      </trkpt>
      <trkpt lat="45.49619" lon="6.65315">
        <ele>2264.04</ele>
        <time>2015-12-13T10:00:44Z</time>
      </trkpt>
      <trkpt lat="45.49605" lon="6.65311">
        <ele>2265.48</ele>
        <time>2015-12-13T10:00:59Z</time>
      </trkpt>
      <trkpt lat="45.49601" lon="6.65309">
        <ele>2265.96</ele>
        <time>2015-12-13T10:01:03Z</time>
      </trkpt>
      <trkpt lat="45.496" lon="6.65309">
        <ele>2265.96</ele>
        <time>2015-12-13T10:01:04Z</time>
      </trkpt>
      <trkpt lat="45.49596" lon="6.65304">
        <ele>2266.45</ele>
        <time>2015-12-13T10:01:09Z</time>
      </trkpt>
      <trkpt lat="45.49596" lon="6.65303">
        <ele>2266.45</ele>
        <time>2015-12-13T10:01:10Z</time>
      </trkpt>
      <trkpt lat="45.49596" lon="6.65301">
        <ele>2266.45</ele>
        <time>2015-12-13T10:01:11Z</time>
      </trkpt>
      <trkpt lat="45.49594" lon="6.65289">
        <ele>2267.41</ele>
        <time>2015-12-13T10:01:21Z</time>
      </trkpt>
      <trkpt lat="45.49593" lon="6.65287">
        <ele>2267.89</ele>
        <time>2015-12-13T10:01:22Z</time>
      </trkpt>
      <trkpt lat="45.49588" lon="6.65282">
        <ele>2268.85</ele>
        <time>2015-12-13T10:01:30Z</time>
      </trkpt>
      <trkpt lat="45.49583" lon="6.65285">
        <ele>2270.29</ele>
        <time>2015-12-13T10:01:37Z</time>
      </trkpt>
      <trkpt lat="45.49582" lon="6.65285">
        <ele>2270.29</ele>
        <time>2015-12-13T10:01:38Z</time>
      </trkpt>
      <trkpt lat="45.49577" lon="6.65291">
        <ele>2271.73</ele>
        <time>2015-12-13T10:01:46Z</time>
      </trkpt>
      <trkpt lat="45.49572" lon="6.65295">
        <ele>2273.17</ele>
        <time>2015-12-13T10:01:52Z</time>
      </trkpt>
      <trkpt lat="45.49571" lon="6.65296">
        <ele>2273.17</ele>
        <time>2015-12-13T10:01:53Z</time>
      </trkpt>
      <trkpt lat="45.49563" lon="6.65308">
        <ele>2276.06</ele>
        <time>2015-12-13T10:02:08Z</time>
      </trkpt>
      <trkpt lat="45.49553" lon="6.65317">
        <ele>2278.46</ele>
        <time>2015-12-13T10:02:22Z</time>
      </trkpt>
      <trkpt lat="45.4954" lon="6.65328">
        <ele>2280.38</ele>
        <time>2015-12-13T10:02:36Z</time>
      </trkpt>
      <trkpt lat="45.4953" lon="6.65335">
        <ele>2282.79</ele>
        <time>2015-12-13T10:02:48Z</time>
      </trkpt>
      <trkpt lat="45.4953" lon="6.6534">
        <ele>2283.75</ele>
        <time>2015-12-13T10:02:53Z</time>
      </trkpt>
      <trkpt lat="45.49533" lon="6.65348">
        <ele>2284.23</ele>
        <time>2015-12-13T10:03:00Z</time>
      </trkpt>
      <trkpt lat="45.49541" lon="6.65367">
        <ele>2284.71</ele>
        <time>2015-12-13T10:03:15Z</time>
      </trkpt>
      <trkpt lat="45.49547" lon="6.65375">
        <ele>2287.11</ele>
        <time>2015-12-13T10:03:26Z</time>
      </trkpt>
      <trkpt lat="45.49556" lon="6.65388">
        <ele>2289.52</ele>
        <time>2015-12-13T10:03:42Z</time>
      </trkpt>
      <trkpt lat="45.49563" lon="6.65402">
        <ele>2292.4</ele>
        <time>2015-12-13T10:03:56Z</time>
      </trkpt>
      <trkpt lat="45.49567" lon="6.65419">
        <ele>2295.28</ele>
        <time>2015-12-13T10:04:12Z</time>
      </trkpt>
      <trkpt lat="45.49567" lon="6.65423">
        <ele>2296.25</ele>
        <time>2015-12-13T10:04:15Z</time>
      </trkpt>
      <trkpt lat="45.49559" lon="6.65434">
        <ele>2298.65</ele>
        <time>2015-12-13T10:04:29Z</time>
      </trkpt>
      <trkpt lat="45.49559" lon="6.65435">
        <ele>2299.13</ele>
        <time>2015-12-13T10:04:30Z</time>
      </trkpt>
      <trkpt lat="45.4956" lon="6.65438">
        <ele>2299.61</ele>
        <time>2015-12-13T10:04:34Z</time>
      </trkpt>
      <trkpt lat="45.49566" lon="6.65447">
        <ele>2302.01</ele>
        <time>2015-12-13T10:04:48Z</time>
      </trkpt>
      <trkpt lat="45.49569" lon="6.65452">
        <ele>2303.46</ele>
        <time>2015-12-13T10:04:54Z</time>
      </trkpt>
      <trkpt lat="45.4958" lon="6.65453">
        <ele>2305.86</ele>
        <time>2015-12-13T10:05:08Z</time>
      </trkpt>
      <trkpt lat="45.4958" lon="6.65462">
        <ele>2307.3</ele>
        <time>2015-12-13T10:05:17Z</time>
      </trkpt>
      <trkpt lat="45.49576" lon="6.65471">
        <ele>2308.74</ele>
        <time>2015-12-13T10:05:27Z</time>
      </trkpt>
      <trkpt lat="45.49572" lon="6.6548">
        <ele>2311.15</ele>
        <time>2015-12-13T10:05:38Z</time>
      </trkpt>
      <trkpt lat="45.49572" lon="6.65483">
        <ele>2312.59</ele>
        <time>2015-12-13T10:05:44Z</time>
      </trkpt>
      <trkpt lat="45.49573" lon="6.65489">
        <ele>2314.03</ele>
        <time>2015-12-13T10:05:56Z</time>
      </trkpt>
      <trkpt lat="45.49572" lon="6.65493">
        <ele>2314.51</ele>
        <time>2015-12-13T10:06:16Z</time>
      </trkpt>
      <trkpt lat="45.49568" lon="6.65501">
        <ele>2315.95</ele>
        <time>2015-12-13T10:06:31Z</time>
      </trkpt>
      <trkpt lat="45.49571" lon="6.655">
        <ele>2316.43</ele>
        <time>2015-12-13T10:06:51Z</time>
      </trkpt>
      <trkpt lat="45.49566" lon="6.65508">
        <ele>2318.36</ele>
        <time>2015-12-13T10:07:07Z</time>
      </trkpt>
      <trkpt lat="45.49565" lon="6.65509">
        <ele>2318.36</ele>
        <time>2015-12-13T10:07:18Z</time>
      </trkpt>
      <trkpt lat="45.4956" lon="6.65521">
        <ele>2321.24</ele>
        <time>2015-12-13T10:07:31Z</time>
      </trkpt>
      <trkpt lat="45.4956" lon="6.65523">
        <ele>2321.24</ele>
        <time>2015-12-13T10:07:33Z</time>
      </trkpt>
      <trkpt lat="45.49564" lon="6.65538">
        <ele>2323.16</ele>
        <time>2015-12-13T10:07:47Z</time>
      </trkpt>
      <trkpt lat="45.49571" lon="6.65557">
        <ele>2325.57</ele>
        <time>2015-12-13T10:08:02Z</time>
      </trkpt>
      <trkpt lat="45.49574" lon="6.65577">
        <ele>2326.53</ele>
        <time>2015-12-13T10:08:16Z</time>
      </trkpt>
      <trkpt lat="45.49576" lon="6.65587">
        <ele>2327.01</ele>
        <time>2015-12-13T10:08:22Z</time>
      </trkpt>
      <trkpt lat="45.49577" lon="6.65596">
        <ele>2327.97</ele>
        <time>2015-12-13T10:08:31Z</time>
      </trkpt>
      <trkpt lat="45.49582" lon="6.65614">
        <ele>2328.93</ele>
        <time>2015-12-13T10:08:44Z</time>
      </trkpt>
      <trkpt lat="45.49586" lon="6.65628">
        <ele>2329.89</ele>
        <time>2015-12-13T10:08:55Z</time>
      </trkpt>
      <trkpt lat="45.49588" lon="6.65641">
        <ele>2332.78</ele>
        <time>2015-12-13T10:09:06Z</time>
      </trkpt>
      <trkpt lat="45.49586" lon="6.65652">
        <ele>2334.22</ele>
        <time>2015-12-13T10:09:16Z</time>
      </trkpt>
      <trkpt lat="45.4958" lon="6.65663">
        <ele>2336.62</ele>
        <time>2015-12-13T10:09:29Z</time>
      </trkpt>
      <trkpt lat="45.49573" lon="6.65675">
        <ele>2339.99</ele>
        <time>2015-12-13T10:09:45Z</time>
      </trkpt>
      <trkpt lat="45.49572" lon="6.65682">
        <ele>2341.91</ele>
        <time>2015-12-13T10:09:59Z</time>
      </trkpt>
      <trkpt lat="45.4957" lon="6.65689">
        <ele>2342.87</ele>
        <time>2015-12-13T10:10:10Z</time>
      </trkpt>
      <trkpt lat="45.49569" lon="6.65696">
        <ele>2344.31</ele>
        <time>2015-12-13T10:10:17Z</time>
      </trkpt>
      <trkpt lat="45.4957" lon="6.65718">
        <ele>2345.75</ele>
        <time>2015-12-13T10:10:32Z</time>
      </trkpt>
      <trkpt lat="45.49566" lon="6.65738">
        <ele>2346.72</ele>
        <time>2015-12-13T10:10:45Z</time>
      </trkpt>
      <trkpt lat="45.49566" lon="6.65739">
        <ele>2347.2</ele>
        <time>2015-12-13T10:10:46Z</time>
      </trkpt>
      <trkpt lat="45.49564" lon="6.65741">
        <ele>2346.72</ele>
        <time>2015-12-13T10:10:48Z</time>
      </trkpt>
      <trkpt lat="45.49559" lon="6.65751">
        <ele>2348.64</ele>
        <time>2015-12-13T10:11:00Z</time>
      </trkpt>
      <trkpt lat="45.49545" lon="6.65752">
        <ele>2352</ele>
        <time>2015-12-13T10:11:15Z</time>
      </trkpt>
      <trkpt lat="45.49532" lon="6.65756">
        <ele>2355.85</ele>
        <time>2015-12-13T10:11:29Z</time>
      </trkpt>
      <trkpt lat="45.49529" lon="6.6576">
        <ele>2356.33</ele>
        <time>2015-12-13T10:11:33Z</time>
      </trkpt>
      <trkpt lat="45.49532" lon="6.65771">
        <ele>2359.69</ele>
        <time>2015-12-13T10:11:46Z</time>
      </trkpt>
      <trkpt lat="45.49531" lon="6.65782">
        <ele>2362.58</ele>
        <time>2015-12-13T10:11:59Z</time>
      </trkpt>
      <trkpt lat="45.49531" lon="6.65787">
        <ele>2364.02</ele>
        <time>2015-12-13T10:12:03Z</time>
      </trkpt>
      <trkpt lat="45.49531" lon="6.65802">
        <ele>2366.9</ele>
        <time>2015-12-13T10:12:17Z</time>
      </trkpt>
      <trkpt lat="45.49522" lon="6.65817">
        <ele>2369.31</ele>
        <time>2015-12-13T10:12:34Z</time>
      </trkpt>
      <trkpt lat="45.49518" lon="6.65829">
        <ele>2372.67</ele>
        <time>2015-12-13T10:12:48Z</time>
      </trkpt>
      <trkpt lat="45.49518" lon="6.65832">
        <ele>2373.15</ele>
        <time>2015-12-13T10:13:03Z</time>
      </trkpt>
      <trkpt lat="45.49521" lon="6.65841">
        <ele>2375.07</ele>
        <time>2015-12-13T10:13:24Z</time>
      </trkpt>
      <trkpt lat="45.49527" lon="6.65854">
        <ele>2377.96</ele>
        <time>2015-12-13T10:13:37Z</time>
      </trkpt>
      <trkpt lat="45.49532" lon="6.65866">
        <ele>2379.88</ele>
        <time>2015-12-13T10:13:48Z</time>
      </trkpt>
      <trkpt lat="45.49536" lon="6.65877">
        <ele>2382.76</ele>
        <time>2015-12-13T10:14:00Z</time>
      </trkpt>
      <trkpt lat="45.49543" lon="6.65888">
        <ele>2385.65</ele>
        <time>2015-12-13T10:14:12Z</time>
      </trkpt>
      <trkpt lat="45.49542" lon="6.65897">
        <ele>2388.05</ele>
        <time>2015-12-13T10:14:23Z</time>
      </trkpt>
      <trkpt lat="45.4954" lon="6.6591">
        <ele>2391.9</ele>
        <time>2015-12-13T10:14:39Z</time>
      </trkpt>
      <trkpt lat="45.49545" lon="6.65922">
        <ele>2392.86</ele>
        <time>2015-12-13T10:14:51Z</time>
      </trkpt>
      <trkpt lat="45.49552" lon="6.65935">
        <ele>2395.26</ele>
        <time>2015-12-13T10:15:06Z</time>
      </trkpt>
      <trkpt lat="45.49553" lon="6.65946">
        <ele>2397.67</ele>
        <time>2015-12-13T10:15:18Z</time>
      </trkpt>
      <trkpt lat="45.49552" lon="6.65964">
        <ele>2399.59</ele>
        <time>2015-12-13T10:15:32Z</time>
      </trkpt>
      <trkpt lat="45.49553" lon="6.65981">
        <ele>2402.47</ele>
        <time>2015-12-13T10:15:47Z</time>
      </trkpt>
      <trkpt lat="45.4955" lon="6.65993">
        <ele>2404.88</ele>
        <time>2015-12-13T10:16:00Z</time>
      </trkpt>
      <trkpt lat="45.49552" lon="6.65996">
        <ele>2407.28</ele>
        <time>2015-12-13T10:16:12Z</time>
      </trkpt>
      <trkpt lat="45.49558" lon="6.66001">
        <ele>2410.64</ele>
        <time>2015-12-13T10:16:25Z</time>
      </trkpt>
      <trkpt lat="45.49562" lon="6.66004">
        <ele>2413.05</ele>
        <time>2015-12-13T10:16:39Z</time>
      </trkpt>
      <trkpt lat="45.49558" lon="6.66017">
        <ele>2414.97</ele>
        <time>2015-12-13T10:16:52Z</time>
      </trkpt>
      <trkpt lat="45.49552" lon="6.66024">
        <ele>2416.41</ele>
        <time>2015-12-13T10:17:04Z</time>
      </trkpt>
      <trkpt lat="45.49548" lon="6.66029">
        <ele>2417.85</ele>
        <time>2015-12-13T10:17:18Z</time>
      </trkpt>
      <trkpt lat="45.49551" lon="6.6603">
        <ele>2418.81</ele>
        <time>2015-12-13T10:17:23Z</time>
      </trkpt>
      <trkpt lat="45.49557" lon="6.66031">
        <ele>2419.78</ele>
        <time>2015-12-13T10:17:31Z</time>
      </trkpt>
      <trkpt lat="45.49564" lon="6.66033">
        <ele>2421.22</ele>
        <time>2015-12-13T10:17:45Z</time>
      </trkpt>
      <trkpt lat="45.49557" lon="6.66041">
        <ele>2423.14</ele>
        <time>2015-12-13T10:17:58Z</time>
      </trkpt>
      <trkpt lat="45.49548" lon="6.66049">
        <ele>2425.54</ele>
        <time>2015-12-13T10:18:14Z</time>
      </trkpt>
      <trkpt lat="45.49547" lon="6.66054">
        <ele>2427.47</ele>
        <time>2015-12-13T10:18:21Z</time>
      </trkpt>
      <trkpt lat="45.49548" lon="6.66061">
        <ele>2430.35</ele>
        <time>2015-12-13T10:18:36Z</time>
      </trkpt>
      <trkpt lat="45.49537" lon="6.6607">
        <ele>2434.2</ele>
        <time>2015-12-13T10:18:52Z</time>
      </trkpt>
      <trkpt lat="45.49536" lon="6.66071">
        <ele>2434.2</ele>
        <time>2015-12-13T10:18:53Z</time>
      </trkpt>
      <trkpt lat="45.4953" lon="6.66072">
        <ele>2436.6</ele>
        <time>2015-12-13T10:19:04Z</time>
      </trkpt>
      <trkpt lat="45.49522" lon="6.66073">
        <ele>2439</ele>
        <time>2015-12-13T10:19:17Z</time>
      </trkpt>
      <trkpt lat="45.49515" lon="6.6607">
        <ele>2440.92</ele>
        <time>2015-12-13T10:19:28Z</time>
      </trkpt>
      <trkpt lat="45.49504" lon="6.66066">
        <ele>2442.85</ele>
        <time>2015-12-13T10:19:42Z</time>
      </trkpt>
      <trkpt lat="45.49503" lon="6.66065">
        <ele>2442.85</ele>
        <time>2015-12-13T10:19:43Z</time>
      </trkpt>
      <trkpt lat="45.49496" lon="6.66063">
        <ele>2444.77</ele>
        <time>2015-12-13T10:19:57Z</time>
      </trkpt>
      <trkpt lat="45.49499" lon="6.66067">
        <ele>2445.73</ele>
        <time>2015-12-13T10:20:08Z</time>
      </trkpt>
      <trkpt lat="45.49501" lon="6.66069">
        <ele>2447.17</ele>
        <time>2015-12-13T10:20:23Z</time>
      </trkpt>
      <trkpt lat="45.49498" lon="6.66071">
        <ele>2448.13</ele>
        <time>2015-12-13T10:20:38Z</time>
      </trkpt>
      <trkpt lat="45.49492" lon="6.66072">
        <ele>2449.58</ele>
        <time>2015-12-13T10:20:46Z</time>
      </trkpt>
      <trkpt lat="45.49484" lon="6.66072">
        <ele>2451.98</ele>
        <time>2015-12-13T10:20:58Z</time>
      </trkpt>
      <trkpt lat="45.49482" lon="6.66069">
        <ele>2452.94</ele>
        <time>2015-12-13T10:21:08Z</time>
      </trkpt>
      <trkpt lat="45.49487" lon="6.66074">
        <ele>2454.38</ele>
        <time>2015-12-13T10:21:20Z</time>
      </trkpt>
      <trkpt lat="45.49489" lon="6.66079">
        <ele>2454.86</ele>
        <time>2015-12-13T10:21:25Z</time>
      </trkpt>
      <trkpt lat="45.4949" lon="6.66082">
        <ele>2455.34</ele>
        <time>2015-12-13T10:21:28Z</time>
      </trkpt>
      <trkpt lat="45.49493" lon="6.66086">
        <ele>2457.27</ele>
        <time>2015-12-13T10:21:39Z</time>
      </trkpt>
      <trkpt lat="45.49486" lon="6.66087">
        <ele>2459.19</ele>
        <time>2015-12-13T10:21:49Z</time>
      </trkpt>
      <trkpt lat="45.49474" lon="6.66085">
        <ele>2461.59</ele>
        <time>2015-12-13T10:22:04Z</time>
      </trkpt>
      <trkpt lat="45.49465" lon="6.66086">
        <ele>2463.52</ele>
        <time>2015-12-13T10:22:19Z</time>
      </trkpt>
      <trkpt lat="45.49471" lon="6.66085">
        <ele>2465.44</ele>
        <time>2015-12-13T10:22:31Z</time>
      </trkpt>
      <trkpt lat="45.49469" lon="6.66089">
        <ele>2466.4</ele>
        <time>2015-12-13T10:22:43Z</time>
      </trkpt>
      <trkpt lat="45.49468" lon="6.66089">
        <ele>2467.36</ele>
        <time>2015-12-13T10:22:54Z</time>
      </trkpt>
      <trkpt lat="45.49461" lon="6.6609">
        <ele>2469.28</ele>
        <time>2015-12-13T10:23:06Z</time>
      </trkpt>
      <trkpt lat="45.49464" lon="6.66088">
        <ele>2469.28</ele>
        <time>2015-12-13T10:23:18Z</time>
      </trkpt>
      <trkpt lat="45.49466" lon="6.6609">
        <ele>2470.73</ele>
        <time>2015-12-13T10:23:28Z</time>
      </trkpt>
      <trkpt lat="45.4947" lon="6.66092">
        <ele>2471.69</ele>
        <time>2015-12-13T10:23:40Z</time>
      </trkpt>
      <trkpt lat="45.49464" lon="6.66098">
        <ele>2472.17</ele>
        <time>2015-12-13T10:23:56Z</time>
      </trkpt>
      <trkpt lat="45.49464" lon="6.66097">
        <ele>2472.65</ele>
        <time>2015-12-13T10:24:08Z</time>
      </trkpt>
      <trkpt lat="45.49456" lon="6.66098">
        <ele>2474.57</ele>
        <time>2015-12-13T10:24:20Z</time>
      </trkpt>
      <trkpt lat="45.49453" lon="6.66093">
        <ele>2476.01</ele>
        <time>2015-12-13T10:24:35Z</time>
      </trkpt>
      <trkpt lat="45.49454" lon="6.66097">
        <ele>2477.45</ele>
        <time>2015-12-13T10:24:46Z</time>
      </trkpt>
      <trkpt lat="45.49461" lon="6.66105">
        <ele>2479.86</ele>
        <time>2015-12-13T10:24:58Z</time>
      </trkpt>
      <trkpt lat="45.49462" lon="6.66106">
        <ele>2479.86</ele>
        <time>2015-12-13T10:25:00Z</time>
      </trkpt>
      <trkpt lat="45.49469" lon="6.66117">
        <ele>2483.22</ele>
        <time>2015-12-13T10:25:13Z</time>
      </trkpt>
      <trkpt lat="45.49474" lon="6.6613">
        <ele>2485.63</ele>
        <time>2015-12-13T10:25:24Z</time>
      </trkpt>
      <trkpt lat="45.49476" lon="6.66137">
        <ele>2487.07</ele>
        <time>2015-12-13T10:25:36Z</time>
      </trkpt>
      <trkpt lat="45.49476" lon="6.66137">
        <ele>2487.55</ele>
        <time>2015-12-13T10:25:46Z</time>
      </trkpt>
      <trkpt lat="45.49465" lon="6.66134">
        <ele>2490.43</ele>
        <time>2015-12-13T10:26:01Z</time>
      </trkpt>
      <trkpt lat="45.4946" lon="6.66133">
        <ele>2491.87</ele>
        <time>2015-12-13T10:26:11Z</time>
      </trkpt>
      <trkpt lat="45.49449" lon="6.66128">
        <ele>2492.36</ele>
        <time>2015-12-13T10:26:25Z</time>
      </trkpt>
      <trkpt lat="45.49439" lon="6.66127">
        <ele>2493.8</ele>
        <time>2015-12-13T10:26:35Z</time>
      </trkpt>
      <trkpt lat="45.49432" lon="6.66124">
        <ele>2494.76</ele>
        <time>2015-12-13T10:26:48Z</time>
      </trkpt>
      <trkpt lat="45.4943" lon="6.66124">
        <ele>2495.72</ele>
        <time>2015-12-13T10:26:52Z</time>
      </trkpt>
      <trkpt lat="45.49421" lon="6.66114">
        <ele>2498.12</ele>
        <time>2015-12-13T10:27:08Z</time>
      </trkpt>
      <trkpt lat="45.49413" lon="6.66107">
        <ele>2500.53</ele>
        <time>2015-12-13T10:27:21Z</time>
      </trkpt>
      <trkpt lat="45.49405" lon="6.66099">
        <ele>2503.41</ele>
        <time>2015-12-13T10:27:33Z</time>
      </trkpt>
      <trkpt lat="45.49398" lon="6.66097">
        <ele>2505.81</ele>
        <time>2015-12-13T10:27:42Z</time>
      </trkpt>
      <trkpt lat="45.49395" lon="6.66102">
        <ele>2506.29</ele>
        <time>2015-12-13T10:27:48Z</time>
      </trkpt>
      <trkpt lat="45.49395" lon="6.66113">
        <ele>2507.74</ele>
        <time>2015-12-13T10:27:56Z</time>
      </trkpt>
      <trkpt lat="45.49397" lon="6.66119">
        <ele>2508.22</ele>
        <time>2015-12-13T10:28:01Z</time>
      </trkpt>
      <trkpt lat="45.49401" lon="6.66123">
        <ele>2509.18</ele>
        <time>2015-12-13T10:28:06Z</time>
      </trkpt>
      <trkpt lat="45.49407" lon="6.66125">
        <ele>2510.14</ele>
        <time>2015-12-13T10:28:12Z</time>
      </trkpt>
      <trkpt lat="45.4941" lon="6.66131">
        <ele>2510.62</ele>
        <time>2015-12-13T10:28:17Z</time>
      </trkpt>
      <trkpt lat="45.49412" lon="6.66142">
        <ele>2511.58</ele>
        <time>2015-12-13T10:28:24Z</time>
      </trkpt>
      <trkpt lat="45.49411" lon="6.66148">
        <ele>2512.06</ele>
        <time>2015-12-13T10:28:28Z</time>
      </trkpt>
      <trkpt lat="45.4941" lon="6.66152">
        <ele>2512.06</ele>
        <time>2015-12-13T10:28:30Z</time>
      </trkpt>
      <trkpt lat="45.49404" lon="6.66172">
        <ele>2513.02</ele>
        <time>2015-12-13T10:28:44Z</time>
      </trkpt>
      <trkpt lat="45.49396" lon="6.6619">
        <ele>2514.47</ele>
        <time>2015-12-13T10:28:59Z</time>
      </trkpt>
      <trkpt lat="45.49394" lon="6.66195">
        <ele>2514.47</ele>
        <time>2015-12-13T10:29:11Z</time>
      </trkpt>
      <trkpt lat="45.49393" lon="6.66193">
        <ele>2514.47</ele>
        <time>2015-12-13T10:29:25Z</time>
      </trkpt>
      <trkpt lat="45.49392" lon="6.66194">
        <ele>2514.95</ele>
        <time>2015-12-13T10:29:39Z</time>
      </trkpt>
      <trkpt lat="45.49392" lon="6.66194">
        <ele>2514.95</ele>
        <time>2015-12-13T10:29:53Z</time>
      </trkpt>
      <trkpt lat="45.49393" lon="6.66194">
        <ele>2514.95</ele>
        <time>2015-12-13T10:30:03Z</time>
      </trkpt>
      <trkpt lat="45.49393" lon="6.66193">
        <ele>2514.95</ele>
        <time>2015-12-13T10:30:15Z</time>
      </trkpt>
      <trkpt lat="45.49392" lon="6.66192">
        <ele>2514.95</ele>
        <time>2015-12-13T10:30:27Z</time>
      </trkpt>
      <trkpt lat="45.49392" lon="6.66192">
        <ele>2513.5</ele>
        <time>2015-12-13T10:30:30Z</time>
      </trkpt>
      <trkpt lat="45.49392" lon="6.66192">
        <ele>2516.87</ele>
        <time>2015-12-13T10:30:31Z</time>
      </trkpt>
      <trkpt lat="45.49392" lon="6.66192">
        <ele>2514.95</ele>
        <time>2015-12-13T10:30:32Z</time>
      </trkpt>
      <trkpt lat="45.49393" lon="6.66193">
        <ele>2513.98</ele>
        <time>2015-12-13T10:30:49Z</time>
      </trkpt>
      <trkpt lat="45.49392" lon="6.66191">
        <ele>2513.98</ele>
        <time>2015-12-13T10:31:22Z</time>
      </trkpt>
      <trkpt lat="45.49392" lon="6.66193">
        <ele>2513.98</ele>
        <time>2015-12-13T10:31:34Z</time>
      </trkpt>
      <trkpt lat="45.49393" lon="6.66194">
        <ele>2514.95</ele>
        <time>2015-12-13T10:31:53Z</time>
      </trkpt>
      <trkpt lat="45.49393" lon="6.66194">
        <ele>2514.95</ele>
        <time>2015-12-13T10:32:08Z</time>
      </trkpt>
      <trkpt lat="45.49392" lon="6.66194">
        <ele>2514.95</ele>
        <time>2015-12-13T10:32:23Z</time>
      </trkpt>
      <trkpt lat="45.49392" lon="6.66195">
        <ele>2513.5</ele>
        <time>2015-12-13T10:32:30Z</time>
      </trkpt>
      <trkpt lat="45.49391" lon="6.66199">
        <ele>2513.98</ele>
        <time>2015-12-13T10:32:51Z</time>
      </trkpt>
      <trkpt lat="45.49392" lon="6.66197">
        <ele>2515.43</ele>
        <time>2015-12-13T10:33:03Z</time>
      </trkpt>
      <trkpt lat="45.49392" lon="6.66193">
        <ele>2513.98</ele>
        <time>2015-12-13T10:33:11Z</time>
      </trkpt>
      <trkpt lat="45.49391" lon="6.66196">
        <ele>2513.98</ele>
        <time>2015-12-13T10:33:28Z</time>
      </trkpt>
      <trkpt lat="45.49391" lon="6.66195">
        <ele>2513.02</ele>
        <time>2015-12-13T10:33:54Z</time>
      </trkpt>
      <trkpt lat="45.49391" lon="6.66195">
        <ele>2514.47</ele>
        <time>2015-12-13T10:33:58Z</time>
      </trkpt>
      <trkpt lat="45.49392" lon="6.66194">
        <ele>2515.43</ele>
        <time>2015-12-13T10:34:04Z</time>
      </trkpt>
      <trkpt lat="45.49392" lon="6.66194">
        <ele>2513.98</ele>
        <time>2015-12-13T10:34:13Z</time>
      </trkpt>
      <trkpt lat="45.49392" lon="6.66195">
        <ele>2513.98</ele>
        <time>2015-12-13T10:34:39Z</time>
      </trkpt>
      <trkpt lat="45.49391" lon="6.66195">
        <ele>2513.5</ele>
        <time>2015-12-13T10:34:50Z</time>
      </trkpt>
      <trkpt lat="45.4939" lon="6.66196">
        <ele>2514.95</ele>
        <time>2015-12-13T10:34:53Z</time>
      </trkpt>
      <trkpt lat="45.49391" lon="6.66197">
        <ele>2513.02</ele>
        <time>2015-12-13T10:35:11Z</time>
      </trkpt>
      <trkpt lat="45.49391" lon="6.66197">
        <ele>2513.98</ele>
        <time>2015-12-13T10:35:13Z</time>
      </trkpt>
      <trkpt lat="45.49392" lon="6.66196">
        <ele>2509.66</ele>
        <time>2015-12-13T10:35:37Z</time>
      </trkpt>
      <trkpt lat="45.49391" lon="6.66196">
        <ele>2513.5</ele>
        <time>2015-12-13T10:35:38Z</time>
      </trkpt>
      <trkpt lat="45.49391" lon="6.66196">
        <ele>2513.5</ele>
        <time>2015-12-13T10:35:39Z</time>
      </trkpt>
      <trkpt lat="45.49392" lon="6.66197">
        <ele>2518.79</ele>
        <time>2015-12-13T10:35:41Z</time>
      </trkpt>
      <trkpt lat="45.49392" lon="6.66198">
        <ele>2513.5</ele>
        <time>2015-12-13T10:35:42Z</time>
      </trkpt>
      <trkpt lat="45.49392" lon="6.66198">
        <ele>2523.12</ele>
        <time>2015-12-13T10:35:45Z</time>
      </trkpt>
      <trkpt lat="45.49392" lon="6.66198">
        <ele>2513.02</ele>
        <time>2015-12-13T10:35:46Z</time>
      </trkpt>
      <trkpt lat="45.49392" lon="6.66198">
        <ele>2517.35</ele>
        <time>2015-12-13T10:35:47Z</time>
      </trkpt>
      <trkpt lat="45.49392" lon="6.66198">
        <ele>2507.26</ele>
        <time>2015-12-13T10:35:48Z</time>
      </trkpt>
      <trkpt lat="45.49392" lon="6.66197">
        <ele>2516.87</ele>
        <time>2015-12-13T10:35:49Z</time>
      </trkpt>
      <trkpt lat="45.49392" lon="6.66197">
        <ele>2511.1</ele>
        <time>2015-12-13T10:35:50Z</time>
      </trkpt>
      <trkpt lat="45.49392" lon="6.66196">
        <ele>2514.47</ele>
        <time>2015-12-13T10:35:51Z</time>
      </trkpt>
      <trkpt lat="45.49392" lon="6.66195">
        <ele>2523.6</ele>
        <time>2015-12-13T10:35:52Z</time>
      </trkpt>
      <trkpt lat="45.49392" lon="6.66194">
        <ele>2514.47</ele>
        <time>2015-12-13T10:35:53Z</time>
      </trkpt>
      <trkpt lat="45.49393" lon="6.66194">
        <ele>2514.47</ele>
        <time>2015-12-13T10:36:12Z</time>
      </trkpt>
      <trkpt lat="45.49393" lon="6.66205">
        <ele>2513.02</ele>
        <time>2015-12-13T10:36:23Z</time>
      </trkpt>
      <trkpt lat="45.49393" lon="6.66204">
        <ele>2512.54</ele>
        <time>2015-12-13T10:36:38Z</time>
      </trkpt>
      <trkpt lat="45.49393" lon="6.66205">
        <ele>2512.54</ele>
        <time>2015-12-13T10:37:02Z</time>
      </trkpt>
      <trkpt lat="45.49393" lon="6.66203">
        <ele>2512.54</ele>
        <time>2015-12-13T10:37:29Z</time>
      </trkpt>
      <trkpt lat="45.49393" lon="6.66204">
        <ele>2512.54</ele>
        <time>2015-12-13T10:37:50Z</time>
      </trkpt>
      <trkpt lat="45.49393" lon="6.66204">
        <ele>2512.54</ele>
        <time>2015-12-13T10:37:52Z</time>
      </trkpt>
      <trkpt lat="45.49396" lon="6.66205">
        <ele>2513.5</ele>
        <time>2015-12-13T10:37:54Z</time>
      </trkpt>
      <trkpt lat="45.49397" lon="6.66205">
        <ele>2509.66</ele>
        <time>2015-12-13T10:37:55Z</time>
      </trkpt>
      <trkpt lat="45.49399" lon="6.66205">
        <ele>2506.29</ele>
        <time>2015-12-13T10:37:58Z</time>
      </trkpt>
      <trkpt lat="45.49401" lon="6.66205">
        <ele>2508.22</ele>
        <time>2015-12-13T10:37:59Z</time>
      </trkpt>
      <trkpt lat="45.49403" lon="6.66207">
        <ele>2506.29</ele>
        <time>2015-12-13T10:38:00Z</time>
      </trkpt>
      <trkpt lat="45.49403" lon="6.66208">
        <ele>2505.81</ele>
        <time>2015-12-13T10:38:11Z</time>
      </trkpt>
      <trkpt lat="45.49403" lon="6.66208">
        <ele>2505.81</ele>
        <time>2015-12-13T10:38:15Z</time>
      </trkpt>
      <trkpt lat="45.4941" lon="6.66206">
        <ele>2502.45</ele>
        <time>2015-12-13T10:38:20Z</time>
      </trkpt>
      <trkpt lat="45.49414" lon="6.66208">
        <ele>2500.05</ele>
        <time>2015-12-13T10:38:23Z</time>
      </trkpt>
      <trkpt lat="45.49413" lon="6.66208">
        <ele>2498.12</ele>
        <time>2015-12-13T10:38:33Z</time>
      </trkpt>
      <trkpt lat="45.49419" lon="6.66205">
        <ele>2495.72</ele>
        <time>2015-12-13T10:38:38Z</time>
      </trkpt>
      <trkpt lat="45.49423" lon="6.66202">
        <ele>2493.32</ele>
        <time>2015-12-13T10:38:41Z</time>
      </trkpt>
      <trkpt lat="45.49428" lon="6.66205">
        <ele>2491.39</ele>
        <time>2015-12-13T10:38:43Z</time>
      </trkpt>
      <trkpt lat="45.4943" lon="6.66206">
        <ele>2487.55</ele>
        <time>2015-12-13T10:38:44Z</time>
      </trkpt>
      <trkpt lat="45.49436" lon="6.66202">
        <ele>2483.22</ele>
        <time>2015-12-13T10:38:46Z</time>
      </trkpt>
      <trkpt lat="45.49439" lon="6.66205">
        <ele>2483.22</ele>
        <time>2015-12-13T10:38:47Z</time>
      </trkpt>
      <trkpt lat="45.49442" lon="6.66205">
        <ele>2479.86</ele>
        <time>2015-12-13T10:38:48Z</time>
      </trkpt>
      <trkpt lat="45.49446" lon="6.66203">
        <ele>2472.17</ele>
        <time>2015-12-13T10:38:50Z</time>
      </trkpt>
      <trkpt lat="45.49448" lon="6.66205">
        <ele>2480.82</ele>
        <time>2015-12-13T10:38:51Z</time>
      </trkpt>
      <trkpt lat="45.4945" lon="6.66204">
        <ele>2471.69</ele>
        <time>2015-12-13T10:38:52Z</time>
      </trkpt>
      <trkpt lat="45.49453" lon="6.66206">
        <ele>2467.84</ele>
        <time>2015-12-13T10:38:54Z</time>
      </trkpt>
      <trkpt lat="45.49454" lon="6.66209">
        <ele>2469.76</ele>
        <time>2015-12-13T10:38:55Z</time>
      </trkpt>
      <trkpt lat="45.49455" lon="6.66211">
        <ele>2467.84</ele>
        <time>2015-12-13T10:38:56Z</time>
      </trkpt>
      <trkpt lat="45.49456" lon="6.66214">
        <ele>2470.73</ele>
        <time>2015-12-13T10:38:58Z</time>
      </trkpt>
      <trkpt lat="45.49457" lon="6.66213">
        <ele>2465.44</ele>
        <time>2015-12-13T10:38:59Z</time>
      </trkpt>
      <trkpt lat="45.49457" lon="6.66211">
        <ele>2463.52</ele>
        <time>2015-12-13T10:39:02Z</time>
      </trkpt>
      <trkpt lat="45.49455" lon="6.66202">
        <ele>2462.55</ele>
        <time>2015-12-13T10:39:14Z</time>
      </trkpt>
      <trkpt lat="45.49458" lon="6.66194">
        <ele>2460.15</ele>
        <time>2015-12-13T10:39:19Z</time>
      </trkpt>
      <trkpt lat="45.49459" lon="6.66195">
        <ele>2458.71</ele>
        <time>2015-12-13T10:39:21Z</time>
      </trkpt>
      <trkpt lat="45.49462" lon="6.662">
        <ele>2457.75</ele>
        <time>2015-12-13T10:39:24Z</time>
      </trkpt>
      <trkpt lat="45.49466" lon="6.662">
        <ele>2456.31</ele>
        <time>2015-12-13T10:39:26Z</time>
      </trkpt>
      <trkpt lat="45.4947" lon="6.66203">
        <ele>2453.9</ele>
        <time>2015-12-13T10:39:28Z</time>
      </trkpt>
      <trkpt lat="45.49471" lon="6.66205">
        <ele>2451.98</ele>
        <time>2015-12-13T10:39:29Z</time>
      </trkpt>
      <trkpt lat="45.49474" lon="6.66202">
        <ele>2451.02</ele>
        <time>2015-12-13T10:39:31Z</time>
      </trkpt>
      <trkpt lat="45.49477" lon="6.66199">
        <ele>2447.17</ele>
        <time>2015-12-13T10:39:33Z</time>
      </trkpt>
      <trkpt lat="45.4948" lon="6.662">
        <ele>2443.81</ele>
        <time>2015-12-13T10:39:34Z</time>
      </trkpt>
      <trkpt lat="45.49489" lon="6.66197">
        <ele>2442.37</ele>
        <time>2015-12-13T10:39:37Z</time>
      </trkpt>
      <trkpt lat="45.49492" lon="6.66198">
        <ele>2438.04</ele>
        <time>2015-12-13T10:39:38Z</time>
      </trkpt>
      <trkpt lat="45.49493" lon="6.662">
        <ele>2438.04</ele>
        <time>2015-12-13T10:39:39Z</time>
      </trkpt>
      <trkpt lat="45.49494" lon="6.66203">
        <ele>2437.56</ele>
        <time>2015-12-13T10:39:41Z</time>
      </trkpt>
      <trkpt lat="45.495" lon="6.66198">
        <ele>2432.27</ele>
        <time>2015-12-13T10:39:44Z</time>
      </trkpt>
      <trkpt lat="45.49502" lon="6.66199">
        <ele>2429.39</ele>
        <time>2015-12-13T10:39:45Z</time>
      </trkpt>
      <trkpt lat="45.495" lon="6.66201">
        <ele>2428.43</ele>
        <time>2015-12-13T10:39:53Z</time>
      </trkpt>
      <trkpt lat="45.49509" lon="6.66196">
        <ele>2425.06</ele>
        <time>2015-12-13T10:39:57Z</time>
      </trkpt>
      <trkpt lat="45.49508" lon="6.66202">
        <ele>2422.66</ele>
        <time>2015-12-13T10:40:00Z</time>
      </trkpt>
      <trkpt lat="45.49512" lon="6.662">
        <ele>2421.7</ele>
        <time>2015-12-13T10:40:02Z</time>
      </trkpt>
      <trkpt lat="45.49514" lon="6.66201">
        <ele>2417.85</ele>
        <time>2015-12-13T10:40:03Z</time>
      </trkpt>
      <trkpt lat="45.49516" lon="6.66206">
        <ele>2422.18</ele>
        <time>2015-12-13T10:40:05Z</time>
      </trkpt>
      <trkpt lat="45.49518" lon="6.66205">
        <ele>2415.93</ele>
        <time>2015-12-13T10:40:06Z</time>
      </trkpt>
      <trkpt lat="45.49521" lon="6.66202">
        <ele>2413.05</ele>
        <time>2015-12-13T10:40:07Z</time>
      </trkpt>
      <trkpt lat="45.49523" lon="6.66201">
        <ele>2414.49</ele>
        <time>2015-12-13T10:40:08Z</time>
      </trkpt>
      <trkpt lat="45.49526" lon="6.66205">
        <ele>2410.64</ele>
        <time>2015-12-13T10:40:09Z</time>
      </trkpt>
      <trkpt lat="45.49528" lon="6.66206">
        <ele>2410.64</ele>
        <time>2015-12-13T10:40:10Z</time>
      </trkpt>
      <trkpt lat="45.49533" lon="6.662">
        <ele>2405.84</ele>
        <time>2015-12-13T10:40:12Z</time>
      </trkpt>
      <trkpt lat="45.49539" lon="6.66202">
        <ele>2404.39</ele>
        <time>2015-12-13T10:40:14Z</time>
      </trkpt>
      <trkpt lat="45.49543" lon="6.66203">
        <ele>2400.07</ele>
        <time>2015-12-13T10:40:15Z</time>
      </trkpt>
      <trkpt lat="45.49547" lon="6.66204">
        <ele>2396.22</ele>
        <time>2015-12-13T10:40:17Z</time>
      </trkpt>
      <trkpt lat="45.49544" lon="6.662">
        <ele>2398.63</ele>
        <time>2015-12-13T10:40:25Z</time>
      </trkpt>
      <trkpt lat="45.49543" lon="6.662">
        <ele>2396.7</ele>
        <time>2015-12-13T10:40:27Z</time>
      </trkpt>
      <trkpt lat="45.49539" lon="6.66204">
        <ele>2396.7</ele>
        <time>2015-12-13T10:40:56Z</time>
      </trkpt>
      <trkpt lat="45.49543" lon="6.66204">
        <ele>2396.22</ele>
        <time>2015-12-13T10:41:17Z</time>
      </trkpt>
      <trkpt lat="45.49543" lon="6.66205">
        <ele>2398.15</ele>
        <time>2015-12-13T10:41:21Z</time>
      </trkpt>
      <trkpt lat="45.49543" lon="6.66205">
        <ele>2397.67</ele>
        <time>2015-12-13T10:41:24Z</time>
      </trkpt>
      <trkpt lat="45.49543" lon="6.66211">
        <ele>2396.7</ele>
        <time>2015-12-13T10:41:27Z</time>
      </trkpt>
      <trkpt lat="45.49545" lon="6.66221">
        <ele>2394.3</ele>
        <time>2015-12-13T10:41:30Z</time>
      </trkpt>
      <trkpt lat="45.49551" lon="6.66219">
        <ele>2390.94</ele>
        <time>2015-12-13T10:41:32Z</time>
      </trkpt>
      <trkpt lat="45.49558" lon="6.66217">
        <ele>2389.01</ele>
        <time>2015-12-13T10:41:34Z</time>
      </trkpt>
      <trkpt lat="45.49568" lon="6.66221">
        <ele>2379.4</ele>
        <time>2015-12-13T10:41:37Z</time>
      </trkpt>
      <trkpt lat="45.49573" lon="6.66223">
        <ele>2380.84</ele>
        <time>2015-12-13T10:41:38Z</time>
      </trkpt>
      <trkpt lat="45.49577" lon="6.66222">
        <ele>2377.48</ele>
        <time>2015-12-13T10:41:39Z</time>
      </trkpt>
      <trkpt lat="45.49587" lon="6.66223">
        <ele>2373.15</ele>
        <time>2015-12-13T10:41:42Z</time>
      </trkpt>
      <trkpt lat="45.4959" lon="6.66224">
        <ele>2368.83</ele>
        <time>2015-12-13T10:41:43Z</time>
      </trkpt>
      <trkpt lat="45.49593" lon="6.66225">
        <ele>2370.27</ele>
        <time>2015-12-13T10:41:44Z</time>
      </trkpt>
      <trkpt lat="45.49598" lon="6.66221">
        <ele>2366.42</ele>
        <time>2015-12-13T10:41:46Z</time>
      </trkpt>
      <trkpt lat="45.49604" lon="6.66225">
        <ele>2363.54</ele>
        <time>2015-12-13T10:41:49Z</time>
      </trkpt>
      <trkpt lat="45.496" lon="6.66229">
        <ele>2363.06</ele>
        <time>2015-12-13T10:41:56Z</time>
      </trkpt>
      <trkpt lat="45.49598" lon="6.6623">
        <ele>2363.06</ele>
        <time>2015-12-13T10:42:01Z</time>
      </trkpt>
      <trkpt lat="45.49607" lon="6.66229">
        <ele>2359.21</ele>
        <time>2015-12-13T10:42:05Z</time>
      </trkpt>
      <trkpt lat="45.49612" lon="6.66235">
        <ele>2356.81</ele>
        <time>2015-12-13T10:42:08Z</time>
      </trkpt>
      <trkpt lat="45.49611" lon="6.66238">
        <ele>2356.81</ele>
        <time>2015-12-13T10:42:09Z</time>
      </trkpt>
      <trkpt lat="45.49609" lon="6.6625">
        <ele>2355.37</ele>
        <time>2015-12-13T10:42:13Z</time>
      </trkpt>
      <trkpt lat="45.49609" lon="6.66255">
        <ele>2353.93</ele>
        <time>2015-12-13T10:42:14Z</time>
      </trkpt>
      <trkpt lat="45.49609" lon="6.66262">
        <ele>2352</ele>
        <time>2015-12-13T10:42:15Z</time>
      </trkpt>
      <trkpt lat="45.49608" lon="6.66268">
        <ele>2351.52</ele>
        <time>2015-12-13T10:42:16Z</time>
      </trkpt>
      <trkpt lat="45.49605" lon="6.66273">
        <ele>2349.6</ele>
        <time>2015-12-13T10:42:17Z</time>
      </trkpt>
      <trkpt lat="45.49603" lon="6.66277">
        <ele>2349.6</ele>
        <time>2015-12-13T10:42:18Z</time>
      </trkpt>
      <trkpt lat="45.49602" lon="6.66281">
        <ele>2349.6</ele>
        <time>2015-12-13T10:42:19Z</time>
      </trkpt>
      <trkpt lat="45.49597" lon="6.66305">
        <ele>2346.72</ele>
        <time>2015-12-13T10:42:26Z</time>
      </trkpt>
      <trkpt lat="45.49597" lon="6.66306">
        <ele>2346.72</ele>
        <time>2015-12-13T10:42:27Z</time>
      </trkpt>
      <trkpt lat="45.49595" lon="6.66305">
        <ele>2347.2</ele>
        <time>2015-12-13T10:42:33Z</time>
      </trkpt>
      <trkpt lat="45.49595" lon="6.66308">
        <ele>2346.72</ele>
        <time>2015-12-13T10:42:48Z</time>
      </trkpt>
      <trkpt lat="45.49599" lon="6.6632">
        <ele>2344.31</ele>
        <time>2015-12-13T10:42:50Z</time>
      </trkpt>
      <trkpt lat="45.49599" lon="6.66326">
        <ele>2342.39</ele>
        <time>2015-12-13T10:42:51Z</time>
      </trkpt>
      <trkpt lat="45.49596" lon="6.66336">
        <ele>2340.95</ele>
        <time>2015-12-13T10:42:53Z</time>
      </trkpt>
      <trkpt lat="45.49595" lon="6.6634">
        <ele>2340.47</ele>
        <time>2015-12-13T10:42:54Z</time>
      </trkpt>
      <trkpt lat="45.49594" lon="6.66344">
        <ele>2339.51</ele>
        <time>2015-12-13T10:42:55Z</time>
      </trkpt>
      <trkpt lat="45.49594" lon="6.6635">
        <ele>2339.51</ele>
        <time>2015-12-13T10:42:56Z</time>
      </trkpt>
      <trkpt lat="45.49596" lon="6.66353">
        <ele>2338.06</ele>
        <time>2015-12-13T10:42:57Z</time>
      </trkpt>
      <trkpt lat="45.49603" lon="6.66358">
        <ele>2335.66</ele>
        <time>2015-12-13T10:42:59Z</time>
      </trkpt>
      <trkpt lat="45.49607" lon="6.66363">
        <ele>2334.7</ele>
        <time>2015-12-13T10:43:00Z</time>
      </trkpt>
      <trkpt lat="45.4961" lon="6.66369">
        <ele>2333.26</ele>
        <time>2015-12-13T10:43:01Z</time>
      </trkpt>
      <trkpt lat="45.49611" lon="6.66376">
        <ele>2330.85</ele>
        <time>2015-12-13T10:43:02Z</time>
      </trkpt>
      <trkpt lat="45.4961" lon="6.66384">
        <ele>2329.89</ele>
        <time>2015-12-13T10:43:03Z</time>
      </trkpt>
      <trkpt lat="45.49611" lon="6.6639">
        <ele>2329.89</ele>
        <time>2015-12-13T10:43:04Z</time>
      </trkpt>
      <trkpt lat="45.49614" lon="6.66397">
        <ele>2328.45</ele>
        <time>2015-12-13T10:43:05Z</time>
      </trkpt>
      <trkpt lat="45.49615" lon="6.66405">
        <ele>2325.57</ele>
        <time>2015-12-13T10:43:06Z</time>
      </trkpt>
      <trkpt lat="45.49618" lon="6.66411">
        <ele>2325.57</ele>
        <time>2015-12-13T10:43:07Z</time>
      </trkpt>
      <trkpt lat="45.49622" lon="6.66416">
        <ele>2325.57</ele>
        <time>2015-12-13T10:43:08Z</time>
      </trkpt>
      <trkpt lat="45.49627" lon="6.66421">
        <ele>2323.16</ele>
        <time>2015-12-13T10:43:09Z</time>
      </trkpt>
      <trkpt lat="45.49632" lon="6.66428">
        <ele>2321.24</ele>
        <time>2015-12-13T10:43:10Z</time>
      </trkpt>
      <trkpt lat="45.49645" lon="6.66446">
        <ele>2317.4</ele>
        <time>2015-12-13T10:43:13Z</time>
      </trkpt>
      <trkpt lat="45.49649" lon="6.66454">
        <ele>2317.4</ele>
        <time>2015-12-13T10:43:14Z</time>
      </trkpt>
      <trkpt lat="45.49654" lon="6.66461">
        <ele>2314.03</ele>
        <time>2015-12-13T10:43:15Z</time>
      </trkpt>
      <trkpt lat="45.49657" lon="6.66466">
        <ele>2314.51</ele>
        <time>2015-12-13T10:43:16Z</time>
      </trkpt>
      <trkpt lat="45.49666" lon="6.66486">
        <ele>2309.22</ele>
        <time>2015-12-13T10:43:19Z</time>
      </trkpt>
      <trkpt lat="45.49674" lon="6.66501">
        <ele>2305.86</ele>
        <time>2015-12-13T10:43:21Z</time>
      </trkpt>
      <trkpt lat="45.49674" lon="6.66507">
        <ele>2305.86</ele>
        <time>2015-12-13T10:43:22Z</time>
      </trkpt>
      <trkpt lat="45.49671" lon="6.66508">
        <ele>2305.86</ele>
        <time>2015-12-13T10:43:29Z</time>
      </trkpt>
      <trkpt lat="45.4967" lon="6.66509">
        <ele>2305.86</ele>
        <time>2015-12-13T10:43:32Z</time>
      </trkpt>
      <trkpt lat="45.49677" lon="6.66525">
        <ele>2303.46</ele>
        <time>2015-12-13T10:43:36Z</time>
      </trkpt>
      <trkpt lat="45.49674" lon="6.66553">
        <ele>2297.21</ele>
        <time>2015-12-13T10:43:40Z</time>
      </trkpt>
      <trkpt lat="45.49677" lon="6.66577">
        <ele>2292.4</ele>
        <time>2015-12-13T10:43:43Z</time>
      </trkpt>
      <trkpt lat="45.4968" lon="6.66583">
        <ele>2291.92</ele>
        <time>2015-12-13T10:43:48Z</time>
      </trkpt>
      <trkpt lat="45.49679" lon="6.66583">
        <ele>2290.96</ele>
        <time>2015-12-13T10:43:50Z</time>
      </trkpt>
      <trkpt lat="45.4967" lon="6.66594">
        <ele>2286.15</ele>
        <time>2015-12-13T10:43:56Z</time>
      </trkpt>
      <trkpt lat="45.49676" lon="6.66601">
        <ele>2282.79</ele>
        <time>2015-12-13T10:43:59Z</time>
      </trkpt>
      <trkpt lat="45.4968" lon="6.66609">
        <ele>2281.35</ele>
        <time>2015-12-13T10:44:01Z</time>
      </trkpt>
      <trkpt lat="45.4968" lon="6.66614">
        <ele>2279.42</ele>
        <time>2015-12-13T10:44:02Z</time>
      </trkpt>
      <trkpt lat="45.49678" lon="6.66618">
        <ele>2279.42</ele>
        <time>2015-12-13T10:44:03Z</time>
      </trkpt>
      <trkpt lat="45.49675" lon="6.66623">
        <ele>2278.46</ele>
        <time>2015-12-13T10:44:04Z</time>
      </trkpt>
      <trkpt lat="45.49673" lon="6.66626">
        <ele>2277.98</ele>
        <time>2015-12-13T10:44:05Z</time>
      </trkpt>
      <trkpt lat="45.49671" lon="6.6663">
        <ele>2277.98</ele>
        <time>2015-12-13T10:44:06Z</time>
      </trkpt>
      <trkpt lat="45.4967" lon="6.66632">
        <ele>2277.02</ele>
        <time>2015-12-13T10:44:07Z</time>
      </trkpt>
      <trkpt lat="45.49669" lon="6.66635">
        <ele>2277.02</ele>
        <time>2015-12-13T10:44:09Z</time>
      </trkpt>
      <trkpt lat="45.4967" lon="6.66638">
        <ele>2272.69</ele>
        <time>2015-12-13T10:44:10Z</time>
      </trkpt>
      <trkpt lat="45.4967" lon="6.66645">
        <ele>2277.02</ele>
        <time>2015-12-13T10:44:11Z</time>
      </trkpt>
      <trkpt lat="45.49669" lon="6.6665">
        <ele>2272.69</ele>
        <time>2015-12-13T10:44:12Z</time>
      </trkpt>
      <trkpt lat="45.49667" lon="6.66652">
        <ele>2272.21</ele>
        <time>2015-12-13T10:44:14Z</time>
      </trkpt>
      <trkpt lat="45.49667" lon="6.66654">
        <ele>2271.25</ele>
        <time>2015-12-13T10:44:17Z</time>
      </trkpt>
      <trkpt lat="45.49668" lon="6.66659">
        <ele>2268.37</ele>
        <time>2015-12-13T10:44:18Z</time>
      </trkpt>
      <trkpt lat="45.49673" lon="6.66665">
        <ele>2266.93</ele>
        <time>2015-12-13T10:44:20Z</time>
      </trkpt>
      <trkpt lat="45.49679" lon="6.66672">
        <ele>2267.41</ele>
        <time>2015-12-13T10:44:22Z</time>
      </trkpt>
      <trkpt lat="45.49684" lon="6.66675">
        <ele>2258.27</ele>
        <time>2015-12-13T10:44:24Z</time>
      </trkpt>
      <trkpt lat="45.49685" lon="6.66677">
        <ele>2260.2</ele>
        <time>2015-12-13T10:44:25Z</time>
      </trkpt>
      <trkpt lat="45.49686" lon="6.66681">
        <ele>2255.39</ele>
        <time>2015-12-13T10:44:26Z</time>
      </trkpt>
      <trkpt lat="45.49686" lon="6.66685">
        <ele>2255.39</ele>
        <time>2015-12-13T10:44:27Z</time>
      </trkpt>
      <trkpt lat="45.49693" lon="6.66686">
        <ele>2250.58</ele>
        <time>2015-12-13T10:44:30Z</time>
      </trkpt>
      <trkpt lat="45.49693" lon="6.66692">
        <ele>2248.66</ele>
        <time>2015-12-13T10:44:37Z</time>
      </trkpt>
      <trkpt lat="45.49689" lon="6.66688">
        <ele>2250.1</ele>
        <time>2015-12-13T10:44:52Z</time>
      </trkpt>
      <trkpt lat="45.49689" lon="6.66692">
        <ele>2247.7</ele>
        <time>2015-12-13T10:44:55Z</time>
      </trkpt>
      <trkpt lat="45.49689" lon="6.66692">
        <ele>2248.66</ele>
        <time>2015-12-13T10:44:57Z</time>
      </trkpt>
      <trkpt lat="45.49689" lon="6.66693">
        <ele>2248.66</ele>
        <time>2015-12-13T10:44:58Z</time>
      </trkpt>
      <trkpt lat="45.4969" lon="6.66697">
        <ele>2249.14</ele>
        <time>2015-12-13T10:45:00Z</time>
      </trkpt>
      <trkpt lat="45.49692" lon="6.66699">
        <ele>2244.33</ele>
        <time>2015-12-13T10:45:01Z</time>
      </trkpt>
      <trkpt lat="45.49695" lon="6.667">
        <ele>2243.37</ele>
        <time>2015-12-13T10:45:02Z</time>
      </trkpt>
      <trkpt lat="45.49696" lon="6.66706">
        <ele>2239.53</ele>
        <time>2015-12-13T10:45:05Z</time>
      </trkpt>
      <trkpt lat="45.49695" lon="6.66712">
        <ele>2237.61</ele>
        <time>2015-12-13T10:45:08Z</time>
      </trkpt>
      <trkpt lat="45.49696" lon="6.66713">
        <ele>2238.57</ele>
        <time>2015-12-13T10:45:13Z</time>
      </trkpt>
      <trkpt lat="45.49699" lon="6.6672">
        <ele>2236.16</ele>
        <time>2015-12-13T10:45:17Z</time>
      </trkpt>
      <trkpt lat="45.49699" lon="6.66739">
        <ele>2229.43</ele>
        <time>2015-12-13T10:45:22Z</time>
      </trkpt>
      <trkpt lat="45.49703" lon="6.66746">
        <ele>2228.47</ele>
        <time>2015-12-13T10:45:24Z</time>
      </trkpt>
      <trkpt lat="45.4971" lon="6.66747">
        <ele>2225.11</ele>
        <time>2015-12-13T10:45:26Z</time>
      </trkpt>
      <trkpt lat="45.49713" lon="6.6675">
        <ele>2221.26</ele>
        <time>2015-12-13T10:45:27Z</time>
      </trkpt>
      <trkpt lat="45.49714" lon="6.66754">
        <ele>2226.07</ele>
        <time>2015-12-13T10:45:28Z</time>
      </trkpt>
      <trkpt lat="45.49717" lon="6.66755">
        <ele>2219.82</ele>
        <time>2015-12-13T10:45:29Z</time>
      </trkpt>
      <trkpt lat="45.49725" lon="6.66756">
        <ele>2216.94</ele>
        <time>2015-12-13T10:45:31Z</time>
      </trkpt>
      <trkpt lat="45.4973" lon="6.66757">
        <ele>2212.61</ele>
        <time>2015-12-13T10:45:32Z</time>
      </trkpt>
      <trkpt lat="45.49739" lon="6.6676">
        <ele>2211.65</ele>
        <time>2015-12-13T10:45:34Z</time>
      </trkpt>
      <trkpt lat="45.49742" lon="6.66759">
        <ele>2207.32</ele>
        <time>2015-12-13T10:45:35Z</time>
      </trkpt>
      <trkpt lat="45.49747" lon="6.66751">
        <ele>2203.96</ele>
        <time>2015-12-13T10:45:37Z</time>
      </trkpt>
      <trkpt lat="45.49765" lon="6.66738">
        <ele>2200.11</ele>
        <time>2015-12-13T10:45:42Z</time>
      </trkpt>
      <trkpt lat="45.49775" lon="6.66743">
        <ele>2198.67</ele>
        <time>2015-12-13T10:45:44Z</time>
      </trkpt>
      <trkpt lat="45.49778" lon="6.66748">
        <ele>2195.31</ele>
        <time>2015-12-13T10:45:45Z</time>
      </trkpt>
      <trkpt lat="45.49781" lon="6.66755">
        <ele>2194.35</ele>
        <time>2015-12-13T10:45:46Z</time>
      </trkpt>
      <trkpt lat="45.49786" lon="6.66772">
        <ele>2189.54</ele>
        <time>2015-12-13T10:45:48Z</time>
      </trkpt>
      <trkpt lat="45.49798" lon="6.6678">
        <ele>2189.54</ele>
        <time>2015-12-13T10:45:51Z</time>
      </trkpt>
      <trkpt lat="45.49806" lon="6.66792">
        <ele>2185.21</ele>
        <time>2015-12-13T10:45:53Z</time>
      </trkpt>
      <trkpt lat="45.49811" lon="6.66806">
        <ele>2184.25</ele>
        <time>2015-12-13T10:45:55Z</time>
      </trkpt>
      <trkpt lat="45.49815" lon="6.6682">
        <ele>2183.29</ele>
        <time>2015-12-13T10:45:57Z</time>
      </trkpt>
      <trkpt lat="45.49824" lon="6.66834">
        <ele>2179.93</ele>
        <time>2015-12-13T10:46:00Z</time>
      </trkpt>
      <trkpt lat="45.49832" lon="6.66838">
        <ele>2178.48</ele>
        <time>2015-12-13T10:46:02Z</time>
      </trkpt>
      <trkpt lat="45.49834" lon="6.66841">
        <ele>2177.52</ele>
        <time>2015-12-13T10:46:04Z</time>
      </trkpt>
      <trkpt lat="45.49835" lon="6.66845">
        <ele>2176.08</ele>
        <time>2015-12-13T10:46:08Z</time>
      </trkpt>
      <trkpt lat="45.49837" lon="6.66848">
        <ele>2176.56</ele>
        <time>2015-12-13T10:46:16Z</time>
      </trkpt>
      <trkpt lat="45.49854" lon="6.66866">
        <ele>2172.24</ele>
        <time>2015-12-13T10:46:22Z</time>
      </trkpt>
      <trkpt lat="45.49869" lon="6.66881">
        <ele>2170.79</ele>
        <time>2015-12-13T10:46:25Z</time>
      </trkpt>
      <trkpt lat="45.49881" lon="6.669">
        <ele>2168.87</ele>
        <time>2015-12-13T10:46:28Z</time>
      </trkpt>
      <trkpt lat="45.49902" lon="6.66922">
        <ele>2166.95</ele>
        <time>2015-12-13T10:46:35Z</time>
      </trkpt>
      <trkpt lat="45.49918" lon="6.66937">
        <ele>2160.7</ele>
        <time>2015-12-13T10:46:38Z</time>
      </trkpt>
      <trkpt lat="45.49923" lon="6.66943">
        <ele>2163.1</ele>
        <time>2015-12-13T10:46:39Z</time>
      </trkpt>
      <trkpt lat="45.49935" lon="6.66962">
        <ele>2161.18</ele>
        <time>2015-12-13T10:46:42Z</time>
      </trkpt>
      <trkpt lat="45.49939" lon="6.66968">
        <ele>2160.7</ele>
        <time>2015-12-13T10:46:43Z</time>
      </trkpt>
      <trkpt lat="45.49955" lon="6.67005">
        <ele>2155.89</ele>
        <time>2015-12-13T10:46:49Z</time>
      </trkpt>
      <trkpt lat="45.4997" lon="6.67024">
        <ele>2154.45</ele>
        <time>2015-12-13T10:46:55Z</time>
      </trkpt>
      <trkpt lat="45.49979" lon="6.67034">
        <ele>2151.57</ele>
        <time>2015-12-13T10:46:57Z</time>
      </trkpt>
      <trkpt lat="45.49987" lon="6.67056">
        <ele>2148.2</ele>
        <time>2015-12-13T10:47:01Z</time>
      </trkpt>
      <trkpt lat="45.4999" lon="6.67062">
        <ele>2148.2</ele>
        <time>2015-12-13T10:47:02Z</time>
      </trkpt>
      <trkpt lat="45.4999" lon="6.67087">
        <ele>2146.76</ele>
        <time>2015-12-13T10:47:09Z</time>
      </trkpt>
      <trkpt lat="45.4999" lon="6.67088">
        <ele>2146.76</ele>
        <time>2015-12-13T10:47:23Z</time>
      </trkpt>
      <trkpt lat="45.4999" lon="6.67091">
        <ele>2146.76</ele>
        <time>2015-12-13T10:47:45Z</time>
      </trkpt>
      <trkpt lat="45.49987" lon="6.67102">
        <ele>2143.88</ele>
        <time>2015-12-13T10:47:49Z</time>
      </trkpt>
      <trkpt lat="45.4998" lon="6.67108">
        <ele>2142.44</ele>
        <time>2015-12-13T10:47:52Z</time>
      </trkpt>
      <trkpt lat="45.49979" lon="6.67111">
        <ele>2141.95</ele>
        <time>2015-12-13T10:47:53Z</time>
      </trkpt>
      <trkpt lat="45.49978" lon="6.67127">
        <ele>2140.03</ele>
        <time>2015-12-13T10:47:57Z</time>
      </trkpt>
      <trkpt lat="45.49991" lon="6.67138">
        <ele>2138.11</ele>
        <time>2015-12-13T10:48:02Z</time>
      </trkpt>
      <trkpt lat="45.50014" lon="6.67165">
        <ele>2129.46</ele>
        <time>2015-12-13T10:48:07Z</time>
      </trkpt>
      <trkpt lat="45.50038" lon="6.67187">
        <ele>2123.69</ele>
        <time>2015-12-13T10:48:11Z</time>
      </trkpt>
      <trkpt lat="45.50062" lon="6.67187">
        <ele>2118.4</ele>
        <time>2015-12-13T10:48:14Z</time>
      </trkpt>
      <trkpt lat="45.50066" lon="6.67187">
        <ele>2118.88</ele>
        <time>2015-12-13T10:48:15Z</time>
      </trkpt>
      <trkpt lat="45.50069" lon="6.67186">
        <ele>2118.88</ele>
        <time>2015-12-13T10:48:20Z</time>
      </trkpt>
      <trkpt lat="45.50071" lon="6.67183">
        <ele>2118.4</ele>
        <time>2015-12-13T10:48:21Z</time>
      </trkpt>
      <trkpt lat="45.50073" lon="6.67181">
        <ele>2117.44</ele>
        <time>2015-12-13T10:48:22Z</time>
      </trkpt>
      <trkpt lat="45.50074" lon="6.67179">
        <ele>2117.44</ele>
        <time>2015-12-13T10:48:23Z</time>
      </trkpt>
      <trkpt lat="45.50075" lon="6.67177">
        <ele>2117.44</ele>
        <time>2015-12-13T10:48:24Z</time>
      </trkpt>
      <trkpt lat="45.50075" lon="6.67173">
        <ele>2117.44</ele>
        <time>2015-12-13T10:48:25Z</time>
      </trkpt>
      <trkpt lat="45.50075" lon="6.67169">
        <ele>2116.48</ele>
        <time>2015-12-13T10:48:26Z</time>
      </trkpt>
      <trkpt lat="45.50074" lon="6.67164">
        <ele>2115.52</ele>
        <time>2015-12-13T10:48:27Z</time>
      </trkpt>
      <trkpt lat="45.50072" lon="6.67159">
        <ele>2115.52</ele>
        <time>2015-12-13T10:48:28Z</time>
      </trkpt>
      <trkpt lat="45.50071" lon="6.67153">
        <ele>2114.08</ele>
        <time>2015-12-13T10:48:29Z</time>
      </trkpt>
      <trkpt lat="45.50071" lon="6.67146">
        <ele>2113.12</ele>
        <time>2015-12-13T10:48:30Z</time>
      </trkpt>
      <trkpt lat="45.50071" lon="6.67137">
        <ele>2112.63</ele>
        <time>2015-12-13T10:48:31Z</time>
      </trkpt>
      <trkpt lat="45.50073" lon="6.67129">
        <ele>2111.19</ele>
        <time>2015-12-13T10:48:32Z</time>
      </trkpt>
      <trkpt lat="45.50076" lon="6.67123">
        <ele>2111.19</ele>
        <time>2015-12-13T10:48:33Z</time>
      </trkpt>
      <trkpt lat="45.50078" lon="6.67117">
        <ele>2111.19</ele>
        <time>2015-12-13T10:48:34Z</time>
      </trkpt>
      <trkpt lat="45.50081" lon="6.67111">
        <ele>2110.71</ele>
        <time>2015-12-13T10:48:35Z</time>
      </trkpt>
      <trkpt lat="45.50084" lon="6.67106">
        <ele>2110.23</ele>
        <time>2015-12-13T10:48:36Z</time>
      </trkpt>
      <trkpt lat="45.50092" lon="6.67099">
        <ele>2108.31</ele>
        <time>2015-12-13T10:48:38Z</time>
      </trkpt>
      <trkpt lat="45.50098" lon="6.67113">
        <ele>2104.46</ele>
        <time>2015-12-13T10:48:41Z</time>
      </trkpt>
      <trkpt lat="45.50101" lon="6.67116">
        <ele>2104.46</ele>
        <time>2015-12-13T10:48:42Z</time>
      </trkpt>
      <trkpt lat="45.50102" lon="6.67115">
        <ele>2103.5</ele>
        <time>2015-12-13T10:48:43Z</time>
      </trkpt>
      <trkpt lat="45.50103" lon="6.67114">
        <ele>2103.5</ele>
        <time>2015-12-13T10:48:44Z</time>
      </trkpt>
      <trkpt lat="45.50105" lon="6.67111">
        <ele>2102.06</ele>
        <time>2015-12-13T10:48:46Z</time>
      </trkpt>
      <trkpt lat="45.50109" lon="6.67114">
        <ele>2100.14</ele>
        <time>2015-12-13T10:48:48Z</time>
      </trkpt>
      <trkpt lat="45.50113" lon="6.67115">
        <ele>2099.66</ele>
        <time>2015-12-13T10:48:49Z</time>
      </trkpt>
      <trkpt lat="45.50115" lon="6.67114">
        <ele>2097.73</ele>
        <time>2015-12-13T10:48:50Z</time>
      </trkpt>
      <trkpt lat="45.50116" lon="6.67113">
        <ele>2097.25</ele>
        <time>2015-12-13T10:48:52Z</time>
      </trkpt>
      <trkpt lat="45.50118" lon="6.67113">
        <ele>2096.77</ele>
        <time>2015-12-13T10:48:54Z</time>
      </trkpt>
      <trkpt lat="45.50127" lon="6.67103">
        <ele>2094.37</ele>
        <time>2015-12-13T10:49:02Z</time>
      </trkpt>
      <trkpt lat="45.50134" lon="6.67103">
        <ele>2093.41</ele>
        <time>2015-12-13T10:49:04Z</time>
      </trkpt>
      <trkpt lat="45.50142" lon="6.67102">
        <ele>2088.6</ele>
        <time>2015-12-13T10:49:06Z</time>
      </trkpt>
      <trkpt lat="45.50146" lon="6.67103">
        <ele>2089.56</ele>
        <time>2015-12-13T10:49:07Z</time>
      </trkpt>
      <trkpt lat="45.50152" lon="6.67103">
        <ele>2086.68</ele>
        <time>2015-12-13T10:49:08Z</time>
      </trkpt>
      <trkpt lat="45.50189" lon="6.67109">
        <ele>2080.43</ele>
        <time>2015-12-13T10:49:14Z</time>
      </trkpt>
      <trkpt lat="45.50194" lon="6.6711">
        <ele>2079.47</ele>
        <time>2015-12-13T10:49:15Z</time>
      </trkpt>
      <trkpt lat="45.50215" lon="6.67108">
        <ele>2072.74</ele>
        <time>2015-12-13T10:49:19Z</time>
      </trkpt>
      <trkpt lat="45.50226" lon="6.67109">
        <ele>2070.82</ele>
        <time>2015-12-13T10:49:21Z</time>
      </trkpt>
      <trkpt lat="45.50235" lon="6.67116">
        <ele>2067.93</ele>
        <time>2015-12-13T10:49:23Z</time>
      </trkpt>
      <trkpt lat="45.50239" lon="6.67117">
        <ele>2064.57</ele>
        <time>2015-12-13T10:49:24Z</time>
      </trkpt>
      <trkpt lat="45.50244" lon="6.67117">
        <ele>2063.61</ele>
        <time>2015-12-13T10:49:25Z</time>
      </trkpt>
      <trkpt lat="45.50254" lon="6.67117">
        <ele>2060.72</ele>
        <time>2015-12-13T10:49:27Z</time>
      </trkpt>
      <trkpt lat="45.50257" lon="6.67118">
        <ele>2058.8</ele>
        <time>2015-12-13T10:49:28Z</time>
      </trkpt>
      <trkpt lat="45.50258" lon="6.67122">
        <ele>2056.4</ele>
        <time>2015-12-13T10:49:30Z</time>
      </trkpt>
      <trkpt lat="45.50276" lon="6.67126">
        <ele>2052.07</ele>
        <time>2015-12-13T10:49:37Z</time>
      </trkpt>
      <trkpt lat="45.50291" lon="6.67136">
        <ele>2046.78</ele>
        <time>2015-12-13T10:49:41Z</time>
      </trkpt>
      <trkpt lat="45.50298" lon="6.67147">
        <ele>2042.94</ele>
        <time>2015-12-13T10:49:44Z</time>
      </trkpt>
      <trkpt lat="45.50304" lon="6.67156">
        <ele>2038.13</ele>
        <time>2015-12-13T10:49:46Z</time>
      </trkpt>
      <trkpt lat="45.50309" lon="6.67167">
        <ele>2035.73</ele>
        <time>2015-12-13T10:49:48Z</time>
      </trkpt>
      <trkpt lat="45.50314" lon="6.67177">
        <ele>2032.36</ele>
        <time>2015-12-13T10:49:50Z</time>
      </trkpt>
      <trkpt lat="45.50319" lon="6.67187">
        <ele>2029.48</ele>
        <time>2015-12-13T10:49:52Z</time>
      </trkpt>
      <trkpt lat="45.50321" lon="6.67193">
        <ele>2029.48</ele>
        <time>2015-12-13T10:49:53Z</time>
      </trkpt>
      <trkpt lat="45.50331" lon="6.67207">
        <ele>2026.12</ele>
        <time>2015-12-13T10:49:58Z</time>
      </trkpt>
      <trkpt lat="45.50337" lon="6.67216">
        <ele>2023.23</ele>
        <time>2015-12-13T10:50:02Z</time>
      </trkpt>
      <trkpt lat="45.50337" lon="6.6722">
        <ele>2021.31</ele>
        <time>2015-12-13T10:50:05Z</time>
      </trkpt>
      <trkpt lat="45.50333" lon="6.67224">
        <ele>2019.39</ele>
        <time>2015-12-13T10:50:15Z</time>
      </trkpt>
      <trkpt lat="45.50338" lon="6.67239">
        <ele>2018.43</ele>
        <time>2015-12-13T10:50:19Z</time>
      </trkpt>
      <trkpt lat="45.50348" lon="6.67251">
        <ele>2015.54</ele>
        <time>2015-12-13T10:50:21Z</time>
      </trkpt>
      <trkpt lat="45.50378" lon="6.67282">
        <ele>2008.81</ele>
        <time>2015-12-13T10:50:25Z</time>
      </trkpt>
      <trkpt lat="45.50384" lon="6.67291">
        <ele>2008.33</ele>
        <time>2015-12-13T10:50:26Z</time>
      </trkpt>
      <trkpt lat="45.50396" lon="6.67306">
        <ele>2008.33</ele>
        <time>2015-12-13T10:50:31Z</time>
      </trkpt>
      <trkpt lat="45.50397" lon="6.67306">
        <ele>2008.33</ele>
        <time>2015-12-13T10:50:33Z</time>
      </trkpt>
      <trkpt lat="45.50408" lon="6.67322">
        <ele>2005.45</ele>
        <time>2015-12-13T10:50:38Z</time>
      </trkpt>
      <trkpt lat="45.50425" lon="6.67339">
        <ele>2000.16</ele>
        <time>2015-12-13T10:50:41Z</time>
      </trkpt>
      <trkpt lat="45.50433" lon="6.67343">
        <ele>1998.72</ele>
        <time>2015-12-13T10:50:42Z</time>
      </trkpt>
      <trkpt lat="45.50442" lon="6.67347">
        <ele>1996.32</ele>
        <time>2015-12-13T10:50:43Z</time>
      </trkpt>
      <trkpt lat="45.50449" lon="6.67352">
        <ele>1996.32</ele>
        <time>2015-12-13T10:50:44Z</time>
      </trkpt>
      <trkpt lat="45.50456" lon="6.6736">
        <ele>1996.32</ele>
        <time>2015-12-13T10:50:45Z</time>
      </trkpt>
      <trkpt lat="45.50462" lon="6.67368">
        <ele>1995.35</ele>
        <time>2015-12-13T10:50:46Z</time>
      </trkpt>
      <trkpt lat="45.50467" lon="6.67376">
        <ele>1994.39</ele>
        <time>2015-12-13T10:50:47Z</time>
      </trkpt>
      <trkpt lat="45.50471" lon="6.67385">
        <ele>1993.43</ele>
        <time>2015-12-13T10:50:48Z</time>
      </trkpt>
      <trkpt lat="45.50494" lon="6.67495">
        <ele>1991.51</ele>
        <time>2015-12-13T10:51:02Z</time>
      </trkpt>
      <trkpt lat="45.50511" lon="6.67561">
        <ele>1990.07</ele>
        <time>2015-12-13T10:51:15Z</time>
      </trkpt>
      <trkpt lat="45.50535" lon="6.67608">
        <ele>1987.18</ele>
        <time>2015-12-13T10:51:28Z</time>
      </trkpt>
      <trkpt lat="45.50557" lon="6.67652">
        <ele>1985.26</ele>
        <time>2015-12-13T10:51:40Z</time>
      </trkpt>
      <trkpt lat="45.50565" lon="6.6766">
        <ele>1983.82</ele>
        <time>2015-12-13T10:51:42Z</time>
      </trkpt>
      <trkpt lat="45.5057" lon="6.67663">
        <ele>1982.86</ele>
        <time>2015-12-13T10:51:43Z</time>
      </trkpt>
      <trkpt lat="45.50576" lon="6.67664">
        <ele>1982.38</ele>
        <time>2015-12-13T10:51:44Z</time>
      </trkpt>
      <trkpt lat="45.5058" lon="6.67662">
        <ele>1982.38</ele>
        <time>2015-12-13T10:51:45Z</time>
      </trkpt>
      <trkpt lat="45.50583" lon="6.67658">
        <ele>1982.38</ele>
        <time>2015-12-13T10:51:46Z</time>
      </trkpt>
      <trkpt lat="45.50587" lon="6.67655">
        <ele>1982.38</ele>
        <time>2015-12-13T10:51:47Z</time>
      </trkpt>
      <trkpt lat="45.50594" lon="6.67648">
        <ele>1981.9</ele>
        <time>2015-12-13T10:51:49Z</time>
      </trkpt>
      <trkpt lat="45.50597" lon="6.67646">
        <ele>1981.9</ele>
        <time>2015-12-13T10:51:50Z</time>
      </trkpt>
      <trkpt lat="45.50601" lon="6.67645">
        <ele>1980.93</ele>
        <time>2015-12-13T10:51:51Z</time>
      </trkpt>
      <trkpt lat="45.50605" lon="6.67645">
        <ele>1980.93</ele>
        <time>2015-12-13T10:51:52Z</time>
      </trkpt>
      <trkpt lat="45.50609" lon="6.67645">
        <ele>1980.93</ele>
        <time>2015-12-13T10:51:53Z</time>
      </trkpt>
      <trkpt lat="45.50611" lon="6.67646">
        <ele>1980.93</ele>
        <time>2015-12-13T10:51:54Z</time>
      </trkpt>
      <trkpt lat="45.50611" lon="6.67645">
        <ele>1981.41</ele>
        <time>2015-12-13T10:52:03Z</time>
      </trkpt>
      <trkpt lat="45.50612" lon="6.67645">
        <ele>1980.93</ele>
        <time>2015-12-13T10:52:24Z</time>
      </trkpt>
      <trkpt lat="45.50612" lon="6.67645">
        <ele>1980.93</ele>
        <time>2015-12-13T10:52:45Z</time>
      </trkpt>
      <trkpt lat="45.50612" lon="6.67644">
        <ele>1977.09</ele>
        <time>2015-12-13T10:52:55Z</time>
      </trkpt>
      <trkpt lat="45.50612" lon="6.67644">
        <ele>1980.45</ele>
        <time>2015-12-13T10:52:56Z</time>
      </trkpt>
      <trkpt lat="45.50611" lon="6.67644">
        <ele>1983.82</ele>
        <time>2015-12-13T10:53:04Z</time>
      </trkpt>
      <trkpt lat="45.50612" lon="6.67645">
        <ele>1980.45</ele>
        <time>2015-12-13T10:53:06Z</time>
      </trkpt>
      <trkpt lat="45.50612" lon="6.67645">
        <ele>1980.45</ele>
        <time>2015-12-13T10:53:07Z</time>
      </trkpt>
      <trkpt lat="45.50612" lon="6.67647">
        <ele>1984.3</ele>
        <time>2015-12-13T10:53:09Z</time>
      </trkpt>
      <trkpt lat="45.50612" lon="6.67646">
        <ele>1981.41</ele>
        <time>2015-12-13T10:53:10Z</time>
      </trkpt>
      <trkpt lat="45.50612" lon="6.6765">
        <ele>1980.93</ele>
        <time>2015-12-13T10:53:29Z</time>
      </trkpt>
    </trkseg>
  </trk>
</gpx>